[[{"header":{"parameterUnit":"m.s-1","parameterCategory":1,"la1":30.6,"la2":29.2853,"lo1":-89.7004,"lo2":-87.6739,"dy":0.0162,"dx":0.0183,"nx":112,"ny":82,"refTime":"2026-05-08T00:00:00:Z","depth":0,"parameterNumber":2,"parameterNumberName":"U-component_of_WINDS"},"data":[0.0,0.0,0.0,0.0,0.0,0.0,0.0,0.0,0.0,0.0,0.0,0.0,0.0,0.0,0.0,0.0,0.0,0.0,0.0,0.0,0.0,0.0,0.0,0.0,0.0,0.0,0.0,0.0,0.0,0.0,0.0,0.0,0.0,0.0,0.0,0.0,0.0,0.0,0.0,0.0,0.0,0.0,0.0,0.0,0.0,0.0,0.0,0.0,0.0,0.0,0.0,0.0,0.0,0.0,0.0,0.0,0.0,0.0,0.0,0.0,0.0,0.0,0.0,0.0,0.0,0.0,0.0,0.0,0.0,0.0,0.0,0.0,0.0,0.0,0.0,0.0,0.0,0.0,0.0,0.0,0.0,0.0,0.0,0.0,0.0,0.0,0.0,0.0,0.0,0.0,4.514,4.5208,4.6096,4.6984,4.7634,4.711,4.581,4.3626,0.0,0.0,0.0,0.0,0.0,0.0,0.0,0.0,0.0,0.0,0.0,0.0,0.0,0.0,0.0,0.0,0.0,0.0,0.0,0.0,0.0,0.0,0.0,0.0,0.0,0.0,0.0,0.0,0.0,0.0,0.0,0.0,0.0,0.0,0.0,0.0,0.0,0.0,0.0,0.0,0.0,0.0,0.0,0.0,0.0,0.0,0.0,0.0,0.0,0.0,0.0,0.0,0.0,0.0,0.0,0.0,0.0,0.0,0.0,0.0,0.0,0.0,0.0,0.0,0.0,0.0,0.0,0.0,0.0,0.0,0.0,0.0,0.0,0.0,0.0,0.0,0.0,0.0,0.0,0.0,0.0,0.0,0.0,0.0,0.0,0.0,0.0,0.0,0.0,0.0,0.0,0.0,0.0,0.0,0.0,0.0,0.0,0.0,0.0,0.0,0.0,0.0,0.0,0.0,4.4843,4.5233,4.5134,4.5768,4.7541,4.6075,4.4617,4.3552,0.0,0.0,0.0,0.0,0.0,0.0,0.0,0.0,0.0,0.0,0.0,0.0,0.0,0.0,0.0,0.0,0.0,0.0,0.0,0.0,0.0,0.0,0.0,0.0,0.0,0.0,0.0,0.0,0.0,0.0,0.0,0.0,0.0,0.0,0.0,0.0,0.0,0.0,0.0,0.0,0.0,0.0,0.0,0.0,0.0,0.0,0.0,0.0,0.0,0.0,0.0,0.0,0.0,0.0,0.0,0.0,0.0,0.0,0.0,0.0,0.0,0.0,0.0,0.0,0.0,0.0,0.0,0.0,0.0,0.0,0.0,0.0,0.0,0.0,0.0,0.0,0.0,0.0,0.0,0.0,0.0,0.0,0.0,0.0,0.0,0.0,0.0,0.0,0.0,0.0,0.0,0.0,0.0,0.0,0.0,0.0,0.0,0.0,0.0,0.0,0.0,0.0,0.0,4.3726,4.3818,4.4253,4.4554,4.5055,4.5999,4.5254,4.4176,4.2928,4.2433,0.0,0.0,0.0,0.0,0.0,0.0,0.0,0.0,0.0,0.0,0.0,0.0,0.0,0.0,0.0,0.0,0.0,0.0,0.0,0.0,0.0,0.0,0.0,0.0,0.0,0.0,0.0,0.0,0.0,0.0,0.0,0.0,0.0,0.0,0.0,0.0,0.0,0.0,0.0,0.0,0.0,0.0,0.0,0.0,0.0,0.0,0.0,0.0,0.0,0.0,0.0,0.0,0.0,0.0,0.0,0.0,0.0,0.0,0.0,0.0,0.0,0.0,0.0,0.0,0.0,0.0,0.0,0.0,0.0,0.0,0.0,0.0,0.0,0.0,0.0,0.0,0.0,0.0,0.0,0.0,0.0,0.0,0.0,0.0,0.0,0.0,0.0,0.0,0.0,0.0,0.0,0.0,0.0,0.0,0.0,0.0,0.0,0.0,0.0,0.0,0.0,0.0,4.3394,4.32,4.3493,4.4048,4.4488,4.469,4.436,4.3608,4.2378,4.1368,0.0,0.0,0.0,0.0,0.0,0.0,0.0,0.0,0.0,0.0,0.0,0.0,0.0,0.0,0.0,0.0,0.0,0.0,0.0,0.0,0.0,0.0,0.0,0.0,0.0,0.0,0.0,0.0,0.0,0.0,0.0,0.0,0.0,0.0,0.0,0.0,0.0,0.0,0.0,0.0,0.0,0.0,0.0,0.0,0.0,0.0,0.0,0.0,0.0,0.0,0.0,0.0,0.0,0.0,0.0,0.0,0.0,0.0,0.0,0.0,0.0,0.0,0.0,0.0,0.0,0.0,0.0,0.0,0.0,0.0,0.0,0.0,0.0,0.0,0.0,0.0,0.0,0.0,0.0,0.0,0.0,0.0,0.0,0.0,0.0,0.0,0.0,0.0,0.0,0.0,0.0,0.0,0.0,0.0,0.0,0.0,0.0,0.0,0.0,0.0,0.0,0.0,4.368,4.3825,4.3548,4.3534,4.3883,4.4654,4.3332,4.2415,4.2304,4.0836,0.0,0.0,0.0,0.0,0.0,0.0,0.0,0.0,0.0,0.0,0.0,0.0,0.0,0.0,0.0,0.0,0.0,0.0,0.0,0.0,0.0,0.0,0.0,0.0,0.0,0.0,0.0,0.0,0.0,0.0,0.0,0.0,0.0,0.0,0.0,0.0,0.0,0.0,0.0,0.0,0.0,0.0,0.0,0.0,0.0,0.0,0.0,0.0,0.0,0.0,0.0,0.0,0.0,0.0,0.0,0.0,0.0,0.0,0.0,0.0,0.0,0.0,0.0,0.0,0.0,0.0,0.0,0.0,0.0,0.0,0.0,0.0,0.0,0.0,0.0,0.0,0.0,0.0,0.0,0.0,0.0,0.0,0.0,0.0,0.0,0.0,0.0,0.0,0.0,0.0,0.0,0.0,0.0,0.0,0.0,0.0,0.0,0.0,0.0,0.0,0.0,0.0,4.358,4.3643,0.0,4.3612,4.3608,4.392,4.3387,4.2616,4.1625,0.0,0.0,0.0,0.0,0.0,0.0,0.0,0.0,0.0,0.0,0.0,0.0,0.0,0.0,0.0,0.0,0.0,0.0,0.0,0.0,0.0,0.0,0.0,0.0,0.0,0.0,0.0,0.0,0.0,0.0,0.0,0.0,0.0,0.0,0.0,0.0,0.0,0.0,0.0,0.0,0.0,0.0,0.0,0.0,0.0,0.0,0.0,0.0,0.0,0.0,0.0,0.0,0.0,0.0,0.0,0.0,0.0,0.0,0.0,0.0,0.0,0.0,0.0,0.0,0.0,0.0,0.0,0.0,0.0,0.0,0.0,0.0,0.0,0.0,0.0,0.0,0.0,0.0,0.0,0.0,0.0,0.0,0.0,0.0,0.0,0.0,0.0,0.0,0.0,0.0,0.0,0.0,0.0,0.0,0.0,0.0,0.0,0.0,0.0,0.0,0.0,0.0,4.3118,4.3515,4.3753,0.0,4.3726,4.3631,4.3532,4.302,4.2158,4.0799,0.0,0.0,0.0,0.0,0.0,0.0,0.0,0.0,0.0,0.0,0.0,0.0,0.0,0.0,0.0,0.0,0.0,0.0,0.0,0.0,0.0,0.0,0.0,0.0,0.0,0.0,0.0,0.0,0.0,0.0,0.0,0.0,0.0,0.0,0.0,0.0,0.0,0.0,0.0,0.0,0.0,0.0,0.0,0.0,0.0,0.0,0.0,0.0,0.0,0.0,0.0,0.0,0.0,0.0,0.0,0.0,0.0,0.0,0.0,0.0,0.0,0.0,0.0,0.0,0.0,0.0,0.0,0.0,0.0,0.0,0.0,0.0,0.0,0.0,0.0,0.0,0.0,0.0,0.0,0.0,0.0,0.0,0.0,0.0,0.0,0.0,0.0,0.0,0.0,0.0,0.0,0.0,0.0,0.0,0.0,0.0,0.0,0.0,0.0,0.0,0.0,0.0,4.2052,4.3516,4.4308,4.3597,4.3804,4.3849,4.3513,4.2029,4.0781,0.0,0.0,0.0,0.0,0.0,0.0,0.0,0.0,0.0,0.0,0.0,0.0,0.0,0.0,0.0,0.0,0.0,0.0,0.0,0.0,0.0,0.0,0.0,0.0,0.0,0.0,0.0,0.0,0.0,0.0,0.0,0.0,0.0,0.0,0.0,0.0,0.0,0.0,0.0,0.0,0.0,0.0,0.0,0.0,0.0,0.0,0.0,0.0,0.0,0.0,0.0,0.0,0.0,0.0,0.0,0.0,0.0,0.0,0.0,0.0,0.0,0.0,0.0,0.0,0.0,0.0,0.0,0.0,0.0,0.0,0.0,0.0,0.0,0.0,0.0,0.0,0.0,0.0,0.0,0.0,0.0,0.0,0.0,0.0,0.0,0.0,0.0,0.0,0.0,0.0,0.0,0.0,0.0,0.0,0.0,0.0,0.0,0.0,0.0,0.0,0.0,0.0,0.0,4.2718,4.3828,4.4501,4.428,4.3899,4.3597,4.3532,4.2543,4.1368,3.9974,0.0,0.0,0.0,0.0,0.0,0.0,0.0,0.0,0.0,0.0,0.0,0.0,0.0,0.0,0.0,0.0,0.0,0.0,0.0,0.0,0.0,0.0,0.0,0.0,0.0,0.0,0.0,0.0,0.0,0.0,0.0,0.0,0.0,0.0,0.0,0.0,0.0,0.0,0.0,0.0,0.0,0.0,0.0,0.0,0.0,0.0,0.0,0.0,0.0,0.0,0.0,0.0,0.0,0.0,0.0,0.0,0.0,0.0,0.0,0.0,0.0,0.0,0.0,0.0,0.0,0.0,0.0,0.0,0.0,0.0,0.0,0.0,0.0,0.0,0.0,0.0,0.0,0.0,0.0,0.0,0.0,0.0,0.0,0.0,0.0,0.0,0.0,0.0,0.0,0.0,0.0,0.0,0.0,0.0,0.0,0.0,0.0,0.0,0.0,0.0,0.0,0.0,4.1797,4.2886,4.3547,4.3415,4.3007,4.2687,4.2543,4.1809,4.0653,3.9038,0.0,0.0,0.0,0.0,0.0,0.0,0.0,0.0,0.0,0.0,0.0,0.0,0.0,0.0,0.0,0.0,0.0,0.0,0.0,0.0,0.0,0.0,0.0,0.0,0.0,0.0,0.0,0.0,0.0,0.0,0.0,0.0,0.0,0.0,0.0,0.0,0.0,0.0,0.0,0.0,0.0,0.0,0.0,0.0,0.0,0.0,0.0,0.0,0.0,0.0,0.0,0.0,0.0,0.0,0.0,0.0,0.0,0.0,0.0,0.0,0.0,0.0,0.0,0.0,0.0,0.0,0.0,0.0,0.0,0.0,0.0,0.0,0.0,0.0,0.0,0.0,0.0,0.0,0.0,0.0,0.0,0.0,0.0,0.0,0.0,0.0,0.0,0.0,0.0,0.0,0.0,0.0,0.0,0.0,0.0,0.0,0.0,0.0,0.0,0.0,0.0,0.0,4.0043,4.1256,4.1983,4.167,4.1595,4.1438,4.1144,4.0359,3.9239,3.7698,0.0,0.0,0.0,0.0,0.0,0.0,0.0,0.0,0.0,0.0,0.0,0.0,0.0,0.0,0.0,0.0,0.0,0.0,0.0,0.0,0.0,0.0,0.0,0.0,0.0,0.0,0.0,0.0,0.0,0.0,0.0,0.0,0.0,0.0,0.0,0.0,0.0,0.0,0.0,0.0,0.0,0.0,0.0,0.0,0.0,0.0,0.0,0.0,0.0,0.0,0.0,0.0,0.0,0.0,0.0,0.0,0.0,0.0,0.0,0.0,4.0894,0.0,0.0,0.0,0.0,0.0,0.0,0.0,0.0,0.0,0.0,0.0,0.0,0.0,0.0,0.0,0.0,0.0,0.0,0.0,0.0,0.0,0.0,0.0,0.0,0.0,0.0,0.0,0.0,0.0,0.0,0.0,0.0,0.0,0.0,0.0,0.0,0.0,0.0,0.0,0.0,0.0,4.031,4.1388,4.2084,4.2008,4.1526,4.119,4.1111,4.0359,3.9478,3.8505,3.7494,0.0,0.0,0.0,0.0,0.0,0.0,0.0,0.0,0.0,0.0,0.0,0.0,0.0,0.0,0.0,0.0,0.0,0.0,0.0,0.0,0.0,0.0,0.0,0.0,0.0,0.0,0.0,0.0,0.0,0.0,0.0,0.0,0.0,0.0,0.0,0.0,0.0,0.0,0.0,0.0,0.0,0.0,0.0,0.0,0.0,0.0,0.0,0.0,0.0,0.0,0.0,0.0,0.0,0.0,0.0,0.0,0.0,0.0,0.0,0.0,4.0853,0.0,0.0,0.0,0.0,0.0,0.0,0.0,0.0,0.0,0.0,0.0,0.0,0.0,0.0,0.0,0.0,0.0,0.0,0.0,0.0,0.0,0.0,0.0,0.0,0.0,0.0,0.0,0.0,0.0,0.0,0.0,0.0,0.0,0.0,0.0,0.0,0.0,0.0,0.0,0.0,3.9238,4.0387,4.1082,4.0925,4.043,4.0099,3.9955,3.957,3.887,3.779,3.6794,0.0,0.0,0.0,0.0,0.0,0.0,0.0,0.0,0.0,0.0,0.0,0.0,0.0,0.0,0.0,0.0,0.0,0.0,0.0,0.0,0.0,0.0,0.0,0.0,0.0,0.0,0.0,0.0,0.0,0.0,0.0,0.0,0.0,0.0,0.0,0.0,0.0,0.0,0.0,0.0,0.0,0.0,0.0,0.0,0.0,0.0,0.0,0.0,0.0,0.0,0.0,0.0,0.0,4.0696,4.0754,4.0754,4.0754,4.0716,4.0677,4.0716,4.0716,4.0677,4.0716,0.0,0.0,0.0,0.0,0.0,0.0,0.0,0.0,0.0,0.0,0.0,0.0,0.0,0.0,0.0,0.0,0.0,0.0,0.0,0.0,0.0,0.0,0.0,0.0,3.9104,3.8914,3.9177,0.0,0.0,0.0,0.0,0.0,0.0,0.0,0.0,0.0,0.0,0.0,3.8007,3.9181,3.9901,3.9622,3.9257,3.8933,3.8719,3.8707,3.8191,3.6991,3.6113,3.5126,0.0,0.0,0.0,0.0,0.0,0.0,0.0,0.0,0.0,0.0,0.0,0.0,0.0,0.0,0.0,0.0,0.0,0.0,0.0,0.0,0.0,0.0,0.0,0.0,0.0,0.0,0.0,0.0,0.0,0.0,0.0,0.0,4.5312,4.6191,0.0,0.0,0.0,0.0,0.0,0.0,0.0,0.0,0.0,0.0,0.0,0.0,0.0,4.0639,3.9877,4.0434,4.0337,3.9588,4.0239,4.0543,4.0543,4.0543,4.0543,4.0543,4.0543,0.0,4.0543,4.0543,0.0,0.0,0.0,0.0,0.0,0.0,0.0,0.0,0.0,0.0,0.0,0.0,0.0,0.0,0.0,0.0,0.0,0.0,0.0,0.0,0.0,0.0,3.9755,3.9006,3.8258,3.7713,0.0,3.7623,3.7419,3.7192,3.6629,0.0,0.0,0.0,0.0,0.0,0.0,0.0,3.8007,3.8995,3.9645,3.9599,3.9073,3.875,3.8707,3.8707,3.8428,3.7783,3.663,3.5682,3.5118,3.4328,0.0,0.0,0.0,0.0,0.0,0.0,0.0,0.0,0.0,0.0,0.0,0.0,0.0,0.0,0.0,0.0,0.0,0.0,0.0,0.0,0.0,0.0,0.0,0.0,0.0,0.0,0.0,0.0,0.0,4.3711,4.4414,4.4785,4.4492,4.3906,0.0,0.0,0.0,0.0,0.0,0.0,0.0,0.0,0.0,4.1172,4.0593,4.0286,4.0315,4.0581,4.0239,3.9339,3.9662,3.9815,3.9815,3.9815,4.0065,4.0489,4.0489,4.0489,4.0489,4.0489,4.0277,3.9969,0.0,0.0,0.0,0.0,3.9969,4.0008,4.0373,4.0816,4.1014,3.9775,0.0,0.0,0.0,0.0,0.0,0.0,0.0,0.0,0.0,0.0,3.845,3.8102,3.7404,3.6817,3.6817,3.6334,3.5988,0.0,3.6271,3.5921,3.459,0.0,0.0,0.0,0.0,3.7276,3.7276,3.7981,3.8397,3.8225,3.7816,3.7691,3.8003,3.7758,3.7579,3.7524,3.6317,3.5357,3.4881,3.4096,3.3485,0.0,0.0,0.0,0.0,0.0,0.0,0.0,0.0,0.0,0.0,0.0,0.0,0.0,0.0,0.0,0.0,0.0,0.0,0.0,0.0,0.0,0.0,0.0,0.0,0.0,0.0,0.0,0.0,4.2969,4.3379,4.3379,4.3379,4.2793,0.0,0.0,0.0,0.0,0.0,0.0,4.1191,4.0586,4.0527,4.1172,4.0405,4.0154,4.0488,4.0376,3.9888,3.8969,3.8969,3.8969,3.8969,3.8969,3.9411,4.0181,4.0181,4.0296,4.0489,4.0489,4.0373,4.0181,4.0181,4.0046,3.9892,4.0104,4.013,4.0101,4.0312,4.0778,4.0996,3.9391,3.9174,3.9245,3.7773,0.0,0.0,0.0,0.0,3.8943,3.8739,3.8098,3.747,3.7221,3.656,3.5973,3.5973,3.5349,3.4905,0.0,3.5692,3.5545,3.4238,0.0,0.0,0.0,0.0,3.6671,3.6607,3.712,3.7356,3.7024,3.6777,3.6832,3.7434,3.7003,3.6859,3.7175,3.6182,3.5322,3.482,3.4252,3.388,3.3694,0.0,0.0,0.0,0.0,0.0,0.0,0.0,0.0,0.0,0.0,0.0,0.0,0.0,0.0,0.0,0.0,0.0,0.0,0.0,0.0,0.0,0.0,0.0,0.0,0.0,0.0,0.0,0.0,0.0,4.2461,4.2461,0.0,0.0,0.0,0.0,4.1133,4.1172,4.1191,4.1191,4.1152,4.1152,4.1191,4.0896,4.0408,3.9668,3.947,3.8931,3.8065,3.8065,3.8065,3.8065,3.8065,3.8546,3.9354,3.9354,3.9777,4.0489,4.0489,4.0046,3.9354,3.9354,3.8854,3.8238,3.9065,3.9169,3.8995,3.9834,3.9941,3.9637,3.9226,3.8585,3.7981,3.7906,3.788,0.0,0.0,3.8321,3.8536,3.7764,3.7544,3.7294,3.6541,3.5716,3.5064,3.5064,3.4615,3.4396,0.0,3.443,3.4099,3.4576,0.0,3.4907,3.5355,3.6161,3.6607,3.6358,3.6805,3.7002,3.6752,3.6463,3.6644,3.7434,3.7003,3.6859,3.7175,3.6649,3.6088,3.5571,3.5537,3.5165,3.4455,3.4438,0.0,0.0,0.0,0.0,0.0,0.0,0.0,0.0,0.0,0.0,0.0,0.0,0.0,0.0,0.0,0.0,0.0,0.0,0.0,0.0,0.0,0.0,0.0,0.0,0.0,0.0,0.0,0.0,4.0918,4.1289,0.0,3.8887,3.9199,3.9297,3.873,3.9219,3.9531,3.9531,3.9531,3.9531,3.9531,3.9424,3.9168,3.8771,3.8697,3.8152,3.7161,3.7161,3.7161,3.7161,3.7161,3.7642,3.845,3.845,3.8931,3.9719,3.9497,3.9668,4.0065,4.0065,3.9873,3.9627,3.9749,3.9737,3.9642,3.9745,3.969,3.9534,3.9212,3.8785,3.8409,3.8409,3.8409,3.8409,3.8409,3.8173,3.7845,3.7551,3.6688,3.575,3.5223,3.4647,3.4174,3.3902,3.3496,3.322,3.3403,3.3963,3.4274,3.3917,3.4472,3.4897,3.4677,3.5391,3.584,3.5558,3.5533,3.5437,3.5123,3.5328,3.5807,3.6652,3.6399,3.6469,3.7175,3.6357,3.5827,3.5622,3.5622,3.529,3.4605,3.4093,3.3073,0.0,0.0,0.0,0.0,0.0,0.0,0.0,0.0,0.0,0.0,0.0,0.0,0.0,0.0,0.0,0.0,0.0,0.0,0.0,0.0,0.0,0.0,0.0,0.0,0.0,0.0,4.0547,3.918,3.9785,3.9531,3.75,3.8086,3.8359,3.7773,3.8262,3.8594,3.8594,3.8594,3.8594,3.8594,3.8529,3.8297,3.7866,3.7797,3.7266,3.6315,3.6315,3.6315,3.6315,3.6315,3.6757,3.7565,3.7565,3.7997,3.8706,3.8495,3.8783,3.9407,3.9695,3.9792,3.9774,3.9584,3.9634,3.9694,3.9107,3.9076,3.9212,3.8738,3.8604,3.8707,3.8707,3.8505,3.8303,3.8303,3.7716,3.6989,3.6559,3.5652,3.4623,3.3939,3.3683,3.3449,3.29,3.2675,3.2522,3.2247,3.2948,3.3521,3.3285,3.3883,3.4431,3.4496,3.4925,3.5174,3.4981,3.4695,3.4401,3.4117,3.4381,3.4981,3.5933,3.5634,3.5793,3.6872,3.6008,3.5511,3.5605,3.5622,3.5407,3.4941,3.3789,3.266,3.1544,0.0,0.0,0.0,0.0,0.0,0.0,0.0,0.0,0.0,0.0,0.0,0.0,0.0,0.0,0.0,0.0,0.0,0.0,0.0,0.0,0.0,0.0,0.0,3.8215,3.8379,3.8125,3.7383,3.8047,3.8223,3.7344,3.8027,3.8516,3.8516,3.8516,3.8516,3.8516,3.8516,3.8516,3.8516,3.8322,3.7812,3.6968,3.6752,3.6276,3.5493,3.5493,3.5493,3.5493,3.5493,3.593,3.6661,3.6647,3.7003,3.7544,3.7544,3.7395,3.7246,3.8037,3.8357,3.8357,3.8373,3.8651,3.8896,3.7864,3.7991,3.8505,3.7716,3.7991,3.8634,3.8634,3.8083,3.7441,3.7441,3.6872,3.5959,3.4715,3.4388,3.4047,3.276,3.2858,3.2967,3.2144,3.2265,3.2294,3.1513,3.1329,3.1691,3.2813,3.3007,3.3468,3.4865,3.487,0.0,3.4674,3.4401,3.4117,3.3815,3.3825,3.4282,3.5403,3.4799,3.4957,3.6318,3.5641,3.5324,3.5543,3.5577,3.556,3.5532,3.3567,3.2222,3.1564,0.0,0.0,0.0,0.0,0.0,0.0,0.0,0.0,0.0,0.0,0.0,0.0,0.0,0.0,0.0,0.0,0.0,0.0,0.0,0.0,0.0,3.5718,3.6222,3.7181,3.794,3.8105,3.7324,3.748,3.7324,3.6445,3.6562,3.6719,3.6719,3.6719,3.6719,3.6719,3.6719,3.6719,3.6719,3.6608,3.6393,3.6064,3.5945,3.5776,3.5493,3.5493,3.5493,3.5493,3.5493,3.5622,3.582,3.5614,3.5974,3.6631,3.6241,3.6377,3.6873,3.7348,3.7532,3.7565,3.7914,3.8003,3.7911,3.761,3.7257,3.6909,3.6688,3.678,3.6964,3.6964,3.6798,3.6615,3.6615,3.6028,3.5227,3.457,3.399,3.3283,3.2248,3.2332,3.2467,3.1684,3.1397,3.1138,3.0638,3.0063,3.036,3.2608,3.3007,3.3403,3.4622,3.4734,0.0,3.4379,3.4265,3.4117,3.3815,3.4321,3.4903,3.5457,3.547,3.5715,3.6347,3.5822,3.5307,3.4878,3.4894,3.4399,3.3443,3.2331,3.1475,0.0,0.0,0.0,0.0,0.0,0.0,0.0,0.0,0.0,0.0,0.0,0.0,0.0,0.0,0.0,0.0,0.0,0.0,0.0,0.0,0.0,0.0,3.5493,3.5699,3.6232,3.653,3.6688,3.6659,3.6367,3.6113,3.6016,3.5996,3.5996,3.5996,3.5996,3.5996,3.5996,3.5996,3.5996,3.5996,3.5872,3.5782,3.5699,3.5622,3.5545,3.5493,3.5493,3.5493,3.5493,3.5493,3.5432,3.532,3.5174,3.5228,3.5416,3.5067,3.5169,0.0,0.0,0.0,0.0,0.0,3.7848,3.79,3.7221,3.689,3.6688,3.5991,3.6009,3.6303,3.6303,3.5912,3.5531,3.5695,3.4882,3.39,3.3665,3.3116,3.2362,3.1353,3.1428,3.1491,3.0543,3.0337,3.0179,2.9771,2.9305,0.0,3.1501,3.2117,3.2827,3.4277,3.4398,3.4284,3.42,3.4099,3.409,3.4293,3.4715,3.518,3.5643,3.5703,0.0,0.0,0.0,3.5172,3.4624,3.4333,0.0,0.0,0.0,0.0,0.0,0.0,0.0,0.0,2.6849,2.6004,0.0,0.0,0.0,0.0,0.0,0.0,0.0,0.0,0.0,0.0,0.0,0.0,0.0,0.0,0.0,0.0,3.5493,3.5493,3.5493,3.4795,3.469,3.5745,3.5214,3.5078,3.5918,3.5996,3.5996,3.5996,3.5996,3.5996,3.5996,0.0,0.0,0.0,0.0,3.5697,3.5699,3.5584,3.5493,3.5493,3.5493,3.5493,3.5493,3.5493,3.5354,3.5105,3.507,3.4735,3.42,3.4264,3.4166,3.4009,3.4633,3.5459,3.6376,3.7092,3.7863,3.834,3.6758,0.0,0.0,3.5253,3.5224,3.5875,3.5875,3.5121,3.4341,3.4626,3.3677,3.255,3.2451,3.2092,3.1524,3.0476,3.0495,3.0456,2.9308,2.9369,2.952,2.9046,2.8952,2.925,3.0063,3.087,3.2004,3.3751,3.3906,3.3876,3.4123,3.3935,3.4119,3.4899,0.0,0.0,3.5827,3.5666,3.5543,3.561,3.5232,3.4854,3.4495,3.3866,3.3156,3.2492,3.257,3.2181,3.1336,3.0594,2.9503,2.8068,2.5715,2.4489,0.0,0.0,0.0,0.0,0.0,0.0,0.0,0.0,0.0,0.0,0.0,0.0,0.0,0.0,0.0,3.5493,3.5493,3.5493,3.5493,3.4757,3.4603,3.562,3.5693,3.5742,3.5976,3.5996,3.5996,3.5996,3.5996,3.5996,3.5996,3.5996,3.5996,3.5996,3.5802,3.5697,3.5699,3.5584,3.5493,3.5493,0.0,0.0,3.5493,3.5493,3.5354,3.5088,3.487,3.4572,3.4232,3.4681,3.4816,3.4715,3.4229,3.4963,3.6321,3.6468,3.7037,3.7539,3.6212,3.5416,3.4793,3.3409,3.3116,3.3241,3.3241,3.3342,0.0,3.3073,3.3028,3.2872,3.2127,3.1861,3.1662,3.1121,3.1048,3.0779,2.9643,2.972,2.9692,2.8709,2.8773,2.925,3.0063,3.087,3.174,3.2746,3.3437,3.3815,3.3876,3.3842,3.4119,3.4899,3.499,3.5254,3.5827,3.5864,3.577,3.5599,3.4556,3.3875,3.3786,3.3082,3.2382,3.1754,3.2266,3.1842,3.0524,2.9249,2.7908,2.6519,2.6164,2.5418,0.0,0.0,0.0,0.0,0.0,0.0,0.0,0.0,0.0,0.0,0.0,3.5493,3.5493,0.0,3.5493,3.5493,3.5493,3.5353,3.4911,3.4468,3.4558,3.5528,3.5378,3.522,3.5293,3.5332,3.5176,3.4726,3.4707,3.4707,3.4707,3.5117,3.5351,3.5351,3.5587,3.5697,3.5699,3.5584,3.5276,3.4853,3.4853,3.4853,3.4853,3.4853,3.4868,3.4889,3.4754,3.442,3.4042,3.4706,3.499,3.499,3.5037,3.555,3.634,3.6743,3.7247,3.754,3.653,3.569,3.4918,3.3507,3.305,3.2979,3.259,3.2517,3.25,3.2517,3.235,3.2162,3.1861,3.166,3.1346,3.0811,3.0649,3.0442,2.9661,2.9537,2.9444,2.9071,2.8998,2.9122,2.9549,3.0595,3.1659,3.2485,3.3293,3.3807,3.3807,3.4156,3.4724,3.5569,3.6009,3.6419,3.6862,3.6458,3.5983,3.5633,3.435,3.3582,3.3582,3.2578,3.1869,3.1482,3.1854,3.1412,3.0329,2.9576,2.8304,2.6493,2.6324,2.5335,0.0,0.0,0.0,0.0,0.0,0.0,0.0,0.0,3.5526,3.5493,3.5493,3.5493,3.5493,3.5493,3.5493,3.5493,3.5372,3.5007,3.4295,3.4045,3.4218,3.4988,3.4584,3.4266,3.4335,3.4414,3.416,3.3457,3.3398,3.3476,3.3633,3.4316,3.4785,3.4941,3.5431,3.5697,3.5699,3.5584,3.5064,3.4199,3.4372,3.4353,3.4199,3.4372,3.4538,3.4694,3.4569,3.4349,3.4082,3.4715,3.5082,3.5349,3.6193,3.6523,3.6597,3.7239,3.7671,3.7785,3.689,3.6203,3.552,3.388,3.3336,3.3195,3.2476,3.2039,3.1861,3.2144,3.1787,3.1389,3.164,3.1449,3.1077,3.0544,3.0445,3.0319,2.9954,2.9593,2.9401,2.9584,2.9289,2.9049,2.9195,3.0448,3.1623,3.2284,3.3183,3.3807,3.3807,3.4376,3.5165,3.6193,3.6872,3.7405,3.7753,3.6943,3.6182,3.5605,3.4447,3.3735,3.3582,3.2407,3.164,3.1482,3.1482,3.1087,3.0329,3.0133,2.8878,2.6757,2.6107,2.4916,4.1797,4.0195,3.9375,4.082,3.9238,3.7494,0.0,0.0,3.5584,3.5526,3.5493,3.5493,3.5493,3.5493,3.5493,3.5493,3.4853,3.4314,3.4199,3.3526,3.3083,3.3199,3.3295,3.3374,3.3435,3.3516,3.3496,3.3418,3.3398,3.373,3.4512,3.4648,3.5059,3.582,3.5743,3.5697,3.5699,3.5584,3.5064,3.4199,3.4988,3.4949,3.4218,3.5007,3.5111,3.4674,3.4136,3.4291,3.4862,3.4954,3.5477,3.6229,3.7037,3.7349,3.7367,3.7489,3.7671,3.7716,3.6506,3.5764,3.5052,3.3094,3.2457,3.2321,3.1589,3.1582,3.1716,3.1411,3.1545,3.166,3.1351,3.123,3.1274,3.1556,3.1595,3.1531,3.1255,3.0886,3.0394,2.9737,2.9296,2.9214,2.9953,3.0797,3.1421,3.1513,3.2834,3.3807,3.3807,3.388,3.4541,3.6119,3.6376,3.668,3.7235,3.6724,3.6182,3.5605,3.4894,3.4235,3.3633,3.2895,3.2176,3.1524,3.1482,3.1087,3.0329,2.9504,2.8111,2.6162,2.532,2.4545,4.0898,3.9902,3.9414,3.9629,3.8437,3.7141,3.69,3.6192,3.5449,3.4853,3.5161,3.5493,3.5493,3.5493,3.5493,0.0,3.4776,3.4007,3.3506,3.2737,3.2006,3.1506,3.2032,3.2454,3.2474,3.2629,3.248,3.1973,3.1953,3.2109,3.2461,3.2969,3.3633,3.4453,3.4822,3.5232,3.5699,3.5584,3.5064,3.4199,3.4564,3.4545,3.4199,3.4584,3.4729,3.4653,3.4062,3.4266,3.5027,3.5569,3.6248,3.7074,3.7881,3.8193,3.8193,3.8193,3.8091,3.7771,3.6968,3.6391,3.5676,3.4108,3.3288,3.2797,3.2053,3.1652,3.1411,3.1269,3.1312,3.1411,3.1252,3.119,3.1252,3.1411,3.164,3.1774,3.1655,3.1546,3.1387,3.1073,3.068,3.0503,3.0834,3.1568,3.21,3.21,3.3073,3.3807,3.3807,3.4211,3.5147,3.6817,3.7422,3.7558,3.725,3.6981,3.6481,3.565,3.4592,3.3887,3.3582,3.2516,3.1796,3.1539,3.1482,3.0837,2.9566,2.9192,2.7931,2.5807,2.514,2.4519,4.0234,3.9375,3.8789,3.8633,3.7559,3.6384,3.5904,3.535,3.4789,3.4308,3.4699,3.5218,3.5468,3.5493,3.5493,3.5493,3.4564,3.3622,3.2987,3.2006,3.1198,3.0814,3.1434,3.1988,3.2246,3.2224,3.1836,3.0976,3.0898,3.0996,3.125,3.1855,3.2676,3.373,3.4237,3.4893,3.568,3.5584,3.5064,3.4199,3.443,3.443,3.4199,3.4299,3.4461,3.4672,3.4296,3.4468,3.5064,3.6174,3.6964,3.7599,3.8395,3.8707,3.8707,3.8707,3.835,3.7859,3.7506,3.7058,3.6441,3.5311,3.4463,3.3758,3.2787,3.206,3.1444,3.1258,3.119,3.123,3.1351,3.1291,3.1269,3.1487,3.1677,3.1861,3.1968,3.2012,3.1982,3.1982,3.1682,3.1458,3.1678,3.221,3.2687,3.2908,3.344,3.3807,3.3807,3.4724,3.5917,3.7331,3.8101,3.8117,3.7248,3.7058,3.6603,3.565,3.4496,3.3786,3.3582,3.2461,3.1697,3.1524,3.1482,3.0896,2.969,2.9254,2.8052,2.6271,2.5241,2.4519,3.9902,3.8047,3.6523,3.8184,3.668,3.4958,3.5651,3.4486,3.3453,3.4077,3.4218,3.4507,3.5353,3.5493,3.5493,3.5493,3.4064,3.2929,3.2891,3.1487,3.0737,3.1564,3.18,3.2241,0.0,3.258,3.1836,3.0976,3.0898,3.1269,3.2129,3.2187,3.2969,3.4609,3.4549,3.4893,3.568,3.5584,3.5064,3.4199,3.5064,3.5026,3.4205,3.4545,3.4695,3.471,3.4888,3.4972,3.5119,3.678,3.7489,3.7599,3.8395,3.8707,3.8707,3.8707,3.835,3.7893,3.7859,3.7578,3.7049,3.6235,3.5633,3.4961,3.3546,3.2698,3.2104,3.1393,3.119,3.1291,3.1696,3.1507,3.1428,3.2248,3.2127,3.1915,3.2384,3.225,3.1982,3.1982,3.1682,3.1641,3.243,3.2596,3.2871,3.3642,3.377,3.3807,3.3807,3.5238,3.6578,3.7404,3.7744,3.772,3.7248,3.6724,3.6182,3.5605,3.4941,3.4284,3.3633,3.2933,3.2216,3.1524,3.1482,3.1467,3.1409,2.9766,2.8685,2.8091,2.5856,2.4519,3.7637,3.709,3.6738,3.6152,3.5351,3.4431,3.3439,3.3208,3.3222,3.3327,3.3333,3.3603,3.4487,3.4641,3.4641,3.4641,3.366,3.2891,3.2891,3.1948,3.1371,3.1679,3.2839,0.0,0.0,0.0,0.0,3.1777,3.123,3.1035,3.1328,3.1894,3.2461,3.3027,3.3984,3.4641,3.4903,3.5301,3.5353,3.5064,3.5372,3.5353,3.5051,3.4812,3.4996,3.5482,3.5147,3.5642,3.6688,3.7257,3.7808,3.8322,3.8597,3.8707,3.8707,3.8707,3.8596,3.835,3.7667,3.7542,3.7488,3.6549,3.605,3.5658,3.5185,3.4196,3.3193,3.2948,3.2476,3.2092,3.2248,3.2144,3.2162,3.2417,3.2616,3.2777,3.2952,3.3085,3.3177,3.3177,3.3085,3.3073,3.3348,3.3403,3.3678,3.4486,3.4137,3.399,3.4541,3.5587,3.6597,3.7404,3.7744,3.772,3.7248,3.6724,3.6182,3.5605,3.4988,3.4284,3.3633,3.2949,3.2272,3.1524,3.1482,3.1219,3.0703,2.9566,2.8433,2.7296,2.5987,2.4858,3.6777,3.6641,3.6562,3.5449,3.4922,3.4374,3.3152,3.3037,3.3249,3.3378,3.3134,3.316,3.4026,3.4199,3.4103,3.3795,3.3276,3.2891,3.2891,3.2218,3.1929,3.2526,3.3724,3.4386,0.0,0.0,0.0,3.2656,3.2109,3.1797,3.1797,3.2324,3.2773,3.3086,3.4029,3.4659,3.4922,3.532,3.5526,3.5493,3.5493,3.5661,3.5916,3.5472,3.5664,3.6311,3.6136,3.6611,3.7514,3.7808,3.823,3.8707,3.8707,3.8707,3.8707,3.8707,3.8707,3.8596,3.7738,3.7649,3.779,3.7173,3.6706,3.6379,3.5989,3.5029,3.3986,3.3436,3.2889,3.255,3.2713,3.2616,3.255,3.2713,3.284,3.2903,3.2745,3.3027,3.3284,3.31,3.3343,3.3578,3.3578,3.3945,3.4412,3.4917,3.4835,3.4981,3.5789,3.6376,3.7037,3.7826,3.7757,3.7542,3.7228,3.6522,3.5985,3.5622,3.4988,3.4284,3.3633,3.2949,3.2272,3.1524,3.1482,3.1219,3.0718,2.9889,2.8858,2.7605,2.6583,2.5548,3.7226,3.6621,3.5996,3.5937,3.5312,3.4668,3.4551,3.3836,3.341,3.4154,3.3513,3.3103,0.0,0.0,3.391,3.3045,3.2968,3.3026,3.2968,3.2314,3.241,0.0,0.0,0.0,0.0,0.0,0.0,3.3594,0.0,3.3398,3.3398,3.3437,3.3828,3.4609,3.465,3.4968,3.563,3.5603,3.5584,3.5565,3.5565,3.5968,3.6685,3.6466,3.6654,3.7203,3.7686,3.7775,3.7606,3.8395,3.8707,3.8707,3.8707,3.8707,3.8707,3.8707,3.8707,3.8627,3.8099,3.7911,3.7946,3.7893,3.7614,3.7075,3.6005,3.5301,3.4517,3.3029,3.2553,3.2616,3.3045,3.284,3.2634,3.3129,3.2912,3.247,3.2056,3.2317,3.2486,3.2004,3.2631,3.3243,3.3298,3.4243,3.5027,3.5119,3.5844,3.6633,3.7386,3.7507,3.779,3.8585,3.7791,3.7173,3.7135,3.6207,3.5622,3.5622,3.4988,3.4333,3.3684,3.2986,3.2327,3.1582,3.1524,3.1482,3.1482,3.0703,2.9889,2.9052,2.7605,2.6453,3.6328,3.6172,3.584,3.5195,3.4863,3.4512,3.3789,3.3418,3.3412,3.4147,3.3077,3.2256,0.0,0.0,0.0,3.3045,3.3987,0.0,3.3949,3.368,0.0,3.4141,0.0,3.5473,3.5689,3.5681,0.0,0.0,3.4121,3.3398,3.3398,3.4023,3.4171,3.3731,3.4839,3.5211,3.4822,3.5276,3.5834,3.6392,3.6392,3.6507,3.6704,3.7094,3.7528,3.7988,3.7929,3.8109,3.8414,3.8615,3.8707,3.8707,3.8707,3.8707,3.8707,3.8707,3.8707,3.8627,3.8099,3.815,3.8433,3.8013,3.8099,3.8168,3.729,3.6259,3.5184,3.4181,3.3241,3.2517,3.2648,3.2583,3.2758,3.3831,3.4006,3.3957,3.4142,3.428,3.4127,3.3422,3.3476,3.3835,3.4457,3.4788,3.5412,3.667,3.7037,3.7257,3.7489,3.7507,3.768,3.8059,3.7542,3.7038,3.6643,3.5985,3.5622,3.5622,3.5453,3.5052,3.4382,3.3684,3.3039,3.2327,3.1796,3.1482,3.1482,3.0703,3.0208,2.995,2.8278,2.7157,3.6094,3.5996,3.5879,3.5391,3.5273,3.5137,3.4609,3.4422,3.4495,3.4839,3.3526,3.2436,3.2833,3.3603,3.391,0.0,0.0,0.0,3.4834,3.443,3.4334,0.0,3.5315,0.0,3.5709,3.5876,3.5996,0.0,3.5098,3.4531,3.4531,3.4995,3.5021,3.4517,3.534,3.5708,3.5563,3.5868,3.6449,3.7276,3.7276,3.7469,3.7853,3.8188,3.8556,3.8878,0.0,3.9007,3.8726,3.9074,3.9019,3.8707,3.8707,3.8707,3.8707,3.8707,3.8707,3.8676,3.835,3.8465,3.8627,3.8065,3.8099,3.8237,3.7686,3.7009,3.6279,3.5448,3.4715,3.4168,3.4168,3.4168,3.4357,3.5072,3.5211,3.5241,3.5253,3.5253,3.4968,3.3954,3.349,3.3538,3.455,3.5198,3.6009,3.7294,3.779,3.8028,3.8028,3.8322,3.8515,3.8397,3.829,3.7862,3.6977,3.67,3.6332,3.5656,3.5943,3.5669,3.464,3.4228,3.3731,3.3005,3.2564,3.2258,3.1958,3.1516,3.0921,3.0269,2.9317,2.8251,3.6387,3.6094,3.5996,3.5996,3.5996,3.5996,3.5996,3.5957,3.5862,3.5731,3.4308,3.3096,3.3083,3.368,3.3987,3.3353,0.0,3.5661,3.5661,3.493,3.4641,3.5411,3.5622,3.5763,3.5864,3.6052,3.6211,3.6348,3.623,3.6113,3.6016,3.6102,3.6189,3.6232,3.6219,3.6546,3.7204,3.6974,3.7315,3.8161,3.8161,3.8565,3.9296,3.9411,3.9582,3.9876,4.0524,4.0147,3.9148,3.9803,3.9643,3.9019,3.9019,3.9019,3.9019,3.8909,3.8854,3.8836,3.8744,3.8707,3.8627,3.815,3.8032,3.7954,3.7607,3.7448,3.7234,3.6428,3.615,3.6102,3.6102,3.6102,3.6168,3.6325,3.6223,3.606,3.5788,3.5652,3.5195,3.3888,3.3303,3.3362,3.446,3.5659,3.6725,3.7533,3.82,3.8578,3.8578,3.9273,3.9601,3.9066,3.9231,3.8925,3.7775,3.7792,3.7297,3.5859,3.64,3.6169,3.4769,3.4718,3.4409,3.3659,3.3634,3.3321,3.2647,3.2557,3.1827,3.058,3.0372,2.9504,3.7129,3.6543,3.5996,3.5996,3.5996,3.5996,3.5996,3.5957,0.0,0.0,3.432,3.3269,3.3872,3.4103,3.4391,3.4968,3.5872,3.6488,3.6488,3.5795,3.5334,0.0,3.5622,3.5975,3.6708,3.6953,0.0,0.0,3.748,3.6758,3.6035,3.6673,3.7319,3.7863,3.7887,3.82,3.8873,3.8142,3.82,3.9065,3.9065,3.9142,3.9315,3.9988,4.055,4.0992,4.0863,0.0,4.1099,4.0959,4.0818,4.0689,4.0689,4.0689,4.0616,3.9937,3.968,3.9588,3.8927,3.8707,3.8658,3.8578,3.8546,3.8431,3.7734,3.7228,3.6757,3.596,3.5432,3.513,3.513,3.513,3.5411,3.6443,3.5918,3.5377,3.6312,3.5984,3.5083,3.3561,3.4558,3.5707,3.5912,3.6714,3.7551,3.8377,3.8209,3.8032,3.8032,3.8701,3.9155,3.9102,3.8916,3.8669,3.8504,3.8128,3.7533,3.6637,3.6705,3.6371,3.5441,3.5495,3.5159,3.4409,3.4488,3.4132,3.332,3.2781,3.2393,3.2065,3.0891,3.0133,3.7676,3.6992,3.6562,3.6113,3.5996,3.5996,3.5996,0.0,0.0,0.0,3.47,3.3903,3.4141,3.4199,0.0,3.4757,3.5526,3.6219,3.6642,3.6372,3.6295,3.6757,3.6958,3.7216,0.0,3.7851,3.8144,3.8574,3.7793,3.7324,3.7344,3.7676,3.7995,3.8294,3.8279,3.8584,3.9277,3.8892,3.9104,3.9912,3.9912,3.9912,3.995,4.0796,4.1219,4.134,4.1869,4.1905,4.1613,4.1709,4.1497,4.1111,4.1111,4.1111,4.1056,4.0671,4.0524,4.0414,3.9606,3.9606,3.9827,3.8982,3.8707,3.8634,3.823,3.7979,3.7694,3.7312,3.7039,3.6892,3.6892,3.6892,3.7015,3.7644,3.733,3.7033,3.7612,3.692,3.5879,3.484,3.5115,3.5558,3.5754,3.6267,3.6958,3.7787,3.7703,3.7614,3.7859,3.8689,3.9142,3.889,3.9311,3.9434,3.8883,3.8979,3.8396,3.6874,3.7144,3.7026,3.6265,3.6238,3.6046,3.5726,3.5707,3.5155,3.4008,3.3694,3.3365,3.3006,3.196,3.12,3.8476,3.7715,3.7402,3.6738,3.6562,3.6504,3.6328,3.6289,0.0,3.5817,3.5088,3.4499,3.4507,3.418,3.4103,0.0,3.5007,3.5641,3.6815,3.6815,3.7026,0.0,3.8185,0.0,3.8571,3.8751,0.0,3.9141,3.8516,3.8184,3.8301,3.8398,3.8481,3.8587,3.8684,3.9008,3.9546,3.9738,4.0142,4.0777,4.0969,4.1046,4.1066,4.1777,4.2023,4.1991,4.2966,4.2975,4.2249,4.2556,4.2243,4.1625,4.1625,4.1625,4.1589,4.1423,4.1368,4.1258,4.0432,4.0579,4.091,3.9643,3.9111,3.8927,3.8762,3.8707,3.8707,3.8707,3.8707,3.8707,3.8707,3.8707,3.8621,3.8376,3.8418,3.8373,3.7849,3.7293,3.6645,3.5755,3.5419,3.5347,3.5405,3.5829,3.6447,3.7234,3.7248,3.736,3.7825,3.8795,3.9217,3.8677,3.9817,4.0306,3.9467,3.9832,3.9276,3.7381,3.7669,3.7635,3.7043,3.6969,3.6957,3.6957,3.69,3.6245,3.4967,3.4658,3.4203,3.3694,3.3036,3.2375,3.9941,3.9082,3.8457,3.8379,3.8359,3.8144,3.7363,0.0,3.6933,3.6054,3.5142,3.471,3.5339,3.4122,3.3776,3.6103,0.0,3.5141,3.7546,3.7199,3.7026,3.7892,0.0,0.0,3.9388,3.9669,4.0117,4.0898,4.0898,3.9844,3.7539,3.8164,3.8851,3.9451,4.0185,4.0523,4.0392,4.1162,4.1623,4.17,4.2489,4.2854,4.2854,4.2931,4.3357,4.4013,4.3824,4.3976,0.0,4.3986,4.3624,4.3277,4.3277,4.3277,4.3185,4.2451,4.2194,4.2066,4.1277,4.1056,4.1093,4.0946,4.0396,3.9643,3.8927,3.8707,3.8707,3.8707,3.8707,3.8707,3.8707,3.8707,3.8413,3.7243,3.7473,3.7377,3.5092,3.596,3.6584,3.4666,3.5759,3.6748,3.5982,3.6534,3.7234,3.7755,3.747,3.736,3.7825,3.8598,3.9024,3.8651,3.9978,4.0845,4.0706,4.0334,3.9715,3.8836,3.8227,3.7872,3.7804,3.7807,3.7753,3.7679,3.7665,3.7247,3.6399,3.5105,3.4442,3.4367,3.3709,3.3348,4.1055,4.043,3.9902,3.8867,3.8203,3.7734,3.7383,3.6894,3.6406,3.5996,3.5549,3.53,3.5547,3.4545,3.4007,3.5026,3.4641,3.4737,3.6276,3.6622,3.7219,3.8623,3.8892,0.0,0.0,0.0,4.0527,4.043,4.043,3.9726,3.8164,3.9414,4.0218,4.0315,4.1139,4.1489,4.1277,4.2143,4.2585,4.2585,4.2931,4.3104,4.3124,4.3605,4.3989,4.4299,4.4516,4.4573,0.0,4.4165,4.3804,4.3497,4.3497,4.3497,4.3442,4.313,4.302,4.291,4.2103,4.2139,4.2378,4.1423,4.1222,4.1093,3.9808,3.9423,3.9313,3.8836,3.8707,3.8707,3.8707,3.8465,3.8295,3.874,3.8492,3.798,3.7453,3.7619,3.751,3.6394,3.6475,3.6499,3.5818,3.6273,3.6961,3.7637,3.7842,3.8173,3.877,3.9595,3.9851,3.9336,4.0132,4.0662,4.0414,4.0204,3.9766,3.9039,3.8717,3.8565,3.8565,3.8565,3.8506,3.848,3.8433,3.7831,3.6615,3.6045,3.5533,3.5085,3.4397,3.4083,4.2266,4.1758,4.1269,4.0039,3.9082,3.832,3.7793,3.7207,3.6601,3.6055,3.5802,3.5682,3.565,3.4853,3.4276,3.4545,3.4584,3.4968,3.6084,3.6949,3.8007,3.9469,0.0,4.0053,0.0,4.0957,4.0742,3.9961,4.0137,3.9902,3.9023,4.0625,4.1216,4.047,4.1512,4.2011,4.1797,4.2893,4.3451,4.3451,4.372,4.3835,4.3855,4.4432,4.4682,4.472,4.5074,4.4988,0.0,4.429,4.3912,4.3497,4.3497,4.3497,4.3497,4.3497,4.3497,4.3406,4.2837,4.302,4.3296,4.2176,4.2194,4.2396,4.102,4.0432,4.0088,3.9355,3.9028,3.8909,3.8909,3.8633,3.8617,3.9729,3.9263,3.8717,3.9083,3.8591,3.7971,3.768,3.7154,3.6663,3.6339,3.674,3.7265,3.7827,3.8233,3.8712,3.9381,4.0164,4.0433,3.9749,4.0298,4.053,4.012,4.007,3.9868,3.9343,3.9106,3.9089,3.9309,3.9106,3.911,3.9246,3.9032,3.8286,3.6964,3.6737,3.6228,3.5489,3.5011,3.4666,4.3672,4.3047,4.2383,4.2363,4.1758,4.0703,3.8984,3.8574,3.8086,3.6348,3.5841,3.5702,3.5708,3.4872,3.4468,3.5353,3.5488,3.6084,3.7738,3.8719,3.9565,0.0,0.0,4.0716,4.0793,4.1039,4.084,3.9961,4.0703,0.0,3.9922,4.1484,4.1529,3.9665,4.1241,4.2011,4.1797,4.3451,4.4297,4.4297,4.5163,4.5566,4.5566,4.5566,4.5586,4.5586,4.5586,4.5222,0.0,4.4599,4.4154,4.3497,4.3497,4.3497,4.3497,4.3497,4.3497,4.3497,4.3479,4.3479,4.3497,4.3461,4.3461,4.3332,4.2525,4.1735,4.0976,4.0366,3.981,3.9376,3.9376,3.9376,3.9393,3.9393,3.9411,3.923,3.8721,3.8018,3.7568,3.7831,3.7744,3.7655,3.7831,3.8328,3.8677,3.8589,3.8589,3.8807,3.9312,4.01,4.0366,3.9749,4.0406,4.0685,4.0171,4.007,4.007,4.007,3.9394,3.9326,4.0037,3.9377,3.9326,4.0054,3.9315,3.8525,3.7822,3.6964,3.6228,3.5504,3.5489,3.513,4.3691,4.3496,4.3008,4.1875,4.0937,4.0176,3.9609,3.9023,3.8437,3.7891,3.7133,3.6584,3.6601,3.5771,3.5372,3.6199,3.6334,3.6719,3.7834,0.0,0.0,4.0392,4.1193,4.1663,0.0,0.0,4.1094,4.0801,4.1035,4.1328,4.1582,4.2109,4.2053,4.133,4.2974,4.3756,4.3508,4.4624,4.5182,4.5182,4.547,4.5586,4.5586,4.5586,4.5586,4.5586,4.5586,4.5222,4.458,4.458,4.4184,4.3497,4.3497,4.3497,4.3497,4.3497,4.3497,4.3497,4.3497,4.3497,4.3497,4.3497,4.3497,4.3442,4.3185,4.2561,4.169,4.0528,4.0073,4.0068,4.0643,4.0392,4.019,4.0902,4.0323,3.9658,3.9645,3.9058,3.8567,3.8647,3.8214,3.7819,3.7902,3.8317,3.8824,3.9344,3.9739,4.0087,4.0393,4.0672,4.062,4.001,4.0182,4.0286,4.0121,4.007,4.007,4.007,3.9868,3.9834,4.007,3.9868,3.9834,4.007,3.9833,3.9315,3.8525,3.779,3.6768,3.5504,3.5504,3.513,4.459,4.4199,4.3457,4.2402,4.1269,4.0293,3.9961,3.9473,3.9004,3.8672,3.8007,3.7489,3.7488,3.6925,3.6622,3.7123,3.7469,3.7988,0.0,0.0,0.0,4.1373,0.0,0.0,0.0,4.2126,4.2012,4.168,4.1953,4.2363,4.2851,4.3203,4.3283,4.308,4.4128,4.4564,4.4297,4.5163,4.5586,4.5586,4.5586,4.5586,4.5586,4.5586,4.5586,4.5586,4.5586,4.5222,0.0,4.458,4.4184,4.3497,4.3497,4.3497,4.3497,4.3497,4.3497,4.3497,4.3497,4.3497,4.3497,4.3497,4.3497,4.3497,4.3497,4.3027,4.225,4.1414,4.0971,4.0906,4.1429,4.1196,4.101,4.1647,4.099,4.0256,4.0394,3.9676,3.9073,3.9343,3.8962,3.8632,3.8715,3.9157,3.9582,3.9851,4.0199,4.0537,4.0851,4.0733,4.0528,4.0417,4.0204,4.007,4.007,4.007,4.007,4.007,4.007,4.007,4.007,4.0358,4.051,4.051,4.0781,4.0419,3.9336,3.8033,3.6707,3.5504,3.5504,3.528,0.0,4.5039,4.3691,4.3613,4.2383,4.0996,4.0176,3.998,0.0,3.8945,3.8584,3.8403,3.8387,3.818,3.8027,3.8084,3.8757,3.9604,0.0,4.1393,0.0,0.0,4.3374,0.0,4.2283,4.3102,4.3359,4.2558,4.3242,4.373,4.3789,4.4551,4.4962,4.4887,4.4887,4.4722,4.4393,4.5259,4.5682,4.5682,4.574,4.5778,4.5778,4.5778,4.5778,0.0,4.5778,4.5415,4.4801,4.4801,4.4344,4.364,4.3695,4.366,4.3589,4.3644,4.3626,4.3589,4.3589,4.3534,4.3497,4.3497,4.3497,4.3497,4.3497,4.3142,4.2711,4.2711,4.2302,4.1835,4.1782,4.18,4.1835,4.174,4.1323,4.0903,4.0856,3.9918,3.9276,3.9952,3.9932,3.9893,4.0085,4.048,4.0655,4.0154,4.007,4.0286,4.078,4.0417,4.0286,4.078,4.0417,4.007,4.007,4.007,4.007,4.007,4.007,4.0104,4.0155,4.0832,4.1221,4.1288,4.1948,4.1577,4.0028,3.7821,3.6336,3.5504,3.5504,3.5504,4.623,0.0,4.3535,4.2871,4.1953,4.1152,0.0,4.0898,4.084,0.0,0.0,3.9296,3.9297,3.8604,3.8219,3.8892,3.9161,3.9815,4.1296,0.0,0.0,4.3989,4.4239,4.4037,4.3179,4.3469,4.3613,4.3418,4.3574,4.3984,4.4668,4.4883,4.5531,4.6733,4.6767,4.6294,4.5297,4.6163,4.6586,4.6605,4.7221,4.7509,4.7509,4.7509,4.7509,4.7509,4.7509,4.7278,4.6896,4.6896,4.6097,4.4947,4.556,4.5238,4.4488,4.5112,4.4947,4.4415,4.4415,4.4011,4.3497,4.3497,4.3497,4.3497,4.3497,4.3142,4.2711,4.2711,4.2616,4.2318,4.1672,4.1995,4.2239,4.1168,4.0893,4.078,4.0368,4.0068,3.9868,4.0054,4.0068,4.005,4.0087,4.0204,4.0254,4.0121,4.007,4.0171,4.0286,4.0154,4.0171,4.0286,4.0171,4.007,4.007,4.007,4.007,4.007,4.007,4.0341,4.0916,4.1119,4.1474,4.2016,4.2202,4.1271,3.9198,3.861,3.7374,3.5504,3.5504,3.5504,4.5215,4.4707,4.418,4.3711,4.2656,4.1758,4.1758,0.0,0.0,0.0,0.0,4.016,4.0159,3.9931,3.9892,4.0373,4.0777,0.0,0.0,0.0,4.4913,4.497,4.5141,4.4935,0.0,4.4548,4.4726,4.4336,4.4668,4.5098,4.5566,4.5605,4.6147,4.7357,4.7404,4.7216,4.6835,4.7316,4.7509,4.7471,4.7894,4.8105,4.8105,4.8105,4.8105,4.8105,4.8105,4.7913,4.7598,4.7598,4.6682,4.5382,4.6171,4.5764,4.48,4.5608,4.5626,4.5204,4.4837,4.4176,4.3497,4.3497,4.3497,4.3497,4.3497,4.3286,4.3069,4.3069,4.3069,4.2905,4.2172,4.235,4.2429,4.1422,4.1016,4.0827,4.0563,4.0303,4.007,4.007,4.007,4.007,4.007,4.007,4.007,4.007,4.007,4.0204,4.0466,4.0237,4.0204,4.0449,4.056,4.0595,4.0595,4.0899,4.095,4.0612,4.0595,4.0933,4.1677,4.2033,4.2574,4.3318,4.2997,4.1699,3.9413,3.9049,3.773,3.5504,3.5504,3.5504,4.4062,4.4433,4.4941,4.4668,4.3496,4.2363,4.2246,0.0,0.0,0.0,0.0,0.0,0.0,4.1431,0.0,0.0,0.0,0.0,4.4201,4.5047,4.5603,4.5603,4.5783,0.0,4.4891,4.5715,4.5996,4.5254,4.5879,4.6308,4.6308,4.6308,4.6641,4.7402,4.7573,4.7921,4.8516,4.8505,4.8432,4.8298,4.8432,4.8509,4.8509,4.8509,4.8509,4.8509,0.0,0.0,4.8067,4.8067,4.7157,4.5847,4.662,4.6168,4.5168,4.5975,4.6195,4.5957,4.5021,4.425,4.3644,4.3534,4.3497,4.3516,4.3644,4.3589,4.3516,4.3644,4.3589,4.3391,4.2794,4.2659,4.2541,4.1795,4.127,4.0874,4.0879,4.0434,4.007,4.007,4.007,4.007,4.007,4.007,4.007,4.007,4.007,4.0288,4.0858,4.0539,4.0457,4.0922,4.1221,4.1322,4.1221,4.188,4.2083,4.1576,4.1441,4.1694,4.2439,4.32,4.391,4.457,4.3927,4.2489,4.0172,3.9457,3.7885,3.5668,3.5554,3.5504,4.4648,4.4902,4.4648,4.3164,4.2598,4.2226,4.1543,0.0,0.0,0.0,0.0,0.0,0.0,4.1851,4.2066,0.0,0.0,4.4162,0.0,0.0,4.5391,4.4757,0.0,4.5631,4.4963,4.5729,4.623,4.6113,4.6211,4.6308,4.6308,4.6308,4.6699,4.7539,4.8293,4.8962,4.9562,4.9451,4.9336,4.9202,4.9952,5.0298,5.0298,5.0298,5.0298,5.0298,0.0,5.0259,5.0221,5.0221,4.9262,4.7919,4.8719,4.8087,4.6838,4.7645,4.7517,4.6709,4.5223,4.4635,4.4415,4.3718,4.3497,4.3626,4.4305,4.4048,4.3626,4.4323,4.403,4.3332,4.2551,4.2523,4.2358,4.1079,4.0841,4.078,4.0336,4.0171,4.007,4.007,4.007,4.007,4.007,4.007,4.007,4.007,4.007,4.0358,4.107,4.1069,4.1069,4.1172,4.173,4.188,4.1255,4.188,4.2523,4.3047,4.2489,4.2455,4.3217,4.3995,4.4451,4.4587,4.4468,4.3283,4.1001,4.0194,3.8676,3.6446,3.5782,3.5504,4.2949,4.324,4.3357,4.2593,4.3105,4.3711,4.334,0.0,0.0,0.0,0.0,0.0,0.0,0.0,4.2951,4.4278,0.0,4.4989,4.4989,4.5336,4.5526,0.0,0.0,4.5838,4.5663,4.6056,4.6308,4.6308,4.6308,4.6308,4.6308,4.6308,4.6699,4.7578,4.8457,4.9218,4.9897,5.0256,5.0317,5.0106,5.051,5.0702,5.0702,5.0702,5.0702,5.0702,0.0,5.0702,5.0702,5.0702,4.9879,4.8669,4.9268,4.8652,4.7513,4.807,4.781,4.7003,4.6269,4.5718,4.5296,4.4911,4.48,4.4874,4.5241,4.5094,4.4782,4.4727,4.4121,4.3371,4.2686,4.2592,4.2429,4.1493,4.1051,4.0948,4.1143,4.0593,4.0206,4.0612,4.0358,4.007,4.007,4.007,4.007,4.007,4.0426,4.0815,4.117,4.1542,4.1779,4.1779,4.2455,4.276,4.2439,4.3098,4.3487,4.342,4.3487,4.3673,4.4028,4.4384,4.4587,4.4587,4.4587,4.3658,4.1807,4.1049,3.9477,3.7157,3.6459,3.5894,4.1515,4.1828,4.2311,4.2568,0.0,4.4389,4.4648,0.0,0.0,0.0,0.0,0.0,0.0,4.3239,0.0,4.5393,4.5586,4.5586,4.5586,4.5586,4.568,4.5873,4.5905,4.6021,4.6268,4.6484,4.6601,4.6601,4.6797,4.6816,4.6621,4.6797,4.7129,4.7598,4.8633,4.9453,4.9956,5.0719,5.0987,5.0741,5.0721,5.0702,5.0702,5.0702,5.0702,5.0702,5.0702,5.0702,5.0702,5.0702,5.0099,4.9215,4.9418,4.8827,4.7874,4.82,4.7921,4.737,4.7186,4.6709,4.6159,4.5957,4.5902,4.5938,4.6122,4.6049,4.581,4.5388,4.469,4.3923,4.3303,4.3319,4.3274,4.253,4.199,4.1754,4.2061,4.1323,4.0713,4.1119,4.073,4.029,4.0104,4.0223,4.0341,4.0341,4.0984,4.1525,4.1694,4.2202,4.2557,4.2557,4.3234,4.369,4.369,4.4231,4.4333,4.3724,4.4248,4.4587,4.4587,4.4587,4.4587,4.4587,4.4587,4.394,4.2551,4.165,4.0167,3.8216,3.7126,3.6304,4.1836,4.2074,4.2305,4.3117,0.0,0.0,4.3572,4.3066,0.0,0.0,0.0,0.0,0.0,4.512,4.5603,4.5586,4.5586,4.5586,4.5586,0.0,4.568,4.5873,4.5905,4.6021,4.6268,4.7031,4.7519,4.7519,4.8262,4.8359,4.7558,4.8262,4.8379,4.7617,4.9238,5.0019,4.9819,5.0665,5.1037,5.0895,5.076,5.0702,5.0702,5.0702,5.0702,5.0702,5.0702,5.0702,5.0702,5.0702,5.0423,4.9992,4.9626,4.8992,4.8252,4.8288,4.8269,4.8122,4.737,4.7076,4.6911,4.614,4.5902,4.6049,4.6801,4.6507,4.6049,4.6746,4.6361,4.5553,4.4765,4.5095,4.5384,4.4217,4.3907,4.3605,4.2518,4.2221,4.1948,4.1322,4.117,4.0899,4.0206,4.0663,4.1119,4.1119,4.1745,4.2472,4.3166,4.3301,4.3335,4.3335,4.4028,4.4485,4.4485,4.4553,4.4553,4.4502,4.4553,4.4587,4.4587,4.4587,4.4587,4.4587,4.4587,4.4198,4.3293,4.1893,4.072,3.9713,3.7574,3.6565,4.1197,4.1693,4.217,4.2506,0.0,0.0,0.0,0.0,0.0,0.0,0.0,0.0,0.0,0.0,4.5643,4.5605,4.5586,4.5586,4.5586,4.5586,4.5643,4.5815,4.5866,4.6196,4.6913,4.7363,4.7812,4.8379,4.8711,4.8769,4.8437,4.8711,4.875,4.8418,4.957,5.0155,5.0053,5.0738,5.1076,5.1029,5.0818,5.0702,5.0702,5.0702,5.0702,5.0702,5.0702,5.0702,5.0702,5.0702,5.0604,5.0421,4.9746,4.8996,4.8306,4.8306,4.8306,4.8269,4.7957,4.7865,4.781,4.7498,4.7388,4.7462,4.7755,4.7645,4.7352,4.7168,4.726,4.7095,4.5792,4.5663,4.568,4.4839,4.4377,4.3979,4.3596,4.2909,4.2337,4.254,4.2202,4.1796,4.1508,4.1694,4.188,4.188,4.2506,4.3098,4.3386,4.3842,4.4147,4.4147,4.4401,4.4587,4.4587,4.4587,4.4587,4.4587,4.4587,4.4587,4.4587,4.4587,4.4587,4.4587,4.4587,4.4434,4.413,4.2591,4.1422,4.0526,3.8701,3.7342,4.1212,4.1632,4.2067,0.0,0.0,0.0,0.0,0.0,0.0,0.0,0.0,0.0,0.0,0.0,0.0,0.0,4.5586,4.5586,4.5586,4.5586,4.5643,4.5776,4.5872,4.6305,4.7304,4.7773,4.8379,4.9238,4.9551,4.957,4.9316,4.9551,4.957,4.9316,5.0137,5.0557,5.0511,5.0895,5.108,5.1029,5.0818,5.0702,5.0702,5.0702,5.0702,5.0702,5.0702,5.0702,5.0702,5.0702,5.0544,5.0272,4.9719,4.8996,4.8306,4.8306,4.8306,4.8306,4.8306,4.8306,4.8306,4.8306,4.8306,4.8306,4.8306,4.8306,4.8196,4.7645,4.7884,4.8049,4.6948,4.6654,4.643,4.5636,4.5125,4.4765,4.444,4.3659,4.3098,4.3369,4.2997,4.2574,4.2337,4.2489,4.2642,4.2642,4.3301,4.3792,4.3792,4.4248,4.4587,4.4587,4.4587,4.4587,4.4587,4.4587,4.4587,4.4587,4.4587,4.4587,4.4587,4.4587,4.4587,4.4587,4.4587,4.444,4.4196,4.2875,4.1748,4.088,3.9339,3.806,4.209,4.2036,0.0,0.0,0.0,0.0,0.0,0.0,0.0,0.0,0.0,4.4718,4.5468,0.0,0.0,4.5451,4.5586,4.5586,4.5605,4.5605,4.5643,4.5796,4.5892,4.6326,4.7302,4.832,4.9277,5.0156,5.0957,5.1055,5.0254,5.0976,5.1035,5.0234,5.0976,5.1348,5.1191,5.1122,5.1043,5.0914,5.076,5.0702,5.0702,5.0702,5.0702,5.0702,5.0702,5.0702,5.0702,5.0702,5.0225,4.9522,4.9504,4.8996,4.8306,4.8306,4.8306,4.8306,4.8306,4.8306,4.8306,4.8306,4.8306,4.8306,4.8306,4.8306,4.8306,4.8306,4.8306,4.8306,4.8306,4.8306,4.7977,4.671,4.6383,4.6046,4.4852,4.4587,4.435,4.3589,4.3436,4.32,4.2439,4.2929,4.3436,4.3436,4.4079,4.4587,4.4587,4.4587,4.4587,4.4587,4.4587,4.4587,4.4587,4.4587,4.4587,4.4587,4.4587,4.4587,4.4587,4.4587,4.4587,4.4587,4.457,4.4138,4.3306,4.2581,4.1685,4.0659,3.9261,3.8549,4.1313,0.0,0.0,0.0,0.0,0.0,0.0,0.0,0.0,0.0,0.0,4.5353,4.5547,0.0,0.0,4.5547,4.5586,4.5797,4.6432,4.6509,4.6528,4.6567,4.7257,4.7845,4.8139,4.9168,5.0156,5.0976,5.1269,5.1308,5.1055,5.1269,5.1289,5.1055,5.1289,5.1347,5.1211,5.1139,5.1043,5.0914,5.076,5.0702,5.0702,5.0702,5.0702,5.0702,5.0702,5.0702,5.0702,5.0702,5.0399,4.9898,4.9589,4.9171,4.8692,4.8383,4.8306,4.8306,4.8306,4.8306,4.8306,4.8306,4.8306,4.8306,4.8306,4.8306,4.8306,4.8306,4.8306,4.8306,4.8306,4.8306,4.7977,4.671,4.6383,4.6046,4.4852,4.4587,4.4502,4.4282,4.4231,4.4164,4.3944,4.4079,4.4231,4.4231,4.4434,4.4587,4.4587,4.4587,4.4587,4.4587,4.4587,4.4587,4.4587,4.4587,4.4587,4.4587,4.4587,4.4587,4.4587,4.4587,4.4587,4.4587,4.4006,4.3562,4.3306,4.1853,4.1009,4.0675,3.9649,3.8858,4.2062,0.0,0.0,0.0,0.0,0.0,0.0,0.0,0.0,0.0,0.0,4.5182,4.5528,4.5316,0.0,4.599,4.6124,4.6413,4.7259,4.7375,4.7375,4.7375,4.8044,4.8647,4.8973,4.9719,5.0527,5.1348,5.1406,5.1406,5.1406,5.1406,5.1406,5.1406,5.1406,5.1359,5.1292,5.116,5.1061,5.0991,5.0779,5.0702,5.0702,5.0702,5.0702,5.0702,5.0702,5.0702,5.0702,5.0702,5.0462,5.0068,4.9664,4.9265,4.8829,4.8458,4.8306,4.8306,4.8306,4.8306,4.8306,4.8306,4.8306,4.8306,4.8306,4.8306,4.8306,4.8306,4.8306,4.8306,4.8306,4.8114,4.7697,4.6664,4.6383,4.6046,4.4852,4.4587,4.4587,4.4587,4.4587,4.4587,4.4587,4.4587,4.4587,4.4587,4.4587,4.4587,4.4587,4.4587,4.4587,4.4587,4.4587,4.4587,4.4587,4.4587,4.4587,4.4587,4.4587,4.4587,4.4587,4.4587,4.4457,4.4064,4.3562,4.297,4.2252,4.1213,4.05,4.0185,3.9666,3.92,4.3571,0.0,0.0,0.0,0.0,0.0,4.0849,0.0,4.4581,4.4549,0.0,4.4586,4.5528,4.5066,4.5086,4.674,4.7009,4.7298,4.8105,4.8221,4.8221,4.8221,4.8526,4.9015,4.9741,5.0113,5.0605,5.1348,5.1406,5.1406,5.1406,5.1406,5.1406,5.1406,5.1406,5.1387,5.1387,5.1198,5.1087,5.1087,5.0837,5.0702,5.0702,5.0702,5.0702,5.0702,5.0702,5.0702,5.0702,5.0702,5.0483,5.0092,4.9692,4.9265,4.8897,4.8458,4.8306,4.8306,4.8306,4.8306,4.8306,4.8306,4.8306,4.8306,4.8306,4.8306,4.8306,4.8306,4.8306,4.8306,4.8306,4.7838,4.7237,4.6571,4.6383,4.6014,4.4869,4.4587,4.4587,4.4587,4.4587,4.4587,4.4587,4.4587,4.4587,4.4587,4.4587,4.4587,4.4587,4.4587,4.4587,4.4587,4.4587,4.4587,4.4587,4.4587,4.4587,4.4587,4.4587,4.457,4.4514,4.4514,4.4138,4.3306,4.3108,4.2252,4.069,4.0622,4.0185,3.9424,3.9424,3.9424,0.0,4.2636,0.0,0.0,0.0,4.1125,4.0989,4.2375,4.364,4.3489,4.3893,4.4778,4.6336,4.6471,4.6682,4.7682,4.7836,4.8144,4.899,4.9125,4.9125,4.9125,4.9952,5.0356,4.9858,5.0601,5.1211,5.1387,5.1406,5.1406,5.1406,5.1406,5.1406,5.1406,5.1406,5.1348,5.123,5.1145,5.1058,5.0952,5.0779,5.0702,5.0702,5.0702,5.0702,5.0702,5.0702,5.0702,5.0702,5.0702,5.0663,5.0504,4.9773,4.9445,4.9295,4.8568,4.8306,4.8306,4.8306,4.8306,4.8306,4.8306,4.8306,4.8306,4.8306,4.8306,4.8306,4.8306,4.8306,4.8306,4.8306,4.7838,4.7237,4.6571,4.6063,4.5511,4.4776,4.4587,4.4587,4.4587,4.4587,4.4587,4.4587,4.4587,4.4587,4.4587,4.4587,4.4587,4.4587,4.4587,4.4587,4.4587,4.4587,4.4587,4.4587,4.4587,4.4587,4.4587,4.4587,4.431,4.3621,4.3562,4.3502,4.3306,4.1933,4.108,4.069,3.999,3.961,3.9424,3.9424,3.9424,0.0,0.0,0.0,0.0,0.0,0.0,4.1654,4.2217,4.297,4.364,4.4374,4.5336,4.6663,4.6567,4.6817,4.8452,4.8375,4.8548,4.9837,5.001,5.001,5.001,5.0664,5.0921,5.0481,5.1027,5.1406,5.1406,5.1406,5.1406,5.1406,5.1406,5.1406,5.1406,5.1406,5.1363,5.1303,5.1176,5.1063,5.0991,5.0779,5.0702,5.0702,5.0702,5.0702,5.0702,5.0702,5.0702,5.0702,5.0702,5.0702,5.0624,4.98,4.9504,4.9386,4.8604,4.8306,4.8306,4.8306,4.8306,4.8306,4.8306,4.8306,4.8306,4.8306,4.8306,4.8306,4.8306,4.8306,4.8306,4.8306,4.7596,4.6801,4.6478,4.5915,4.532,4.472,4.4587,4.4587,4.4587,4.4587,4.4587,4.4587,4.4587,4.4587,4.4587,4.4587,4.4587,4.4587,4.4587,4.4587,4.4587,4.4587,4.4587,4.4587,4.4587,4.444,4.4006,4.4006,4.3621,4.2707,4.2269,4.2062,4.2062,4.1147,4.05,4.0045,3.961,3.9424,3.9424,3.9424,3.9424,0.0,0.0,0.0,0.0,4.2734,0.0,4.2546,4.2541,4.2934,4.4234,4.4968,4.572,4.6894,4.6528,4.6817,4.9221,4.9029,4.9048,5.0491,5.0702,5.0702,5.0721,5.0952,5.1099,5.1113,5.1288,5.1406,5.1406,5.1406,5.1406,5.1406,5.1406,5.1406,5.1406,5.1406,5.1405,5.1405,5.1211,5.1102,5.1106,5.0837,5.0702,5.0702,5.0702,5.0702,5.0702,5.0702,5.0702,5.0702,5.0702,5.0702,5.0624,4.98,4.9504,4.9386,4.8604,4.8306,4.8306,4.8306,4.8306,4.8306,4.8306,4.8306,4.8306,4.8306,4.8306,4.8306,4.8306,4.8306,4.8306,4.8306,4.7452,4.6524,4.643,4.5915,4.532,4.472,4.4587,4.4587,4.4587,4.4587,4.4587,4.4587,4.4587,4.4587,4.4587,4.4587,4.4587,4.4587,4.4587,4.4587,4.4587,4.4587,4.4587,4.4587,4.444,4.4064,4.3366,4.3185,4.2707,4.1804,4.108,4.0622,4.05,4.05,4.0115,3.9424,3.9424,3.9424,3.9424,3.9424,3.9265,0.0,0.0,0.0,0.0,4.4082,4.3515,0.0,0.0,4.4381,0.0,4.4487,4.5182,4.7509,4.7836,4.8375,5.0221,5.0433,5.0433,5.0664,5.0702,5.0741,5.0875,5.101,5.1106,5.1181,5.1323,5.1406,5.1406,5.1406,5.1406,5.1406,5.1406,5.1406,5.1406,5.1406,5.1405,5.1405,5.1211,5.1102,5.1106,5.0837,5.0702,5.0702,5.0702,5.0702,5.0702,5.0702,5.0702,5.0702,5.0702,5.0702,5.0624,4.98,4.9504,4.9386,4.8604,4.8306,4.8306,4.8306,4.8306,4.8306,4.8306,4.8306,4.8306,4.8306,4.8306,4.8306,4.8306,4.8306,4.8306,4.8306,4.7797,4.7106,4.6524,4.5915,4.532,4.472,4.4587,4.4587,4.4587,4.4587,4.4587,4.4587,4.4587,4.4587,4.4587,4.4587,4.4587,4.4587,4.4587,4.4587,4.4587,4.4587,4.4587,4.4587,4.3931,4.3426,4.3306,4.2583,4.1804,4.0878,4.0743,4.0363,3.961,3.9538,3.9553,3.9424,3.9424,3.9424,3.9424,3.9424,3.887,4.2773,4.3769,4.4512,0.0,4.4707,4.4414,4.4394,0.0,4.4812,4.5186,4.5161,4.5509,4.7124,4.7432,4.799,4.9683,4.9971,5.0144,5.0625,5.0702,5.0741,5.0895,5.1029,5.1134,5.1183,5.1328,5.1406,5.1406,5.1406,5.1406,5.1406,5.1406,5.1406,5.1406,5.1406,5.1405,5.1405,5.1211,5.1024,5.0875,5.076,5.0702,5.0702,5.0702,5.0702,5.0702,5.0702,5.0702,5.0702,5.0702,5.0702,5.0624,4.98,4.9504,4.9386,4.8604,4.8306,4.8306,4.8306,4.8306,4.8306,4.8306,4.8306,4.8306,4.8306,4.8306,4.8306,4.8306,4.8306,4.821,4.7897,4.7324,4.6664,4.6063,4.5407,4.4906,4.4682,4.4587,4.4587,4.4587,4.4587,4.4587,4.4587,4.4587,4.4587,4.4587,4.4587,4.4587,4.4587,4.4587,4.4587,4.4587,4.4507,4.4264,4.3906,4.3408,4.2751,4.1885,4.1478,4.0894,3.999,3.999,3.9793,3.9424,3.9424,3.9424,3.9424,3.9424,3.9424,3.9424,3.8782,3.8234,4.2969,4.4004,4.4726,4.4941,4.5176,4.5391,0.0,0.0,4.5578,0.0,4.6392,4.6432,4.7086,4.7201,4.7702,4.9163,4.9586,4.9952,5.0606,5.0721,5.0818,5.0933,5.1053,5.116,5.1247,5.1341,5.1406,5.1406,5.1406,5.1406,5.1406,5.1406,5.1406,5.1406,5.1405,5.1374,5.1353,5.1159,5.0928,5.0702,5.0702,5.0702,5.0702,5.0702,5.0702,5.0702,5.0702,5.0702,5.0702,5.0702,5.0702,5.0624,4.9924,4.9589,4.9416,4.8728,4.8402,4.8306,4.8306,4.8306,4.8306,4.8306,4.8306,4.8306,4.8306,4.8306,4.8306,4.8306,4.8306,4.8172,4.7572,4.7044,4.6478,4.5681,4.5142,4.4776,4.4626,4.4587,4.4587,4.4587,4.4587,4.4587,4.4587,4.4587,4.4587,4.4587,4.4587,4.4587,4.4587,4.4739,4.4801,4.4539,4.455,4.4302,4.3575,4.3152,4.2417,4.1317,4.1009,4.0563,3.9918,3.9918,3.9843,3.9679,3.9664,3.9589,3.9424,3.9424,3.9265,3.8943,3.8144,3.751,4.2246,4.3105,4.3965,4.4785,0.0,0.0,0.0,0.0,4.7323,4.8176,4.8144,4.799,4.8029,4.8048,4.8336,4.924,5.0087,5.0644,5.0683,5.0818,5.0952,5.1068,5.1145,5.1247,5.1377,5.1406,5.1406,5.1406,5.1406,5.1406,5.1406,5.1406,5.1406,5.1406,5.1404,5.1336,5.1202,5.101,5.0837,5.0702,5.0702,5.0702,5.0702,5.0702,5.0702,5.0702,5.0702,5.0702,5.0702,5.0702,5.0702,5.0663,5.0249,4.9846,4.9445,4.9011,4.864,4.8306,4.8306,4.8306,4.8306,4.8306,4.8306,4.8306,4.8306,4.8306,4.8306,4.8306,4.8306,4.8172,4.7572,4.7385,4.7062,4.5783,4.5459,4.5267,4.472,4.4587,4.4587,4.4587,4.4587,4.4587,4.4587,4.4587,4.4587,4.4587,4.4587,4.4587,4.4587,4.5213,4.5312,4.4389,4.4953,4.4967,4.4048,4.3223,4.2689,4.2587,4.1832,4.134,4.128,4.128,4.0995,4.0367,4.0352,4.0053,3.9424,3.9424,3.887,3.7904,3.7829,3.6724,4.2187,4.2637,0.0,4.3945,4.5234,4.6387,4.6699,4.7493,4.823,4.8441,4.8414,4.8298,4.8125,4.8567,4.9048,4.9356,5.0125,5.0721,5.0837,5.0875,5.0972,5.1145,5.1183,5.1247,5.1384,5.1406,5.1406,5.1406,5.1406,5.1406,5.1406,5.1406,5.1394,5.1392,5.1327,5.1183,5.101,5.0952,5.0837,5.0702,5.0702,5.0702,5.0702,5.0702,5.0702,5.0702,5.0702,5.0702,5.0702,5.0702,5.0702,5.0663,5.0249,4.9853,4.9445,4.9043,4.8657,4.8306,4.8306,4.8306,4.8306,4.8306,4.8306,4.8306,4.8306,4.8306,4.8306,4.8306,4.8035,4.7554,4.691,4.6495,4.5982,4.5142,4.4906,4.4852,4.4626,4.4587,4.4587,4.4587,4.4587,4.4587,4.4587,4.4587,4.4587,4.4587,4.4993,4.5108,4.4514,4.5025,4.5131,4.4188,4.4213,4.3983,4.3192,4.2732,4.2319,4.1895,4.1596,4.1384,4.1384,4.098,4.0651,4.0397,3.9267,3.8929,3.9424,3.8708,3.8144,3.7753,3.6411,3.5373,4.1836,4.2187,0.0,0.0,0.0,4.5723,4.6914,4.7734,4.8482,4.9252,4.9393,4.9315,4.9142,4.9581,4.9837,4.9452,5.0164,5.0818,5.0895,5.0972,5.1049,5.1183,5.125,5.1298,5.1386,5.1406,5.1406,5.1406,5.1406,0.0,5.1406,5.139,5.1375,5.1318,5.1183,5.1049,5.0914,5.0875,5.0779,5.0702,5.0702,5.0702,5.0702,5.0702,5.0702,5.0702,5.0702,5.0702,5.0702,5.0702,5.0702,5.0663,5.0249,4.9853,4.9445,4.9043,4.8657,4.8306,4.8306,4.8306,4.8306,4.8306,4.8306,4.8361,4.8655,4.8526,4.8416,4.8985,4.8475,4.7705,4.7281,4.6409,4.5483,4.5038,4.4959,4.4959,4.4959,4.4756,4.4587,4.4587,4.4587,4.4587,4.4587,4.4587,4.4654,4.4925,4.5118,4.5057,4.4706,4.5031,4.4932,4.3965,4.3987,4.3723,4.2995,4.2802,4.2506,4.2058,4.2043,4.2043,4.2043,4.1414,4.0785,4.0231,3.8873,3.8196,3.8294,3.7587,3.7112,3.6724,3.5305,3.4511,0.0,0.0,0.0,0.0,0.0,0.0,4.8008,0.0,4.8125,5.0644,5.1123,5.1095,5.11,5.1111,5.0779,4.9663,5.0279,5.0914,5.0914,5.1106,5.1241,5.1241,5.1367,5.1445,5.1465,5.1426,5.1406,5.1445,5.1406,5.1406,5.1406,5.1411,5.1318,5.1203,5.101,5.0914,5.0895,5.076,5.0702,5.0702,5.0702,5.0702,5.0702,5.0702,5.0702,5.0702,5.0702,5.0702,5.0702,5.0702,5.0702,5.0663,5.0249,4.9853,4.9445,4.9043,4.8676,4.8343,4.8343,4.8361,4.8379,4.8379,4.8361,4.8508,4.9352,4.9022,4.8691,5.0303,4.9671,4.8551,4.8688,4.7244,4.5737,4.5737,4.5737,4.5737,4.5737,4.5162,4.4637,4.4637,4.4637,4.4637,4.4637,4.4637,4.4891,4.5561,4.4963,4.4628,4.5239,4.5223,4.4709,4.3805,4.4335,4.4373,4.3409,4.3329,4.3329,4.3329,4.3329,4.3329,4.3329,4.2701,4.1548,3.9838,3.911,3.7891,3.6146,3.6132,3.5668,3.4664,3.4664,3.4108,4.1055,0.0,0.0,0.0,0.0,0.0,0.0,0.0,4.8066,4.9941,5.0393,5.0582,5.1015,5.1648,5.1969,5.1567,5.1241,5.1068,5.1106,5.1703,5.2182,5.2279,5.2314,5.2598,5.3223,5.2148,5.166,0.0,5.1758,5.1406,5.1406,5.1314,5.1222,5.1126,5.0991,5.0856,5.076,5.0721,5.0702,5.0702,5.0702,5.0702,5.0702,5.0702,5.0702,5.0702,5.0702,5.0702,5.0702,5.0702,5.0702,5.0663,5.0249,4.9853,4.9445,4.9043,4.9065,4.9224,4.9224,4.9609,5.0105,5.0105,4.9701,4.9389,5.0215,4.9884,4.9347,4.9864,4.9359,4.8502,4.7582,4.6948,4.6498,4.6498,4.6498,4.6498,4.6498,4.6329,4.6177,4.6177,4.6177,4.6177,4.6177,4.6177,4.6052,4.5524,4.5739,4.5456,4.429,4.4579,4.4518,4.3499,4.3587,4.363,4.3329,4.3329,4.3329,4.3329,4.3329,4.3329,4.3329,4.185,4.0902,4.0392,3.7758,3.6181,3.5675,3.533,3.4979,3.4664,3.3869,3.3398,4.0973,0.0,0.0,0.0,0.0,0.0,4.5566,4.6582,4.7734,0.0,5.0644,5.0812,5.1159,5.1977,5.255,5.2475,5.2384,5.2184,5.1799,5.2221,5.2609,5.2693,5.3027,5.3437,5.3945,5.3086,5.2539,5.2695,5.2226,5.1765,5.1339,5.1212,5.1112,5.101,5.0895,5.0779,5.0702,5.0702,5.0702,5.0702,5.0702,5.0702,5.0702,5.0702,5.0702,5.0702,5.0702,5.0702,5.0702,5.0702,5.0604,5.0421,5.0019,4.9589,4.924,4.9222,4.9141,4.915,4.9848,5.0178,5.0343,5.0692,5.0251,4.9793,5.0949,5.0291,4.9343,5.0435,5.0022,4.908,4.7962,4.7496,4.7259,4.7259,4.7259,4.7259,4.7259,4.7496,4.753,4.6904,4.6786,4.6786,4.6786,4.6455,4.6141,4.5906,4.5585,4.5053,4.4235,4.4204,4.3927,4.3329,4.3329,4.3329,4.3329,4.3329,4.3329,4.3329,4.282,4.2548,4.2548,4.0818,3.9717,3.92,3.677,3.5162,3.4529,3.4192,3.4037,3.4037,3.3398,3.3081,4.091,4.0972,0.0,0.0,4.1719,0.0,4.6133,4.6504,4.6933,0.0,5.0918,5.101,5.1094,5.1902,5.255,5.2555,5.3372,5.3698,5.2792,5.2843,5.2988,5.2988,5.3672,5.418,5.4277,5.4101,5.3711,5.3047,5.2809,5.2258,5.126,5.1125,5.1017,5.0895,5.076,5.0702,5.0702,5.0702,5.0702,5.0702,5.0702,5.0702,5.0702,5.0702,5.0702,5.0702,5.0702,5.0702,5.0702,5.0663,5.0421,5.0068,4.9664,4.9265,4.8974,4.9306,4.9077,4.8802,5.0288,5.038,4.9958,5.0692,5.038,5.0013,5.1536,5.0478,4.9208,5.1293,5.0911,4.978,4.9152,4.8528,4.8037,4.8037,4.8037,4.8037,4.8037,4.8545,4.8612,4.7293,4.7039,4.7039,4.7039,4.6291,4.5828,4.6405,4.4929,4.4041,4.4584,4.3849,4.3329,4.3329,4.3329,4.3329,4.3329,4.3329,4.3329,4.3329,4.2208,4.1587,4.1587,3.9759,3.8369,3.7431,3.6113,3.4723,3.3081,3.3081,3.3081,3.3081,3.3081,3.3081,4.0752,4.0801,4.0905,4.1208,0.0,0.0,4.3047,4.3828,4.4785,0.0,4.7851,4.8554,4.9252,5.0623,5.164,5.1654,5.297,5.3936,5.3721,5.4331,5.4785,5.4785,5.4941,5.5312,5.6015,5.4824,5.4219,5.4746,5.339,5.2153,5.126,5.1046,5.093,5.0895,5.076,5.0702,5.0702,5.0702,5.0702,5.0702,5.0702,5.0702,5.0702,5.0702,5.0702,5.0702,5.0702,5.0702,5.0663,5.0358,5.0159,5.0068,4.9664,4.9265,4.8847,4.8642,4.9297,5.0362,5.0692,5.1114,5.1555,5.1701,5.1224,5.0747,5.1701,5.126,5.0408,5.04,4.9821,4.9152,4.9063,4.89,4.8798,4.8798,4.8798,4.8798,4.8798,4.89,4.8917,4.8629,4.8578,4.8578,4.8578,4.7791,4.6929,4.6383,4.5299,4.4356,4.3693,4.3409,4.3329,4.3329,4.3329,4.3329,4.3329,4.3329,4.3329,4.3329,4.2208,4.1587,4.1587,3.9486,3.8206,3.7936,3.6328,3.4679,3.3081,3.3081,3.3081,3.3081,3.3081,3.3081,4.0677,4.0712,4.0757,4.0874,0.0,0.0,0.0,4.4355,4.5488,4.7246,4.7949,4.8379,4.8828,4.9941,5.0937,5.1328,5.2851,5.4004,5.4004,5.4746,5.5293,5.5293,5.5683,5.6113,5.6562,5.5801,5.5117,5.4687,5.3332,5.2088,5.1203,5.0991,5.0875,5.0818,5.0741,5.0702,5.0702,5.0702,5.0702,5.0702,5.0702,5.0702,5.0702,5.0702,5.0702,5.0702,5.0702,5.0702,5.0663,5.0272,4.9974,4.9773,4.9356,4.8963,4.8623,4.888,4.9205,4.9682,5.0508,5.0802,5.093,5.1738,5.1463,5.1041,5.2234,5.1864,5.0794,4.9775,4.9256,4.9001,4.9001,4.9001,4.9001,4.9001,4.9001,4.9001,4.9001,4.9001,4.9001,4.9001,4.8639,4.8289,4.8289,4.7523,4.6609,4.5634,4.4631,4.3849,4.3329,4.3329,4.3329,4.3329,4.3329,4.3329,4.3329,4.3329,4.3076,4.2467,4.1351,4.0476,3.9844,3.8198,3.6972,3.6406,3.5527,3.4462,3.3081,3.3081,3.3081,3.3081,3.3081,3.2797,4.0639,4.0658,4.0677,0.0,0.0,4.2617,0.0,0.0,0.0,4.7812,4.8262,4.8398,0.0,0.0,0.0,5.0781,0.0,0.0,0.0,5.4492,0.0,5.5273,5.6074,5.6601,5.6601,5.6445,5.5759,5.4326,5.3113,5.2105,5.1337,5.1029,5.0818,5.0702,5.0702,5.0702,5.0702,5.0702,5.0702,5.0702,5.0702,5.0702,5.0702,5.0702,5.0702,5.0702,5.0702,5.0702,5.0663,5.0183,4.98,4.9445,4.9043,4.8657,4.8398,4.9077,4.9114,4.8948,5.016,5.0343,5.0233,5.1389,5.1326,5.1054,5.2393,5.1892,5.0608,4.9376,4.9001,4.9001,4.9001,4.9001,4.9001,4.9001,4.9001,4.9001,4.9001,4.9001,4.894,4.8798,4.8144,4.7589,4.7589,4.6678,4.5706,4.4871,4.3927,4.3329,4.3329,4.3329,4.3329,4.3329,4.3329,4.3329,4.3329,4.3329,4.2805,4.167,4.049,3.936,3.8107,3.6977,3.5893,3.4901,3.4876,3.4336,3.3232,3.3232,3.3181,3.3081,3.3081,3.2426,0.0,0.0,0.0,0.0,4.1373,0.0,0.0,0.0,4.5039,4.5215,0.0,0.0,0.0,0.0,0.0,0.0,0.0,0.0,5.2734,5.3594,5.4433,5.5215,5.6074,5.6601,5.6601,5.5898,5.5318,5.4995,5.3325,5.2233,5.1991,5.1183,5.0721,5.0702,5.0702,5.0702,5.0702,5.0702,5.0702,5.0702,5.0702,5.0702,5.0702,5.0702,5.0702,5.0702,5.0702,5.0702,5.0624,4.9898,4.9532,4.9445,4.9043,4.8657,4.8324,4.8416,4.9334,5.0435,4.9903,5.06,5.1628,5.1114,5.0885,5.0929,5.1244,5.077,4.9976,4.9212,4.9001,4.9001,4.9001,4.9001,4.9001,4.9001,4.9001,4.9001,4.9001,4.9001,4.8719,4.7933,4.7655,4.7589,4.7589,4.6134,4.4946,4.4812,4.3927,4.3329,4.3329,4.3329,4.3329,4.3329,4.3329,4.3329,4.3329,4.3329,4.2805,4.167,4.049,3.936,3.8107,3.6977,3.6069,3.5466,3.5454,3.4914,3.3809,3.3809,3.3558,3.3081,3.3081,3.2426,0.0,0.0,0.0,0.0,0.0,0.0,4.2742,0.0,4.5433,0.0,0.0,0.0,0.0,0.0,0.0,0.0,4.9678,0.0,0.0,0.0,5.4043,0.0,0.0,0.0,5.5801,5.5508,5.5243,5.5111,5.384,5.2794,5.2125,5.1645,5.1183,5.0702,5.0702,5.0702,5.0702,5.0702,5.0702,5.0702,5.0702,5.0702,5.0702,5.0702,5.0702,5.0702,5.0702,5.0702,5.0643,4.9827,4.9504,4.9445,4.8813,4.8753,4.904,4.904,4.9793,5.0747,5.0398,5.0729,5.1316,5.1444,5.1559,5.152,5.1203,5.0554,4.9879,4.9212,4.9001,4.9001,4.9001,4.9001,4.9001,4.9001,4.9001,4.8861,4.8306,4.8161,4.7933,4.6952,4.633,4.5992,4.5992,4.53,4.4586,4.3989,4.3551,4.3329,4.3329,4.3329,4.3329,4.3329,4.3329,4.3329,4.3329,4.2725,4.1864,4.0661,3.8917,3.7599,3.715,3.6628,3.6107,3.5554,3.5228,3.4675,3.3897,3.3583,3.3307,3.3068,3.2326,3.1323,4.0372,0.0,0.0,0.0,0.0,0.0,0.0,0.0,0.0,0.0,0.0,0.0,0.0,0.0,0.0,0.0,0.0,5.0105,0.0,5.2228,0.0,0.0,0.0,0.0,0.0,5.4863,5.4811,5.5358,5.4051,5.3007,5.2433,5.2087,5.1529,5.0721,5.0702,5.0702,5.0702,5.0702,5.0702,5.0702,5.0702,5.0702,5.0702,5.0702,5.0702,5.0702,5.0702,5.0702,5.0643,4.9827,4.9636,4.9755,4.8955,4.9297,5.0178,4.9738,5.0233,5.1096,5.0875,5.079,5.0939,5.1743,5.1818,5.1426,5.0929,5.0297,4.9622,4.9168,4.9001,4.9001,4.9001,4.9001,4.9001,4.9001,4.8798,4.8433,4.7737,4.7373,4.6952,4.5977,4.53,4.4737,4.4434,4.4373,4.4143,4.3409,4.3329,4.3329,4.3329,4.3329,4.3329,4.3329,4.3329,4.3329,4.3329,4.229,4.0986,3.9536,3.7507,3.6358,3.6358,3.6358,3.6107,3.5554,3.5002,3.4449,3.3897,3.3345,3.2884,3.2525,3.1589,3.0586,0.0,0.0,0.0,4.0441,0.0,0.0,0.0,0.0,4.4545,0.0,0.0,0.0,0.0,0.0,0.0,0.0,0.0,0.0,0.0,0.0,0.0,0.0,0.0,0.0,0.0,5.3769,5.3712,0.0,5.3778,5.2583,5.3145,5.2375,5.1529,5.0721,5.0702,5.0702,5.0702,5.0702,5.0702,5.0702,5.0702,5.0702,5.0702,5.0702,5.0702,5.0702,5.0702,5.0702,5.0643,4.9827,4.9946,5.0602,4.9861,5.0508,5.172,5.016,5.0582,5.1848,5.1077,5.083,5.1058,5.1824,5.1154,5.0072,5.0016,4.958,4.9001,4.9001,4.9001,4.9001,4.9001,4.9001,4.9001,4.9001,4.8306,4.7655,4.7589,4.6884,4.5977,4.502,4.4812,4.451,4.3551,4.3329,4.3329,4.3329,4.3329,4.3329,4.3329,4.3329,4.3329,4.3329,4.3329,4.3329,4.3329,4.229,4.0632,3.8289,3.707,3.6358,3.6358,3.6358,3.6107,3.5554,3.5002,3.4449,3.3897,3.3345,3.2426,3.1223,3.1223,3.0586,0.0,0.0,3.9178,4.0024,0.0,0.0,0.0,0.0,0.0,0.0,0.0,0.0,0.0,0.0,0.0,0.0,0.0,0.0,0.0,0.0,0.0,0.0,0.0,0.0,0.0,0.0,0.0,5.5103,5.438,0.0,5.4049,5.3241,5.2375,5.1529,5.0971,5.0702,5.0702,5.0702,5.0702,5.0702,5.0702,5.0702,5.0702,5.0702,5.0702,5.0702,5.0702,5.0544,5.0272,4.9719,4.9814,5.0262,4.9787,5.0563,5.1922,5.1371,5.1867,5.2705,5.1934,5.1701,5.1658,5.1504,5.077,4.9976,4.9976,4.9504,4.9001,4.9001,4.9001,4.9001,4.9001,4.9001,4.8861,4.8225,4.7803,4.7239,4.5992,4.5504,4.5005,4.3989,4.3771,4.3708,4.3329,4.3329,4.3329,4.3329,4.3329,4.3329,4.3329,4.3329,4.3329,4.3329,4.3329,4.2981,4.2208,4.0376,3.8635,3.7057,3.6628,3.6358,3.6358,3.6358,3.6107,3.5554,3.5002,3.4449,3.3897,3.2509,3.1589,3.1134,2.959,2.8588,3.7629,3.8009,0.0,3.9271,4.0342,0.0,4.1549,0.0,4.3192,0.0,0.0,0.0,0.0,0.0,0.0,0.0,0.0,0.0,0.0,5.076,0.0,0.0,0.0,0.0,0.0,0.0,5.3375,5.4995,5.4568,0.0,0.0,5.3664,5.2799,5.1933,5.1125,5.0702,5.0702,5.0702,5.0702,5.0702,5.0702,5.0702,5.0702,5.0702,5.0702,5.0721,5.0991,5.0883,5.0525,5.0421,5.0616,5.0931,5.0577,5.1242,5.238,5.2105,5.2509,5.3103,5.2335,5.1952,5.1643,5.0911,5.0258,4.9664,4.9664,4.9547,4.939,4.939,4.939,4.939,4.939,4.9204,4.8781,4.7803,4.7373,4.6678,4.5153,4.451,4.4066,4.3409,4.3329,4.3329,4.3329,4.3329,4.3329,4.3329,4.3329,4.3329,4.3329,4.3329,4.3329,4.3329,4.29,4.2029,4.0462,3.8979,3.7586,3.6452,3.6358,3.6358,3.6358,3.6169,3.5818,3.5265,3.4713,3.4161,3.3608,3.1946,3.0944,3.0496,2.8495,2.7315]},{"header":{"parameterUnit":"m.s-1","parameterCategory":1,"la1":30.6,"la2":29.2853,"lo1":-89.7004,"lo2":-87.6739,"dy":0.0162,"dx":0.0183,"nx":112,"ny":82,"refTime":"2026-05-08T00:00:00:Z","depth":0,"parameterNumber":3,"parameterNumberName":"V-component_of_WINDS"},"data":[0.0,0.0,0.0,0.0,0.0,0.0,0.0,0.0,0.0,0.0,0.0,0.0,0.0,0.0,0.0,0.0,0.0,0.0,0.0,0.0,0.0,0.0,0.0,0.0,0.0,0.0,0.0,0.0,0.0,0.0,0.0,0.0,0.0,0.0,0.0,0.0,0.0,0.0,0.0,0.0,0.0,0.0,0.0,0.0,0.0,0.0,0.0,0.0,0.0,0.0,0.0,0.0,0.0,0.0,0.0,0.0,0.0,0.0,0.0,0.0,0.0,0.0,0.0,0.0,0.0,0.0,0.0,0.0,0.0,0.0,0.0,0.0,0.0,0.0,0.0,0.0,0.0,0.0,0.0,0.0,0.0,0.0,0.0,0.0,0.0,0.0,0.0,0.0,0.0,0.0,-1.4016,-1.4254,-1.5985,-1.6523,-1.5133,-1.6221,-1.6673,-1.5879,0.0,0.0,0.0,0.0,0.0,0.0,0.0,0.0,0.0,0.0,0.0,0.0,0.0,0.0,0.0,0.0,0.0,0.0,0.0,0.0,0.0,0.0,0.0,0.0,0.0,0.0,0.0,0.0,0.0,0.0,0.0,0.0,0.0,0.0,0.0,0.0,0.0,0.0,0.0,0.0,0.0,0.0,0.0,0.0,0.0,0.0,0.0,0.0,0.0,0.0,0.0,0.0,0.0,0.0,0.0,0.0,0.0,0.0,0.0,0.0,0.0,0.0,0.0,0.0,0.0,0.0,0.0,0.0,0.0,0.0,0.0,0.0,0.0,0.0,0.0,0.0,0.0,0.0,0.0,0.0,0.0,0.0,0.0,0.0,0.0,0.0,0.0,0.0,0.0,0.0,0.0,0.0,0.0,0.0,0.0,0.0,0.0,0.0,0.0,0.0,0.0,0.0,0.0,0.0,-1.2753,-1.4045,-1.5541,-1.6095,-1.5104,-1.5865,-1.6239,-1.5852,0.0,0.0,0.0,0.0,0.0,0.0,0.0,0.0,0.0,0.0,0.0,0.0,0.0,0.0,0.0,0.0,0.0,0.0,0.0,0.0,0.0,0.0,0.0,0.0,0.0,0.0,0.0,0.0,0.0,0.0,0.0,0.0,0.0,0.0,0.0,0.0,0.0,0.0,0.0,0.0,0.0,0.0,0.0,0.0,0.0,0.0,0.0,0.0,0.0,0.0,0.0,0.0,0.0,0.0,0.0,0.0,0.0,0.0,0.0,0.0,0.0,0.0,0.0,0.0,0.0,0.0,0.0,0.0,0.0,0.0,0.0,0.0,0.0,0.0,0.0,0.0,0.0,0.0,0.0,0.0,0.0,0.0,0.0,0.0,0.0,0.0,0.0,0.0,0.0,0.0,0.0,0.0,0.0,0.0,0.0,0.0,0.0,0.0,0.0,0.0,0.0,0.0,0.0,-1.2538,-1.3397,-1.4914,-1.5778,-1.6176,-1.5727,-1.6025,-1.6079,-1.5625,-1.5444,0.0,0.0,0.0,0.0,0.0,0.0,0.0,0.0,0.0,0.0,0.0,0.0,0.0,0.0,0.0,0.0,0.0,0.0,0.0,0.0,0.0,0.0,0.0,0.0,0.0,0.0,0.0,0.0,0.0,0.0,0.0,0.0,0.0,0.0,0.0,0.0,0.0,0.0,0.0,0.0,0.0,0.0,0.0,0.0,0.0,0.0,0.0,0.0,0.0,0.0,0.0,0.0,0.0,0.0,0.0,0.0,0.0,0.0,0.0,0.0,0.0,0.0,0.0,0.0,0.0,0.0,0.0,0.0,0.0,0.0,0.0,0.0,0.0,0.0,0.0,0.0,0.0,0.0,0.0,0.0,0.0,0.0,0.0,0.0,0.0,0.0,0.0,0.0,0.0,0.0,0.0,0.0,0.0,0.0,0.0,0.0,0.0,0.0,0.0,0.0,0.0,0.0,-1.3578,-1.4245,-1.5615,-1.6032,-1.6192,-1.6266,-1.6146,-1.5872,-1.5424,-1.5057,0.0,0.0,0.0,0.0,0.0,0.0,0.0,0.0,0.0,0.0,0.0,0.0,0.0,0.0,0.0,0.0,0.0,0.0,0.0,0.0,0.0,0.0,0.0,0.0,0.0,0.0,0.0,0.0,0.0,0.0,0.0,0.0,0.0,0.0,0.0,0.0,0.0,0.0,0.0,0.0,0.0,0.0,0.0,0.0,0.0,0.0,0.0,0.0,0.0,0.0,0.0,0.0,0.0,0.0,0.0,0.0,0.0,0.0,0.0,0.0,0.0,0.0,0.0,0.0,0.0,0.0,0.0,0.0,0.0,0.0,0.0,0.0,0.0,0.0,0.0,0.0,0.0,0.0,0.0,0.0,0.0,0.0,0.0,0.0,0.0,0.0,0.0,0.0,0.0,0.0,0.0,0.0,0.0,0.0,0.0,0.0,0.0,0.0,0.0,0.0,0.0,0.0,-1.3042,-1.4345,-1.5635,-1.5845,-1.5972,-1.6253,-1.5772,-1.5438,-1.5398,-1.4863,0.0,0.0,0.0,0.0,0.0,0.0,0.0,0.0,0.0,0.0,0.0,0.0,0.0,0.0,0.0,0.0,0.0,0.0,0.0,0.0,0.0,0.0,0.0,0.0,0.0,0.0,0.0,0.0,0.0,0.0,0.0,0.0,0.0,0.0,0.0,0.0,0.0,0.0,0.0,0.0,0.0,0.0,0.0,0.0,0.0,0.0,0.0,0.0,0.0,0.0,0.0,0.0,0.0,0.0,0.0,0.0,0.0,0.0,0.0,0.0,0.0,0.0,0.0,0.0,0.0,0.0,0.0,0.0,0.0,0.0,0.0,0.0,0.0,0.0,0.0,0.0,0.0,0.0,0.0,0.0,0.0,0.0,0.0,0.0,0.0,0.0,0.0,0.0,0.0,0.0,0.0,0.0,0.0,0.0,0.0,0.0,0.0,0.0,0.0,0.0,0.0,0.0,-1.1677,-1.3031,0.0,-1.5337,-1.5872,-1.5985,-1.5792,-1.5511,-1.515,0.0,0.0,0.0,0.0,0.0,0.0,0.0,0.0,0.0,0.0,0.0,0.0,0.0,0.0,0.0,0.0,0.0,0.0,0.0,0.0,0.0,0.0,0.0,0.0,0.0,0.0,0.0,0.0,0.0,0.0,0.0,0.0,0.0,0.0,0.0,0.0,0.0,0.0,0.0,0.0,0.0,0.0,0.0,0.0,0.0,0.0,0.0,0.0,0.0,0.0,0.0,0.0,0.0,0.0,0.0,0.0,0.0,0.0,0.0,0.0,0.0,0.0,0.0,0.0,0.0,0.0,0.0,0.0,0.0,0.0,0.0,0.0,0.0,0.0,0.0,0.0,0.0,0.0,0.0,0.0,0.0,0.0,0.0,0.0,0.0,0.0,0.0,0.0,0.0,0.0,0.0,0.0,0.0,0.0,0.0,0.0,0.0,0.0,0.0,0.0,0.0,0.0,-1.0153,-1.1153,-1.2443,0.0,-1.4949,-1.5343,-1.5737,-1.5658,-1.5344,-1.485,0.0,0.0,0.0,0.0,0.0,0.0,0.0,0.0,0.0,0.0,0.0,0.0,0.0,0.0,0.0,0.0,0.0,0.0,0.0,0.0,0.0,0.0,0.0,0.0,0.0,0.0,0.0,0.0,0.0,0.0,0.0,0.0,0.0,0.0,0.0,0.0,0.0,0.0,0.0,0.0,0.0,0.0,0.0,0.0,0.0,0.0,0.0,0.0,0.0,0.0,0.0,0.0,0.0,0.0,0.0,0.0,0.0,0.0,0.0,0.0,0.0,0.0,0.0,0.0,0.0,0.0,0.0,0.0,0.0,0.0,0.0,0.0,0.0,0.0,0.0,0.0,0.0,0.0,0.0,0.0,0.0,0.0,0.0,0.0,0.0,0.0,0.0,0.0,0.0,0.0,0.0,0.0,0.0,0.0,0.0,0.0,0.0,0.0,0.0,0.0,0.0,0.0,-1.1268,-1.1762,-1.2915,-1.5439,-1.4657,-1.4459,-1.573,-1.5297,-1.4843,0.0,0.0,0.0,0.0,0.0,0.0,0.0,0.0,0.0,0.0,0.0,0.0,0.0,0.0,0.0,0.0,0.0,0.0,0.0,0.0,0.0,0.0,0.0,0.0,0.0,0.0,0.0,0.0,0.0,0.0,0.0,0.0,0.0,0.0,0.0,0.0,0.0,0.0,0.0,0.0,0.0,0.0,0.0,0.0,0.0,0.0,0.0,0.0,0.0,0.0,0.0,0.0,0.0,0.0,0.0,0.0,0.0,0.0,0.0,0.0,0.0,0.0,0.0,0.0,0.0,0.0,0.0,0.0,0.0,0.0,0.0,0.0,0.0,0.0,0.0,0.0,0.0,0.0,0.0,0.0,0.0,0.0,0.0,0.0,0.0,0.0,0.0,0.0,0.0,0.0,0.0,0.0,0.0,0.0,0.0,0.0,0.0,0.0,0.0,0.0,0.0,0.0,0.0,-0.8691,-1.0623,-1.2237,-1.3011,-1.437,-1.5439,-1.5737,-1.5484,-1.5057,-1.4549,0.0,0.0,0.0,0.0,0.0,0.0,0.0,0.0,0.0,0.0,0.0,0.0,0.0,0.0,0.0,0.0,0.0,0.0,0.0,0.0,0.0,0.0,0.0,0.0,0.0,0.0,0.0,0.0,0.0,0.0,0.0,0.0,0.0,0.0,0.0,0.0,0.0,0.0,0.0,0.0,0.0,0.0,0.0,0.0,0.0,0.0,0.0,0.0,0.0,0.0,0.0,0.0,0.0,0.0,0.0,0.0,0.0,0.0,0.0,0.0,0.0,0.0,0.0,0.0,0.0,0.0,0.0,0.0,0.0,0.0,0.0,0.0,0.0,0.0,0.0,0.0,0.0,0.0,0.0,0.0,0.0,0.0,0.0,0.0,0.0,0.0,0.0,0.0,0.0,0.0,0.0,0.0,0.0,0.0,0.0,0.0,0.0,0.0,0.0,0.0,0.0,0.0,-0.8219,-1.0197,-1.1872,-1.2347,-1.3766,-1.4907,-1.5484,-1.5217,-1.4796,-1.4208,0.0,0.0,0.0,0.0,0.0,0.0,0.0,0.0,0.0,0.0,0.0,0.0,0.0,0.0,0.0,0.0,0.0,0.0,0.0,0.0,0.0,0.0,0.0,0.0,0.0,0.0,0.0,0.0,0.0,0.0,0.0,0.0,0.0,0.0,0.0,0.0,0.0,0.0,0.0,0.0,0.0,0.0,0.0,0.0,0.0,0.0,0.0,0.0,0.0,0.0,0.0,0.0,0.0,0.0,0.0,0.0,0.0,0.0,0.0,0.0,0.0,0.0,0.0,0.0,0.0,0.0,0.0,0.0,0.0,0.0,0.0,0.0,0.0,0.0,0.0,0.0,0.0,0.0,0.0,0.0,0.0,0.0,0.0,0.0,0.0,0.0,0.0,0.0,0.0,0.0,0.0,0.0,0.0,0.0,0.0,0.0,0.0,0.0,0.0,0.0,0.0,0.0,-0.8877,-1.0286,-1.1742,-1.2939,-1.3115,-1.3664,-1.4874,-1.4689,-1.4282,-1.3721,0.0,0.0,0.0,0.0,0.0,0.0,0.0,0.0,0.0,0.0,0.0,0.0,0.0,0.0,0.0,0.0,0.0,0.0,0.0,0.0,0.0,0.0,0.0,0.0,0.0,0.0,0.0,0.0,0.0,0.0,0.0,0.0,0.0,0.0,0.0,0.0,0.0,0.0,0.0,0.0,0.0,0.0,0.0,0.0,0.0,0.0,0.0,0.0,0.0,0.0,0.0,0.0,0.0,0.0,0.0,0.0,0.0,0.0,0.0,0.0,-0.5838,0.0,0.0,0.0,0.0,0.0,0.0,0.0,0.0,0.0,0.0,0.0,0.0,0.0,0.0,0.0,0.0,0.0,0.0,0.0,0.0,0.0,0.0,0.0,0.0,0.0,0.0,0.0,0.0,0.0,0.0,0.0,0.0,0.0,0.0,0.0,0.0,0.0,0.0,0.0,0.0,0.0,-0.7471,-0.9745,-1.1375,-1.165,-1.3393,-1.4687,-1.4963,-1.4689,-1.4369,-1.4015,-1.4487,0.0,0.0,0.0,0.0,0.0,0.0,0.0,0.0,0.0,0.0,0.0,0.0,0.0,0.0,0.0,0.0,0.0,0.0,0.0,0.0,0.0,0.0,0.0,0.0,0.0,0.0,0.0,0.0,0.0,0.0,0.0,0.0,0.0,0.0,0.0,0.0,0.0,0.0,0.0,0.0,0.0,0.0,0.0,0.0,0.0,0.0,0.0,0.0,0.0,0.0,0.0,0.0,0.0,0.0,0.0,0.0,0.0,0.0,0.0,0.0,-0.6379,0.0,0.0,0.0,0.0,0.0,0.0,0.0,0.0,0.0,0.0,0.0,0.0,0.0,0.0,0.0,0.0,0.0,0.0,0.0,0.0,0.0,0.0,0.0,0.0,0.0,0.0,0.0,0.0,0.0,0.0,0.0,0.0,0.0,0.0,0.0,0.0,0.0,0.0,0.0,0.0,-0.6919,-0.8769,-1.0338,-1.087,-1.2651,-1.3905,-1.4543,-1.4402,-1.4436,-1.4696,-1.4772,0.0,0.0,0.0,0.0,0.0,0.0,0.0,0.0,0.0,0.0,0.0,0.0,0.0,0.0,0.0,0.0,0.0,0.0,0.0,0.0,0.0,0.0,0.0,0.0,0.0,0.0,0.0,0.0,0.0,0.0,0.0,0.0,0.0,0.0,0.0,0.0,0.0,0.0,0.0,0.0,0.0,0.0,0.0,0.0,0.0,0.0,0.0,0.0,0.0,0.0,0.0,0.0,0.0,-0.7084,-0.7094,-0.7094,-0.7094,-0.7088,-0.7081,-0.7088,-0.7088,-0.7081,-0.7088,0.0,0.0,0.0,0.0,0.0,0.0,0.0,0.0,0.0,0.0,0.0,0.0,0.0,0.0,0.0,0.0,0.0,0.0,0.0,0.0,0.0,0.0,0.0,0.0,-1.2049,-1.2457,-1.1326,0.0,0.0,0.0,0.0,0.0,0.0,0.0,0.0,0.0,0.0,0.0,-0.6702,-0.815,-0.9579,-1.0524,-1.1815,-1.3027,-1.3997,-1.4088,-1.4469,-1.5322,-1.5144,-1.5365,0.0,0.0,0.0,0.0,0.0,0.0,0.0,0.0,0.0,0.0,0.0,0.0,0.0,0.0,0.0,0.0,0.0,0.0,0.0,0.0,0.0,0.0,0.0,0.0,0.0,0.0,0.0,0.0,0.0,0.0,0.0,0.0,0.0,0.0,0.0,0.0,0.0,0.0,0.0,0.0,0.0,0.0,0.0,0.0,0.0,0.0,0.0,-0.7074,-0.7121,-0.6766,-0.675,-0.707,-0.7095,-0.7058,-0.7058,-0.7058,-0.7058,-0.7058,-0.7058,0.0,-0.7058,-0.7058,0.0,0.0,0.0,0.0,0.0,0.0,0.0,0.0,0.0,0.0,0.0,0.0,0.0,0.0,0.0,0.0,0.0,0.0,0.0,0.0,0.0,0.0,-1.4176,-1.3717,-1.3548,-1.3448,0.0,-1.1413,-0.9764,-0.9705,-0.9388,0.0,0.0,0.0,0.0,0.0,0.0,0.0,-0.6702,-0.8824,-1.0438,-1.0611,-1.2601,-1.3913,-1.4088,-1.4088,-1.4559,-1.5554,-1.6118,-1.6924,-1.7894,-1.768,0.0,0.0,0.0,0.0,0.0,0.0,0.0,0.0,0.0,0.0,0.0,0.0,0.0,0.0,0.0,0.0,0.0,0.0,0.0,0.0,0.0,0.0,0.0,0.0,0.0,0.0,0.0,0.0,0.0,0.0,0.0,0.0,0.0,0.0,0.0,0.0,0.0,0.0,0.0,0.0,0.0,0.0,0.0,0.0,-0.2039,-0.4412,-0.7109,-0.7064,-0.7095,-0.7025,-0.6993,-0.7021,-0.7021,-0.7021,-0.7065,-0.7139,-0.7139,-0.7139,-0.7139,-0.7139,-0.7102,-0.7048,0.0,0.0,0.0,0.0,-0.7048,-0.7054,-0.7119,-0.7197,-0.7417,-0.8455,0.0,0.0,0.0,0.0,0.0,0.0,0.0,0.0,0.0,0.0,-1.3995,-1.3868,-1.3614,-1.34,-1.34,-1.2422,-1.1347,0.0,-0.9128,-0.7799,-0.7668,0.0,0.0,0.0,0.0,-0.6573,-0.6573,-0.816,-0.9484,-1.0153,-1.1652,-1.2978,-1.3738,-1.4399,-1.5278,-1.6511,-1.7225,-1.8113,-1.9136,-1.89,-1.8753,0.0,0.0,0.0,0.0,0.0,0.0,0.0,0.0,0.0,0.0,0.0,0.0,0.0,0.0,0.0,0.0,0.0,0.0,0.0,0.0,0.0,0.0,0.0,0.0,0.0,0.0,0.0,0.0,0.0,0.0,0.0,0.0,0.0,0.0,0.0,0.0,0.0,0.0,0.0,0.0,0.0,0.0,0.0,-0.0617,-0.2544,-0.6051,-0.6757,-0.6944,-0.6871,-0.6871,-0.6871,-0.6871,-0.6871,-0.6949,-0.7085,-0.7085,-0.7105,-0.7139,-0.7139,-0.7119,-0.7085,-0.7085,-0.7061,-0.7034,-0.7071,-0.7257,-0.7523,-0.7562,-0.7834,-0.8341,-0.9275,-0.9676,-0.9876,-1.0476,0.0,0.0,0.0,0.0,-1.2747,-1.2681,-1.3118,-1.3546,-1.3547,-1.3307,-1.3093,-1.3093,-1.2692,-1.219,0.0,-0.9647,-0.7962,-0.7983,0.0,0.0,0.0,0.0,-0.6631,-0.6867,-0.789,-0.9055,-1.0181,-1.1244,-1.2413,-1.3532,-1.4669,-1.5836,-1.7236,-1.804,-1.8979,-2.0002,-1.9775,-1.9561,-1.9453,0.0,0.0,0.0,0.0,0.0,0.0,0.0,0.0,0.0,0.0,0.0,0.0,0.0,0.0,0.0,0.0,0.0,0.0,0.0,0.0,0.0,0.0,0.0,0.0,0.0,0.0,0.0,0.0,0.0,0.0,0.0,0.0,0.0,0.0,0.0,0.0,0.0,0.0,0.0,0.0,0.0,0.0,-0.2233,-0.3358,-0.3296,-0.5723,-0.6865,-0.6712,-0.6712,-0.6712,-0.6712,-0.6712,-0.6797,-0.6939,-0.6939,-0.7014,-0.7139,-0.7139,-0.7061,-0.6939,-0.6939,-0.6851,-0.6742,-0.6888,-0.7614,-0.8645,-0.874,-0.9497,-1.0621,-1.1712,-1.2073,-1.1975,-1.1952,-1.2035,0.0,0.0,-1.3008,-1.3931,-1.3652,-1.3572,-1.3574,-1.33,-1.2999,-1.2849,-1.2849,-1.1834,-1.1259,0.0,-1.2362,-1.1409,-0.9508,0.0,-0.8461,-0.6553,-0.6376,-0.6867,-0.7811,-0.9006,-1.0262,-1.1324,-1.2466,-1.3247,-1.3532,-1.4669,-1.5836,-1.7236,-1.8372,-1.9492,-2.0537,-2.0518,-2.0303,-1.9893,-1.9883,0.0,0.0,0.0,0.0,0.0,0.0,0.0,0.0,0.0,0.0,0.0,0.0,0.0,0.0,0.0,0.0,0.0,0.0,0.0,0.0,0.0,0.0,0.0,0.0,0.0,0.0,0.0,0.0,0.0,0.0,0.0,0.0,0.0,0.0,0.0,0.0,0.0,0.0,0.0,0.0,0.0,-0.086,-0.2653,-0.5363,-0.6129,-0.6556,-0.6552,-0.6552,-0.6552,-0.6552,-0.6552,-0.6637,-0.678,-0.678,-0.6865,-0.7004,-0.7767,-0.7711,-0.7065,-0.7065,-0.7031,-0.7076,-0.7906,-0.8446,-0.897,-0.9726,-1.0265,-1.0778,-1.1895,-1.279,-1.3413,-1.3413,-1.3413,-1.3413,-1.3413,-1.3612,-1.3774,-1.3667,-1.3353,-1.3189,-1.3698,-1.3127,-1.2608,-1.3269,-1.2357,-1.1682,-1.2158,-1.1199,-1.0071,-0.9326,-0.8675,-0.7816,-0.6349,-0.624,-0.6723,-0.772,-0.8859,-0.9911,-1.0906,-1.2164,-1.3033,-1.334,-1.517,-1.662,-1.7236,-1.9027,-2.0167,-2.0566,-2.0566,-2.0787,-2.1206,-2.0995,-2.0969,0.0,0.0,0.0,0.0,0.0,0.0,0.0,0.0,0.0,0.0,0.0,0.0,0.0,0.0,0.0,0.0,0.0,0.0,0.0,0.0,0.0,0.0,0.0,0.0,0.0,0.0,0.0,0.0,0.0,0.0,0.0,0.0,0.0,0.0,0.0,0.0,0.0,0.0,0.0,0.0,-0.0673,-0.251,-0.549,-0.6071,-0.6404,-0.6403,-0.6403,-0.6403,-0.6403,-0.6403,-0.6481,-0.6624,-0.6624,-0.6871,-0.7436,-0.8182,-0.8332,-0.8018,-0.8076,-0.8186,-0.8273,-0.9048,-0.9607,-1.0173,-1.1214,-1.1668,-1.1895,-1.2493,-1.3387,-1.4088,-1.4088,-1.4015,-1.3941,-1.3941,-1.3728,-1.3554,-1.376,-1.3507,-1.3464,-1.4319,-1.3609,-1.2924,-1.346,-1.2707,-1.1837,-1.1737,-1.0785,-0.9929,-0.9623,-0.9079,-0.8187,-0.6783,-0.7026,-0.7557,-0.8237,-0.9216,-1.019,-1.1168,-1.2091,-1.2905,-1.3703,-1.5126,-1.6596,-1.7785,-1.9146,-2.0091,-2.0557,-2.0566,-2.0857,-2.1517,-2.1734,-2.2133,-2.2708,0.0,0.0,0.0,0.0,0.0,0.0,0.0,0.0,0.0,0.0,0.0,0.0,0.0,0.0,0.0,0.0,0.0,0.0,0.0,0.0,0.0,0.0,0.0,0.075,0.0084,0.0,0.0,0.0,0.0,0.0,0.0,0.0,0.0,0.0,0.0,0.0,0.0,0.0,0.0,-0.2092,-0.3225,-0.3234,-0.5411,-0.6396,-0.6338,-0.6338,-0.6338,-0.6338,-0.6338,-0.6335,-0.6464,-0.6544,-0.7193,-0.8237,-0.8237,-0.8891,-0.9806,-1.0103,-1.0188,-1.0188,-1.0282,-1.1174,-1.2451,-1.3315,-1.3828,-1.4015,-1.3728,-1.3828,-1.4062,-1.4062,-1.3861,-1.3627,-1.3627,-1.342,-1.3355,-1.4026,-1.4156,-1.4364,-1.5103,-1.4458,-1.3655,-1.3397,-1.2628,-1.1834,-1.147,-1.1403,-1.1145,-1.0504,-1.0407,-0.9834,-0.8129,-0.8694,0.0,-0.9372,-1.019,-1.1168,-1.2224,-1.2311,-1.2988,-1.4665,-1.4592,-1.5747,-1.8806,-1.8752,-1.918,-2.0624,-2.0644,-2.0634,-2.0722,-2.2112,-2.3303,-2.422,0.0,0.0,0.0,0.0,0.0,0.0,0.0,0.0,0.0,0.0,0.0,0.0,0.0,0.0,0.0,0.0,0.0,0.0,0.0,0.0,0.0,0.6298,0.5899,0.473,0.1905,0.0,0.0,0.0,0.0,0.0,0.0,0.0,0.0,0.0,0.0,0.0,0.0,0.0,0.0,-0.3525,-0.5439,-0.539,-0.6015,-0.6308,-0.6338,-0.6338,-0.6338,-0.6338,-0.6338,-0.6281,-0.6397,-0.7165,-0.7646,-0.8205,-0.9711,-1.0603,-1.0922,-1.0182,-0.9794,-0.9978,-1.1051,-1.2165,-1.3239,-1.3503,-1.3561,-1.3434,-1.3353,-1.3387,-1.3454,-1.3454,-1.3394,-1.3327,-1.3327,-1.3113,-1.3083,-1.3967,-1.3992,-1.4214,-1.5816,-1.5508,-1.4711,-1.4356,-1.3408,-1.2344,-1.1303,-1.0942,-1.0751,-1.0438,-1.0407,-1.0053,-0.9034,-0.9145,0.0,-1.0265,-1.064,-1.1168,-1.2224,-1.2492,-1.3224,-1.4687,-1.57,-1.7035,-1.8921,-1.9653,-2.0487,-2.1583,-2.1593,-2.2339,-2.3745,-2.492,-2.5375,0.0,0.0,0.0,0.0,0.0,0.0,0.0,0.0,0.0,0.0,0.0,0.0,0.0,0.0,0.0,0.0,0.0,0.0,0.0,0.0,0.0,0.0,0.6338,0.6295,0.6307,0.4081,0.1923,0.024,0.0,0.0,0.0,0.0,0.0,0.0,0.0,0.0,0.0,0.0,0.0,0.0,-0.3217,-0.5427,-0.6295,-0.6281,-0.6268,-0.6338,-0.6338,-0.6338,-0.6338,-0.6338,-0.6567,-0.6945,-0.7557,-0.8295,-0.9242,-1.0554,-1.1342,0.0,0.0,0.0,0.0,0.0,-1.3124,-1.3794,-1.3547,-1.3427,-1.3353,-1.31,-1.3106,-1.3213,-1.3213,-1.3427,-1.355,-1.3169,-1.339,-1.3955,-1.4464,-1.4744,-1.5263,-1.6583,-1.6187,-1.5274,-1.4405,-1.3349,-1.227,-1.1057,-1.0739,0.0,-1.0617,-1.0746,-1.0587,-0.9991,-1.0271,-1.0645,-1.0783,-1.1162,-1.1738,-1.2397,-1.2721,-1.3593,-1.5498,-1.5896,0.0,0.0,0.0,-2.0409,-2.1952,-2.2403,0.0,0.0,0.0,0.0,0.0,0.0,0.0,0.0,-2.4819,-2.5003,0.0,0.0,0.0,0.0,0.0,0.0,0.0,0.0,0.0,0.0,0.0,0.0,0.0,0.0,0.0,0.0,0.6338,0.6338,0.6338,0.6135,0.4644,0.1092,0.023,0.0,0.0,0.0,0.0,0.0,0.0,0.0,0.0,0.0,0.0,0.0,0.0,-0.4146,-0.6295,-0.6274,-0.6338,-0.6338,-0.6338,-0.6338,-0.6338,-0.6338,-0.6872,-0.7783,-0.7936,-0.9064,-1.0783,-1.0968,-1.1515,-1.2378,-1.2605,-1.2906,-1.324,-1.35,-1.3781,-1.3955,-1.3561,0.0,0.0,-1.3181,-1.3258,-1.3413,-1.3413,-1.3746,-1.3962,-1.3292,-1.4035,-1.5092,-1.5305,-1.6,-1.6762,-1.733,-1.6817,-1.5686,-1.4136,-1.3076,-1.2077,-1.0932,-1.0681,-1.0719,-1.0942,-1.1236,-1.1255,-1.0966,-1.1675,-1.1996,-1.1087,-1.1768,-1.2418,-1.2788,0.0,0.0,-1.6707,-1.5787,-1.6669,-2.0353,-1.963,-2.0022,-2.2081,-2.3276,-2.4311,-2.5158,-2.5218,-2.5712,-2.6645,-2.613,-2.5987,-2.6174,-2.516,-2.5359,0.0,0.0,0.0,0.0,0.0,0.0,0.0,0.0,0.0,0.0,0.0,0.0,0.0,0.0,0.0,0.6338,0.6338,0.6338,0.6338,0.6129,0.5635,0.4768,0.1871,0.0,0.0,0.0,0.0,0.0,0.0,0.0,0.0,0.0,0.0,0.0,-0.2033,-0.4146,-0.6295,-0.6274,-0.6338,-0.6338,0.0,0.0,-0.6338,-0.6338,-0.6872,-0.7859,-0.8694,-0.9669,-1.0875,-1.1942,-1.25,-1.2721,-1.2458,-1.2726,-1.322,-1.3273,-1.348,-1.3756,-1.4173,-1.4219,-1.4146,-1.4613,-1.4744,-1.48,-1.48,-1.4325,0.0,-1.4552,-1.4361,-1.4378,-1.593,-1.6498,-1.6835,-1.7697,-1.7746,-1.7149,-1.5513,-1.4495,-1.3453,-1.1892,-1.1045,-1.0719,-1.0942,-1.1236,-1.1474,-1.1676,-1.2005,-1.2224,-1.1996,-1.215,-1.2418,-1.2788,-1.2822,-1.3887,-1.6707,-1.6628,-1.764,-2.045,-2.1803,-2.2742,-2.322,-2.5385,-2.6457,-2.6176,-2.6598,-2.7075,-2.7484,-2.7514,-2.7666,-2.7824,-2.6509,-2.6092,0.0,0.0,0.0,0.0,0.0,0.0,0.0,0.0,0.0,0.0,0.0,0.6338,0.6338,0.0,0.6338,0.6338,0.6338,0.6234,0.6156,0.6078,0.6016,0.6025,0.3251,0.0999,0.0077,0.0,0.0,0.0,0.0,0.0,0.0,0.0,0.0,0.0,-0.2021,-0.4146,-0.6295,-0.6274,-0.622,-0.6146,-0.6146,-0.6146,-0.6146,-0.6146,-0.7015,-0.8618,-0.9069,-1.0196,-1.1639,-1.2461,-1.2822,-1.2822,-1.2752,-1.2939,-1.3227,-1.3373,-1.3926,-1.4693,-1.4852,-1.5242,-1.5547,-1.5536,-1.5499,-1.5466,-1.5284,-1.5163,-1.5155,-1.5163,-1.5517,-1.5948,-1.6498,-1.6922,-1.7375,-1.761,-1.7695,-1.7311,-1.5854,-1.4646,-1.3574,-1.234,-1.1277,-1.0672,-1.0755,-1.1136,-1.1523,-1.1824,-1.2118,-1.2305,-1.2305,-1.2432,-1.2639,-1.2946,-1.3106,-1.4071,-1.6124,-1.7292,-1.8731,-2.0469,-2.2414,-2.3514,-2.3514,-2.5683,-2.6741,-2.6533,-2.6728,-2.7186,-2.767,-2.7822,-2.8181,-2.8785,-2.774,-2.7169,0.0,0.0,0.0,0.0,0.0,0.0,0.0,0.0,0.6264,0.6338,0.6338,0.6338,0.6338,0.6338,0.6338,0.6338,0.6237,0.6173,0.6047,0.6003,0.6034,0.6169,0.4553,0.2471,0.0225,0.0,0.0,0.0,0.0,0.0,0.0,0.0,0.0,0.0,-0.2012,-0.4146,-0.6295,-0.6274,-0.6183,-0.603,-0.6061,-0.6057,-0.603,-0.6061,-0.7262,-0.9296,-0.975,-1.083,-1.2405,-1.2721,-1.2856,-1.2866,-1.3173,-1.3293,-1.332,-1.3554,-1.4461,-1.5651,-1.5564,-1.6308,-1.7037,-1.6524,-1.6349,-1.628,-1.584,-1.6149,-1.6498,-1.5939,-1.6724,-1.7579,-1.7001,-1.7432,-1.7852,-1.7369,-1.7225,-1.6892,-1.5593,-1.4354,-1.3244,-1.2482,-1.139,-1.0645,-1.0698,-1.1082,-1.151,-1.175,-1.2078,-1.2305,-1.2305,-1.2512,-1.2799,-1.3173,-1.342,-1.4172,-1.5831,-1.7819,-1.9441,-2.0557,-2.2264,-2.3294,-2.3514,-2.5205,-2.6314,-2.6533,-2.6533,-2.6905,-2.767,-2.7855,-2.8379,-2.9073,-2.8741,-2.8286,0.0,0.0,0.0,0.0,0.0171,0.1391,0.0,0.0,0.6274,0.6264,0.6338,0.6338,0.6338,0.6338,0.6338,0.6338,0.6146,0.6051,0.603,0.5911,0.5833,0.5854,0.5871,0.432,0.0365,0.0,0.0,0.0,0.0,0.0,0.0,0.0,0.0,0.0,-0.203,-0.4146,-0.6295,-0.6274,-0.6183,-0.603,-0.6169,-0.6162,-0.6034,-0.6173,-0.7383,-0.9372,-1.1174,-1.2227,-1.2775,-1.2808,-1.2913,-1.3186,-1.348,-1.3594,-1.3601,-1.3552,-1.4461,-1.5816,-1.6349,-1.725,-1.815,-1.825,-1.827,-1.8193,-1.7781,-1.7148,-1.6775,-1.7501,-1.7217,-1.6922,-1.7647,-1.794,-1.7784,-1.6867,-1.6711,-1.6327,-1.4908,-1.3751,-1.2823,-1.2318,-1.1319,-1.0705,-1.0902,-1.1209,-1.1436,-1.147,-1.1951,-1.2305,-1.2305,-1.2331,-1.2572,-1.3146,-1.324,-1.4264,-1.6871,-1.831,-1.9441,-2.0557,-2.1593,-2.2553,-2.3441,-2.4564,-2.5594,-2.6452,-2.6533,-2.6905,-2.767,-2.8492,-2.8731,-2.8426,-2.9127,-2.9122,0.0,0.0,0.0,0.0,0.0,0.0729,0.3553,0.5328,0.6251,0.6146,0.62,0.6338,0.6338,0.6338,0.6338,0.0,0.6132,0.5996,0.5908,0.5772,0.5644,0.5555,0.572,0.4706,0.2057,0.0712,0.0,0.0,0.0,0.0,0.0,0.0,0.0,0.0,-0.2054,-0.4092,-0.6295,-0.6274,-0.6183,-0.603,-0.6095,-0.6091,-0.603,-0.6098,-0.7303,-0.9448,-1.1397,-1.2472,-1.2835,-1.2946,-1.3193,-1.3494,-1.3788,-1.3901,-1.3901,-1.3901,-1.4622,-1.5838,-1.675,-1.7749,-1.877,-1.9199,-1.9219,-1.8936,-1.8506,-1.7908,-1.7501,-1.7872,-1.7716,-1.7501,-1.7862,-1.8008,-1.7862,-1.7501,-1.7001,-1.6453,-1.5869,-1.4377,-1.3081,-1.2871,-1.1854,-1.1102,-1.1223,-1.149,-1.1683,-1.1683,-1.2037,-1.2305,-1.2305,-1.2452,-1.2792,-1.34,-1.3621,-1.47,-1.7074,-1.7738,-1.8789,-2.0479,-2.2038,-2.3073,-2.3514,-2.5063,-2.6094,-2.6465,-2.6533,-2.7162,-2.8427,-2.8812,-2.9177,-2.9557,-2.9565,-2.922,0.0,0.0,0.0,0.0,0.0,0.0476,0.2275,0.4419,0.6056,0.5972,0.6118,0.621,0.6254,0.6338,0.6338,0.6338,0.6095,0.5928,0.5817,0.5644,0.5501,0.5433,0.5401,0.4781,0.3176,0.1196,0.0,0.0,0.0,0.0,0.0,0.0,0.0,0.0,-0.2019,-0.413,-0.6291,-0.6274,-0.6183,-0.603,-0.6071,-0.6071,-0.603,-0.6667,-0.7798,-0.9453,-1.1559,-1.2545,-1.2849,-1.3166,-1.3454,-1.3592,-1.3975,-1.4088,-1.4088,-1.4088,-1.4817,-1.5779,-1.6601,-1.7577,-1.8567,-1.8874,-1.9005,-1.8905,-1.8361,-1.8139,-1.8154,-1.8047,-1.8008,-1.794,-1.7647,-1.7794,-1.7872,-1.7364,-1.6932,-1.6498,-1.6289,-1.4673,-1.3329,-1.3329,-1.2241,-1.145,-1.153,-1.1724,-1.1897,-1.1977,-1.2171,-1.2305,-1.2305,-1.2639,-1.3073,-1.3587,-1.4151,-1.5304,-1.7172,-1.7577,-1.855,-2.0479,-2.2188,-2.322,-2.3514,-2.5134,-2.6245,-2.6452,-2.6533,-2.7095,-2.8298,-2.8748,-2.9304,-2.9825,-2.9684,-2.922,0.0,0.0,0.0,0.0,0.0,0.0458,0.2259,0.4082,0.5523,0.5932,0.6034,0.6084,0.6234,0.6338,0.6338,0.6338,0.6006,0.5806,0.58,0.5552,0.542,0.5566,0.5464,0.4675,0.0,0.1067,0.0,0.0,0.0,0.0,0.0,0.0,0.0,0.0,-0.2037,-0.413,-0.6291,-0.6274,-0.6183,-0.603,-0.6183,-0.6176,-0.6108,-0.8214,-0.9216,-0.9463,-1.1758,-1.2815,-1.2869,-1.3387,-1.3552,-1.3592,-1.3975,-1.4088,-1.4088,-1.4088,-1.4817,-1.5696,-1.5779,-1.6437,-1.7276,-1.6896,-1.7476,-1.8199,-1.7278,-1.7754,-1.8535,-1.8125,-1.8008,-1.7794,-1.6853,-1.7285,-1.751,-1.5728,-1.593,-1.6349,-1.5446,-1.419,-1.3329,-1.3329,-1.2241,-1.1516,-1.1804,-1.1864,-1.1964,-1.2245,-1.2291,-1.2305,-1.2305,-1.2826,-1.3313,-1.3614,-1.4868,-1.6108,-1.7172,-1.831,-1.9441,-2.0557,-2.1517,-2.2478,-2.3441,-2.448,-2.5511,-2.6452,-2.6533,-2.6521,-2.6589,-2.8247,-2.8685,-2.8091,-2.9097,-2.922,0.0,0.0,0.0,0.0,0.0,0.0451,0.2265,0.4077,0.5485,0.5801,0.5878,0.5925,0.6081,0.6108,0.6108,0.6108,0.5935,0.58,0.58,0.5633,0.5532,0.5586,0.5643,0.0,0.0,0.0,0.0,0.0,0.0,0.0,0.0,0.0,0.0,0.0,-0.2004,-0.41,-0.6311,-0.6304,-0.6234,-0.6183,-0.6237,-0.6234,-0.6259,-0.8358,-0.9377,-0.9674,-1.1845,-1.2973,-1.3353,-1.3561,-1.3761,-1.3948,-1.4048,-1.4088,-1.4088,-1.4088,-1.4334,-1.4817,-1.6281,-1.6519,-1.6495,-1.7826,-1.7778,-1.72,-1.6877,-1.6679,-1.6549,-1.6427,-1.628,-1.6088,-1.5728,-1.5939,-1.5948,-1.5376,-1.495,-1.4593,-1.4243,-1.3367,-1.2652,-1.2652,-1.2288,-1.2037,-1.2138,-1.2158,-1.2258,-1.2552,-1.2425,-1.2371,-1.2572,-1.2953,-1.332,-1.3614,-1.4868,-1.6108,-1.7172,-1.831,-1.9441,-2.0557,-2.1441,-2.2478,-2.3441,-2.4492,-2.5441,-2.6452,-2.6533,-2.6782,-2.7284,-2.8427,-2.8934,-2.889,-2.9763,-2.9624,0.0,0.0,0.0,0.0,0.0,0.03,0.1447,0.3691,0.5564,0.5735,0.5768,0.5847,0.6,0.603,0.6013,0.5959,0.5867,0.58,0.58,0.5681,0.563,0.5735,0.5795,0.4986,0.0,0.0,0.0,0.0,0.0,0.0,0.0,0.0,0.0,0.0,-0.2753,-0.4871,-0.6315,-0.6307,-0.6264,-0.6338,-0.6338,-0.6288,-0.6414,-0.8108,-0.914,-0.99,-1.1654,-1.2875,-1.3654,-1.3761,-1.3915,-1.4088,-1.4088,-1.4088,-1.4088,-1.4088,-1.4088,-1.4334,-1.6116,-1.6273,-1.5944,-1.7334,-1.7409,-1.6771,-1.6118,-1.5871,-1.5758,-1.5503,-1.5336,-1.5092,-1.4736,-1.495,-1.5092,-1.4736,-1.445,-1.4307,-1.4665,-1.4019,-1.3448,-1.3795,-1.3302,-1.2806,-1.2806,-1.2607,-1.2525,-1.2795,-1.2679,-1.2732,-1.3026,-1.324,-1.348,-1.3768,-1.5255,-1.6519,-1.7261,-1.8709,-1.9844,-2.0566,-2.1441,-2.2478,-2.3441,-2.4492,-2.5441,-2.6452,-2.6533,-2.6782,-2.7297,-2.8117,-2.8732,-2.9217,-2.9784,-2.9781,0.0,0.0,0.0,0.0,0.0,0.0,0.0,0.296,0.5666,0.5715,0.5759,0.5837,0.0,0.0,0.5979,0.5827,0.5813,0.5823,0.5813,0.5698,0.5715,0.0,0.0,0.0,0.0,0.0,0.0,0.0,0.0,0.0,0.0,0.0,-0.0074,-0.0151,-0.4024,-0.6166,-0.6122,-0.6278,-0.6274,-0.6271,-0.6271,-0.6342,-0.6551,-0.7585,-0.8715,-0.9969,-1.1342,-1.2548,-1.3687,-1.3975,-1.4088,-1.4088,-1.4088,-1.4088,-1.4088,-1.4088,-1.4088,-1.425,-1.5296,-1.5703,-1.5621,-1.5696,-1.6355,-1.6798,-1.5098,-1.5258,-1.6004,-1.5314,-1.518,-1.495,-1.4027,-1.445,-1.4958,-1.3977,-1.4482,-1.5401,-1.6245,-1.5675,-1.5321,-1.6219,-1.4871,-1.36,-1.3622,-1.3145,-1.2835,-1.2869,-1.3046,-1.3333,-1.3607,-1.3559,-1.3754,-1.4139,-1.6041,-1.7334,-1.7415,-1.9353,-2.0566,-2.0566,-2.1441,-2.2403,-2.3368,-2.4409,-2.537,-2.6383,-2.6452,-2.6533,-2.6533,-2.7284,-2.8117,-2.8925,-2.9217,-2.9769,0.0,0.0,0.0,0.0,0.0,0.0,0.0,0.1971,0.4176,0.5638,0.5758,0.5688,0.0,0.0,0.0,0.5827,0.5993,0.0,0.5986,0.5939,0.0,0.602,0.0,0.5381,0.3279,0.1246,0.0,0.0,0.0,0.0,0.0,0.0,-0.0746,-0.2285,-0.3355,-0.3934,-0.3891,-0.5508,-0.6318,-0.6417,-0.6417,-0.6437,-0.6555,-0.7631,-0.8923,-1.0357,-1.1415,-1.2659,-1.3981,-1.4055,-1.4088,-1.4088,-1.4088,-1.4088,-1.4088,-1.4088,-1.4088,-1.425,-1.5296,-1.522,-1.4657,-1.5455,-1.5296,-1.4747,-1.4035,-1.4374,-1.4935,-1.4597,-1.48,-1.5163,-1.4879,-1.5021,-1.5015,-1.4273,-1.426,-1.4326,-1.3881,-1.359,-1.3443,-1.3419,-1.3018,-1.2735,-1.2969,-1.292,-1.2976,-1.3347,-1.348,-1.3561,-1.3552,-1.3559,-1.3994,-1.5184,-1.6519,-1.7666,-1.847,-1.9844,-2.0566,-2.0566,-2.0779,-2.1375,-2.2328,-2.3368,-2.4337,-2.537,-2.6094,-2.6533,-2.6533,-2.7284,-2.7802,-2.8051,-2.9411,-2.9898,0.0,0.0,0.0,0.0,0.0,0.0,0.0,0.0901,0.2563,0.5518,0.5911,0.5792,0.5789,0.5925,0.5979,0.0,0.0,0.0,0.6142,0.6071,0.6054,0.0,0.6227,0.0,0.3281,0.1253,0.0,0.0,0.0,0.0,0.0,-0.1757,-0.3295,-0.4468,-0.4496,-0.4543,-0.4603,-0.5761,-0.6427,-0.6573,-0.6573,-0.6607,-0.6675,-0.7337,-0.8636,-1.0508,0.0,-1.2486,-1.4095,-1.4222,-1.4202,-1.4088,-1.4088,-1.4088,-1.4088,-1.4088,-1.4088,-1.4173,-1.4817,-1.4573,-1.425,-1.5379,-1.5296,-1.4678,-1.381,-1.3837,-1.4108,-1.3874,-1.4026,-1.4328,-1.4328,-1.4328,-1.4231,-1.3815,-1.3782,-1.3705,-1.3621,-1.3621,-1.3598,-1.3718,-1.3616,-1.355,-1.3436,-1.316,-1.3106,-1.3574,-1.3754,-1.3841,-1.3841,-1.3948,-1.4496,-1.5807,-1.7048,-1.8161,-1.9147,-2.0448,-2.0977,-2.0586,-2.0752,-2.1221,-2.1962,-2.3196,-2.4283,-2.5325,-2.6606,-2.7067,-2.6816,-2.7276,-2.7598,-2.7736,-2.8684,-2.9383,0.0,0.0,0.0,0.0,0.0,0.0,0.0,0.0,0.1096,0.5101,0.5972,0.5985,0.5833,0.5939,0.5993,0.5881,0.0,0.6288,0.6288,0.6159,0.6108,0.6244,0.6281,0.5425,0.3295,0.1259,0.0,0.0,0.0,0.0,0.0,-0.3476,-0.5732,-0.6307,-0.6386,-0.6444,-0.6644,-0.6603,-0.658,-0.6729,-0.6729,-0.68,-0.6929,-0.6949,-0.8233,-1.0405,-1.0858,-1.2178,-1.3959,-1.4389,-1.4429,-1.4202,-1.4202,-1.4202,-1.4202,-1.4162,-1.4142,-1.4135,-1.4102,-1.4088,-1.425,-1.522,-1.5462,-1.5238,-1.3967,-1.3722,-1.3736,-1.3439,-1.3516,-1.3588,-1.3588,-1.3588,-1.3523,-1.3491,-1.3543,-1.3752,-1.455,-1.4676,-1.4758,-1.5266,-1.509,-1.4767,-1.4186,-1.3599,-1.3367,-1.3661,-1.3998,-1.4328,-1.4328,-1.4586,-1.5102,-1.6182,-1.7672,-1.888,-1.956,-2.1056,-2.1533,-2.0703,-2.1016,-2.1411,-2.1832,-2.3308,-2.4544,-2.5595,-2.7115,-2.7713,-2.7394,-2.7318,-2.7423,-2.7655,-2.7709,-2.8492,0.0,0.0,0.0,0.0,0.0,0.0,0.0,0.0,0.0,0.0,0.49,0.6016,0.5973,0.6013,0.6064,0.6166,0.6325,0.6434,0.6434,0.6312,0.623,0.0,0.6281,0.5457,0.3292,0.121,0.0,0.0,0.0,0.0,0.0,-0.072,-0.2773,-0.6506,-0.6595,-0.6736,-0.6854,-0.6725,-0.6736,-0.6888,-0.6888,-0.6902,-0.6932,-0.7051,-0.7882,-0.9464,-1.0568,0.0,-1.3255,-1.4404,-1.4856,-1.481,-1.481,-1.481,-1.4783,-1.4536,-1.4442,-1.4409,-1.4168,-1.4088,-1.4166,-1.4328,-1.4412,-1.4273,-1.3734,-1.4198,-1.4758,-1.4438,-1.4949,-1.5549,-1.5549,-1.5549,-1.5397,-1.4909,-1.5154,-1.5474,-1.5227,-1.4997,-1.4622,-1.4159,-1.3787,-1.3528,-1.3427,-1.3454,-1.3667,-1.3968,-1.4859,-1.5462,-1.5462,-1.5735,-1.6019,-1.6097,-1.8354,-1.9916,-1.9937,-2.1135,-2.167,-2.1152,-2.1191,-2.1105,-2.0876,-2.218,-2.3492,-2.4544,-2.5988,-2.715,-2.7959,-2.7507,-2.7301,-2.7386,-2.7572,-2.7855,0.0,0.0,0.0,0.0,0.0,0.0,0.0,0.0,0.0,0.0,0.4722,0.6131,0.602,0.603,0.0,0.6129,0.6264,0.6386,0.6461,0.6413,0.64,0.6481,0.6351,0.5479,0.0,0.1239,0.0,0.0,0.0,0.0,0.0,0.0,-0.1576,-0.4957,-0.6148,-0.6803,-0.6926,-0.6858,-0.6895,-0.7037,-0.7037,-0.7037,-0.7044,-0.7193,-0.7919,-0.9165,-1.0731,-1.2016,-1.3121,-1.4566,-1.5104,-1.4963,-1.4963,-1.4963,-1.4943,-1.4803,-1.475,-1.471,-1.4416,-1.4416,-1.4496,-1.4188,-1.4088,-1.4062,-1.3915,-1.42,-1.4564,-1.4416,-1.4684,-1.4999,-1.4999,-1.4999,-1.4955,-1.4639,-1.4799,-1.4962,-1.4721,-1.4823,-1.5045,-1.5239,-1.4996,-1.5002,-1.5732,-1.5582,-1.5403,-1.5749,-1.6198,-1.6355,-1.5779,-1.6722,-1.7632,-1.8135,-1.9067,-2.0093,-2.1221,-2.2053,-2.2168,-2.1289,-2.1445,-2.1377,-2.0937,-2.2316,-2.3745,-2.5015,-2.6543,-2.7714,-2.8536,-2.8273,-2.7996,-2.7695,-2.7538,-2.7725,0.0,0.0,0.0,0.0,0.0,0.0,0.0,0.0,0.0,0.2112,0.4464,0.6238,0.6084,0.6027,0.6013,0.0,0.6173,0.6285,0.6491,0.6491,0.6529,0.0,0.6476,0.0,0.329,0.1184,0.0,0.0,0.0,0.0,0.0,0.0,-0.1092,-0.3546,-0.5695,-0.6878,-0.6973,-0.7007,-0.7078,-0.719,-0.7224,-0.7238,-0.7241,-0.7366,-0.7978,-0.8926,-1.0613,-1.1817,-1.2917,-1.4446,-1.5167,-1.515,-1.515,-1.515,-1.5137,-1.5077,-1.5057,-1.5017,-1.4716,-1.477,-1.489,-1.4429,-1.4235,-1.4168,-1.4108,-1.4088,-1.4088,-1.4088,-1.4088,-1.4088,-1.4088,-1.4088,-1.4153,-1.4253,-1.4364,-1.4538,-1.4814,-1.5257,-1.5839,-1.6768,-1.6704,-1.6765,-1.7846,-1.7475,-1.6995,-1.6968,-1.7172,-1.6927,-1.5861,-1.6969,-1.8496,-2.0027,-1.9852,-2.0316,-2.2102,-2.2766,-2.2676,-2.1582,-2.1748,-2.1728,-2.1387,-2.2544,-2.3886,-2.54,-2.6933,-2.8064,-2.8696,-2.8825,-2.8699,-2.8273,-2.772,-2.7774,0.0,0.0,0.0,0.0,0.0,0.0,0.0,0.0,0.0081,0.0236,0.3461,0.6277,0.6311,0.6017,0.5956,0.6366,0.0,0.6196,0.662,0.6559,0.6529,0.6681,0.0,0.0,0.3359,0.1212,0.0,0.0,0.0,0.0,0.0,0.0,-0.1102,-0.3538,-0.5827,-0.7054,-0.7122,-0.7258,-0.7339,-0.7353,-0.7492,-0.7556,-0.7556,-0.757,-0.7743,-0.7959,-0.9415,-1.0761,0.0,-1.3448,-1.4702,-1.5752,-1.5752,-1.5752,-1.5718,-1.5451,-1.5357,-1.5311,-1.5023,-1.4943,-1.4957,-1.4903,-1.4703,-1.4429,-1.4168,-1.4088,-1.4088,-1.4088,-1.4088,-1.4088,-1.4088,-1.4088,-1.4266,-1.4858,-1.5331,-1.5866,-1.7115,-1.7248,-1.7254,-1.7663,-1.7441,-1.7136,-1.7066,-1.7133,-1.6968,-1.6026,-1.6683,-1.6927,-1.5861,-1.6087,-1.7273,-1.9907,-2.07,-2.115,-2.1416,-2.2473,-2.293,-2.2422,-2.207,-2.1865,-2.1826,-2.1938,-2.2796,-2.4352,-2.5886,-2.7186,-2.8183,-2.8682,-2.89,-2.8837,-2.8285,-2.8107,0.0,0.0,0.0,0.0,0.0,0.0,0.0,0.0,0.0,0.0,0.233,0.4804,0.6028,0.6091,0.5996,0.6176,0.6108,0.6125,0.6396,0.6458,0.6563,0.681,0.6858,0.0,0.0,0.0,0.0,0.0,0.0,0.0,0.0,0.0,-0.1141,-0.3527,-0.6056,-0.7316,-0.7278,-0.7431,-0.7509,-0.7509,-0.757,-0.76,-0.7604,-0.7689,-0.7756,-0.7911,-0.9259,-1.0701,0.0,-1.3397,-1.4657,-1.5832,-1.5832,-1.5832,-1.5812,-1.5698,-1.5658,-1.5618,-1.5324,-1.5337,-1.5424,-1.5077,-1.5003,-1.4957,-1.4489,-1.4349,-1.4309,-1.4135,-1.4088,-1.4088,-1.4088,-1.4573,-1.5278,-1.5948,-1.6637,-1.7309,-1.8065,-1.7944,-1.7992,-1.8744,-1.8585,-1.8497,-1.9045,-1.8682,-1.8227,-1.7952,-1.7747,-1.7497,-1.7363,-1.7526,-1.8477,-2.0368,-2.0228,-2.0607,-2.2287,-2.2862,-2.2959,-2.2539,-2.2353,-2.2266,-2.2266,-2.2266,-2.3022,-2.4514,-2.5198,-2.6367,-2.8096,-2.8288,-2.8774,-2.944,-2.8863,-2.8599,0.0,0.0,0.0,0.0,0.0,0.0,0.0,0.0,0.0,0.0,0.1641,0.375,0.5886,0.6146,0.6044,0.6091,0.6098,0.6166,0.6363,0.6515,0.6702,0.6959,0.0,0.6433,0.0,0.1788,0.0,0.0,0.0,0.0,0.0,0.0,-0.1079,-0.3541,-0.6204,-0.7502,-0.737,-0.7563,-0.7662,-0.7662,-0.7709,-0.7729,-0.7733,-0.7834,-0.7879,-0.7885,-0.8966,-1.0386,0.0,-1.2909,-1.4268,-1.5832,-1.5832,-1.5832,-1.5832,-1.5832,-1.5832,-1.5798,-1.5591,-1.5658,-1.5758,-1.5351,-1.5357,-1.5431,-1.493,-1.4716,-1.469,-1.4812,-1.5177,-1.5425,-1.5425,-1.6002,-1.6691,-1.7172,-1.779,-1.8364,-1.8956,-1.8718,-1.8828,-2.0035,-1.9651,-1.9494,-2.0769,-2.0052,-1.9399,-1.9587,-1.8958,-1.8465,-1.8468,-1.8729,-1.9394,-2.0802,-2.0202,-2.0651,-2.2931,-2.3135,-2.3018,-2.2715,-2.2578,-2.2568,-2.2695,-2.2578,-2.3037,-2.4286,-2.4628,-2.5703,-2.7602,-2.7936,-2.8688,-2.9779,-2.9377,-2.9089,0.0,0.0,0.0,0.0,0.0,0.0,0.0,0.0,0.0,0.0,0.1643,0.3752,0.5895,0.6149,0.6078,0.6234,0.6257,0.6363,0.6654,0.6827,0.6976,0.0,0.0,0.7088,0.7101,0.278,0.0,0.0,0.0,0.0,0.0,0.0,-0.1087,-0.3557,-0.6164,-0.7502,-0.737,-0.7662,-0.7811,-0.7811,-0.7963,-0.8035,-0.8035,-0.8035,-0.8038,-0.8038,-0.8038,-0.9509,0.0,-1.195,-1.3499,-1.5832,-1.5832,-1.5832,-1.5832,-1.5832,-1.5832,-1.5832,-1.5825,-1.5825,-1.5832,-1.5818,-1.5818,-1.5772,-1.5478,-1.519,-1.5218,-1.6411,-1.762,-1.8571,-1.8571,-1.8571,-1.8579,-1.8579,-1.8587,-1.8922,-1.9943,-1.9897,-2.008,-2.1622,-2.0494,-1.9916,-2.1622,-2.081,-2.0027,-2.0196,-2.0196,-1.9773,-1.8751,-1.8912,-1.9579,-2.0802,-2.1146,-2.1747,-2.296,-2.3135,-2.3135,-2.3135,-2.2744,-2.2705,-2.3115,-2.2734,-2.2705,-2.3125,-2.4211,-2.5378,-2.6483,-2.7602,-2.8688,-2.9792,-2.9779,-2.9478,0.0,0.0,0.0,0.0,0.0,0.0,0.0,0.0,0.0,0.0,0.1621,0.3764,0.5879,0.6227,0.6237,0.6383,0.6407,0.6474,0.6671,0.0,0.0,0.7122,0.7078,0.6506,0.0,0.0,0.0,0.0,0.0,0.0,0.0,0.0,-0.1193,-0.3798,-0.6327,-0.7617,-0.7672,-0.7868,-0.7967,-0.7967,-0.8018,-0.8038,-0.8038,-0.8038,-0.8038,-0.8038,-0.8038,-0.9509,-1.1945,-1.1945,-1.3403,-1.5832,-1.5832,-1.5832,-1.5832,-1.5832,-1.5832,-1.5832,-1.5832,-1.5832,-1.5832,-1.5832,-1.5832,-1.5812,-1.5718,-1.5491,-1.5484,-1.6477,-1.7113,-1.7422,-1.7567,-1.7458,-1.758,-1.8856,-1.9667,-2.0425,-2.1863,-2.1873,-2.1709,-2.2201,-2.162,-2.1288,-2.1773,-2.0913,-2.021,-2.0481,-1.9922,-1.966,-2.036,-2.0501,-2.1033,-2.2292,-2.2503,-2.2677,-2.3047,-2.3135,-2.3135,-2.3135,-2.3018,-2.2998,-2.3135,-2.3018,-2.2998,-2.3135,-2.3464,-2.4211,-2.5378,-2.6461,-2.7959,-2.9792,-2.9792,-2.9478,0.0,0.0,0.0,0.0,0.0,0.0,0.0,0.0,0.0,0.0,0.1742,0.394,0.6021,0.6428,0.6458,0.6546,0.6607,0.6698,0.0,0.0,0.0,0.7295,0.0,0.0,0.0,0.1379,0.0,0.0,0.0,0.0,0.0,0.0,-0.1228,-0.3959,-0.6398,-0.7758,-0.7811,-0.7963,-0.8038,-0.8038,-0.8038,-0.8038,-0.8038,-0.8038,-0.8038,-0.8038,-0.8038,-0.9509,0.0,-1.1945,-1.3403,-1.5832,-1.5832,-1.5832,-1.5832,-1.5832,-1.5832,-1.5832,-1.5832,-1.5832,-1.5832,-1.5832,-1.5832,-1.5832,-1.5832,-1.598,-1.643,-1.6943,-1.7497,-1.7893,-1.8014,-1.7913,-1.8045,-1.9199,-2.0214,-2.118,-2.2161,-2.2448,-2.2559,-2.2715,-2.2044,-2.1635,-2.224,-2.1371,-2.0825,-2.1525,-2.1038,-2.0766,-2.1266,-2.1658,-2.212,-2.2403,-2.2862,-2.3135,-2.3135,-2.3135,-2.3135,-2.3135,-2.3135,-2.3135,-2.3135,-2.3301,-2.3389,-2.3389,-2.3545,-2.4047,-2.506,-2.6385,-2.8039,-2.9792,-2.9792,-2.9603,0.0,0.0,0.0,0.0,0.0,0.0,0.0,0.0,0.0,0.0,0.1938,0.4206,0.6338,0.6732,0.6705,0.6715,0.6834,0.6983,0.0,0.7299,0.0,0.0,0.7648,0.0,0.3885,0.1411,0.0,0.0,0.0,0.0,0.0,0.0,-0.1276,-0.3927,-0.6608,-0.7986,-0.7828,-0.798,-0.8055,-0.8055,-0.8065,-0.8072,-0.8072,-0.8072,-0.8072,0.0,-0.8072,-0.9446,-1.1795,-1.1795,-1.3346,-1.5668,-1.5688,-1.5783,-1.5865,-1.5885,-1.5879,-1.5865,-1.5865,-1.5845,-1.5832,-1.5832,-1.5832,-1.5832,-1.5832,-1.6669,-1.7692,-1.7692,-1.8503,-1.9397,-1.9372,-1.9381,-1.9397,-1.9464,-2.0378,-2.1293,-2.1382,-2.2013,-2.2676,-2.3066,-2.1907,-2.1323,-2.2795,-2.2208,-2.1845,-2.295,-2.3135,-2.2677,-2.1569,-2.2403,-2.2677,-2.1569,-2.2403,-2.3135,-2.3135,-2.3135,-2.3135,-2.3135,-2.3135,-2.3154,-2.3184,-2.3574,-2.3799,-2.3838,-2.4219,-2.4736,-2.5501,-2.7227,-2.8645,-2.9792,-2.9792,-2.9792,0.0,0.0,0.0,0.0,0.0,0.0,0.0,0.0,0.0,0.0,0.0,0.4304,0.6576,0.6807,0.6739,0.6858,0.6905,0.7021,0.7282,0.0,0.0,0.7756,0.7801,0.6876,0.4158,0.1518,0.0,0.0,0.0,0.0,0.0,0.0,-0.1192,-0.3883,-0.6573,-0.7955,-0.7987,-0.814,-0.8214,-0.8218,-0.8326,-0.8377,-0.8377,-0.8377,-0.8377,-0.8377,-0.8377,-0.9297,-1.0719,-1.0719,-1.2244,-1.4496,-1.4694,-1.5356,-1.6192,-1.642,-1.6359,-1.6166,-1.6166,-1.6019,-1.5832,-1.5832,-1.5832,-1.5832,-1.5832,-1.6669,-1.7692,-1.7692,-1.787,-1.8072,-1.7796,-1.7934,-1.8257,-1.8979,-2.0277,-2.1569,-2.2492,-2.2785,-2.3018,-2.3125,-2.2785,-2.2659,-2.3028,-2.2862,-2.2775,-2.3047,-2.3135,-2.296,-2.2677,-2.295,-2.296,-2.2677,-2.296,-2.3135,-2.3135,-2.3135,-2.3135,-2.3135,-2.3135,-2.3291,-2.3623,-2.374,-2.3945,-2.4258,-2.4365,-2.5167,-2.6689,-2.7161,-2.8163,-2.9792,-2.9792,-2.9792,0.0,0.0,0.0,0.0,0.0,0.0,0.0,0.0,0.0,0.0,0.0,0.431,0.663,0.7041,0.7034,0.7119,0.719,0.0,0.0,0.0,0.7919,0.7929,0.7858,0.7318,0.0,0.2335,0.0,0.0,0.0,0.0,0.0,0.0,-0.0705,-0.2068,-0.5926,-0.8007,-0.8153,-0.8237,-0.8377,-0.837,-0.8445,-0.8482,-0.8482,-0.8482,-0.8482,-0.8482,-0.8482,-0.9205,-1.0443,-1.0443,-1.1856,-1.4091,-1.4447,-1.5201,-1.6306,-1.66,-1.6607,-1.6453,-1.6319,-1.6079,-1.5832,-1.5832,-1.5832,-1.5832,-1.5832,-1.6292,-1.6857,-1.6857,-1.6857,-1.6901,-1.736,-1.7542,-1.801,-1.8986,-2.0338,-2.148,-2.2138,-2.2687,-2.3135,-2.3135,-2.3135,-2.3135,-2.3135,-2.3135,-2.3135,-2.3135,-2.3135,-2.2862,-2.2315,-2.2765,-2.2862,-2.2306,-2.2948,-2.3437,-2.3437,-2.3613,-2.3643,-2.3447,-2.3437,-2.3633,-2.4062,-2.4268,-2.458,-2.501,-2.4824,-2.5553,-2.7342,-2.7216,-2.8046,-2.9792,-2.9792,-2.9792,0.0,0.0,0.0,0.0,0.0,0.0,0.0,0.0,0.0,0.0,0.0,0.0,0.0,0.7305,0.0,0.0,0.0,0.0,0.7794,0.7943,0.7939,0.7939,0.7456,0.0,0.7815,0.3097,0.0,0.0,0.0,0.0,0.0,0.0,0.0,0.0,-0.4371,-0.7055,-0.7684,-0.8117,-0.8431,-0.8516,-0.854,-0.8554,-0.8554,-0.8554,-0.8554,-0.8554,0.0,0.0,-1.0217,-1.0217,-1.1648,-1.3908,-1.4253,-1.5224,-1.644,-1.6734,-1.6814,-1.6727,-1.6386,-1.6106,-1.5885,-1.5845,-1.5832,-1.5838,-1.5885,-1.5865,-1.5838,-1.5885,-1.5865,-1.6008,-1.7073,-1.7561,-1.7948,-1.9157,-2.0352,-2.1391,-2.1507,-2.2413,-2.3135,-2.3135,-2.3135,-2.3135,-2.3135,-2.3135,-2.3135,-2.3135,-2.3135,-2.2794,-2.1839,-2.2587,-2.2773,-2.1759,-2.2967,-2.3857,-2.3799,-2.418,-2.4297,-2.4004,-2.3926,-2.4072,-2.4502,-2.4941,-2.5352,-2.5732,-2.5361,-2.591,-2.748,-2.7245,-2.8033,-2.9534,-2.9702,-2.9792,0.0,0.0,0.0,0.0,0.0,0.0,0.0,0.0,0.0,0.0,0.0,0.0,0.0,0.7285,0.7417,0.0,0.0,0.7787,0.0,0.0,0.7902,0.7791,0.0,0.53,0.7021,0.2897,0.0,0.0,0.0,0.0,0.0,0.0,0.0,0.0,-0.0843,-0.2459,-0.51,-0.739,-0.8588,-0.8676,-0.8808,-0.8869,-0.8869,-0.8869,-0.8869,-0.8869,0.0,-0.8975,-0.9081,-0.9081,-1.0696,-1.3064,-1.3397,-1.4931,-1.7048,-1.7341,-1.7295,-1.7001,-1.646,-1.6246,-1.6166,-1.5912,-1.5832,-1.5879,-1.6126,-1.6032,-1.5879,-1.6132,-1.6025,-1.5772,-1.5803,-1.675,-1.798,-1.8938,-2.0251,-2.1569,-2.2589,-2.296,-2.3135,-2.3135,-2.3135,-2.3135,-2.3135,-2.3135,-2.3135,-2.3135,-2.3135,-2.3183,-2.3355,-2.3592,-2.3592,-2.3413,-2.3971,-2.418,-2.3818,-2.418,-2.4551,-2.4853,-2.4531,-2.4512,-2.4951,-2.54,-2.5664,-2.5742,-2.5674,-2.5879,-2.6372,-2.7239,-2.7843,-2.8347,-2.9365,-2.9792,0.0,0.1888,0.3222,0.0651,0.0,0.0,0.0,0.0,0.0,0.0,0.0,0.0,0.0,0.0,0.7573,0.7807,0.0,0.7933,0.7933,0.7994,0.7925,0.0,0.0,0.3809,0.3293,0.1307,0.0,0.0,0.0,0.0,0.0,0.0,0.0,0.0,0.0,-0.1396,-0.4475,-0.7287,-0.8759,-0.8835,-0.8906,-0.894,-0.894,-0.894,-0.894,-0.894,0.0,-0.894,-0.894,-0.894,-1.0035,-1.1797,-1.2856,-1.4412,-1.6128,-1.7259,-1.7402,-1.7108,-1.684,-1.664,-1.6486,-1.6346,-1.6306,-1.6333,-1.6466,-1.6413,-1.6299,-1.6279,-1.6059,-1.5893,-1.6493,-1.7208,-1.801,-1.9019,-2.0355,-2.1544,-2.2339,-2.285,-2.3213,-2.3447,-2.3301,-2.3135,-2.3135,-2.3135,-2.3135,-2.3135,-2.334,-2.3564,-2.3769,-2.3984,-2.4121,-2.4121,-2.4512,-2.4687,-2.4502,-2.4883,-2.5107,-2.5068,-2.5107,-2.5215,-2.542,-2.5625,-2.5742,-2.5742,-2.5742,-2.5974,-2.6378,-2.6657,-2.7386,-2.8512,-2.8742,-2.9197,0.0815,0.3476,0.557,0.2417,0.0,0.0678,0.0097,0.0,0.0,0.0,0.0,0.0,0.0,0.7624,0.0,0.8004,0.8038,0.8038,0.8038,0.8038,0.7952,0.7985,0.5636,0.2916,0.0303,0.0,0.0,0.0,0.0,0.0,0.0,0.0,0.0,0.0,0.0,-0.1403,-0.448,-0.679,-0.819,-0.8947,-0.8944,-0.894,-0.894,-0.894,-0.894,-0.894,-0.894,-0.894,-0.894,-0.894,-0.9625,-1.0911,-1.2665,-1.4232,-1.5787,-1.7068,-1.7442,-1.7241,-1.7174,-1.7001,-1.68,-1.6727,-1.6707,-1.672,-1.6787,-1.676,-1.6673,-1.652,-1.6266,-1.6204,-1.7167,-1.7392,-1.7814,-1.9382,-2.048,-2.139,-2.2364,-2.3024,-2.3506,-2.374,-2.3516,-2.3262,-2.3154,-2.3223,-2.3291,-2.3291,-2.3662,-2.3975,-2.4072,-2.4365,-2.457,-2.457,-2.4961,-2.5225,-2.5225,-2.5537,-2.5596,-2.5244,-2.5547,-2.5742,-2.5742,-2.5742,-2.5742,-2.5742,-2.5742,-2.5882,-2.6331,-2.6152,-2.6966,-2.8537,-2.8231,-2.8749,0.3384,0.3588,0.426,0.6156,0.0,0.0,0.0475,0.0,0.0,0.0,0.0,0.0,0.0,0.7753,0.7939,0.8038,0.8038,0.8038,0.8038,0.0,0.7952,0.7985,0.5636,0.2916,0.0303,0.0,0.0,0.0,0.0,0.0,0.0,0.0,0.0,0.0,0.0,-0.1419,-0.4468,-0.4655,-0.6154,-0.886,-0.895,-0.894,-0.894,-0.894,-0.894,-0.894,-0.894,-0.894,-0.894,-0.894,-0.9801,-1.1197,-1.2719,-1.4978,-1.7443,-1.7575,-1.7569,-1.7515,-1.7241,-1.7134,-1.7074,-1.6794,-1.6707,-1.676,-1.7034,-1.6927,-1.676,-1.7014,-1.6874,-1.658,-1.6404,-1.6637,-1.7421,-1.9918,-2.0591,-2.1268,-2.3689,-2.4254,-2.4219,-2.3857,-2.3769,-2.3613,-2.3213,-2.3477,-2.374,-2.374,-2.4102,-2.4521,-2.4922,-2.5,-2.5019,-2.5019,-2.542,-2.5684,-2.5684,-2.5723,-2.5723,-2.5693,-2.5723,-2.5742,-2.5742,-2.5742,-2.5742,-2.5742,-2.5742,-2.5518,-2.5248,-2.5798,-2.6697,-2.7936,-2.8058,-2.8955,0.579,0.5767,0.602,0.6923,0.0,0.0,0.0,0.0,0.0,0.0,0.0,0.0,0.0,0.0,0.8048,0.8041,0.8038,0.8038,0.8038,0.8038,0.8048,0.7975,0.5632,0.2927,0.0307,0.0,0.0,0.0,0.0,0.0,0.0,0.0,0.0,0.0,0.0,-0.1423,-0.4489,-0.6342,-0.7747,-0.8883,-0.8846,-0.894,-0.894,-0.894,-0.894,-0.894,-0.894,-0.894,-0.894,-0.894,-0.9265,-0.9915,-1.2403,-1.5097,-1.7582,-1.7582,-1.7582,-1.7569,-1.7455,-1.7422,-1.7402,-1.7288,-1.7248,-1.7275,-1.7382,-1.7341,-1.7235,-1.7168,-1.7201,-1.7141,-1.6667,-1.662,-1.7193,-1.9033,-1.999,-2.1213,-2.3303,-2.403,-2.4443,-2.456,-2.4365,-2.4131,-2.3965,-2.4072,-2.418,-2.418,-2.4541,-2.4883,-2.5049,-2.5312,-2.5488,-2.5488,-2.5635,-2.5742,-2.5742,-2.5742,-2.5742,-2.5742,-2.5742,-2.5742,-2.5742,-2.5742,-2.5742,-2.5742,-2.5742,-2.5654,-2.5478,-2.6228,-2.7158,-2.8376,-2.8899,-2.9703,0.7082,0.706,0.6945,0.0,0.0,0.0,0.0,0.0,0.0,0.0,0.0,0.0,0.0,0.0,0.0,0.0,0.8038,0.8038,0.8038,0.8038,0.8048,0.7969,0.6345,0.3848,0.031,0.0,0.0,0.0,0.0,0.0,0.0,0.0,0.0,0.0,0.0,-0.0993,-0.3089,-0.6024,-0.7976,-0.8883,-0.8846,-0.894,-0.894,-0.894,-0.894,-0.894,-0.894,-0.894,-0.894,-0.894,-0.9482,-1.0457,-1.2512,-1.5097,-1.7582,-1.7582,-1.7582,-1.7582,-1.7582,-1.7582,-1.7582,-1.7582,-1.7582,-1.7582,-1.7582,-1.7582,-1.7542,-1.7341,-1.7428,-1.7488,-1.7088,-1.6981,-1.7475,-1.9254,-2.0327,-2.1472,-2.3629,-2.445,-2.4883,-2.5039,-2.4824,-2.458,-2.4443,-2.4531,-2.4619,-2.4619,-2.5,-2.5283,-2.5283,-2.5547,-2.5742,-2.5742,-2.5742,-2.5742,-2.5742,-2.5742,-2.5742,-2.5742,-2.5742,-2.5742,-2.5742,-2.5742,-2.5742,-2.5742,-2.5742,-2.5917,-2.6294,-2.6661,-2.7763,-2.9429,-2.9644,-3.0275,0.7044,0.7129,0.0,0.0,0.0,0.0,0.0,0.0,0.0,0.0,0.0,0.7784,0.7915,0.0,0.0,0.8014,0.8038,0.8038,0.8041,0.8041,0.8048,0.7972,0.7989,0.5893,0.0516,0.0,0.0,0.0,0.0,0.0,0.0,0.0,0.0,0.0,0.0,-0.0,-0.0112,-0.3015,-0.5929,-0.8863,-0.895,-0.894,-0.894,-0.894,-0.894,-0.894,-0.894,-0.894,-0.894,-0.894,-1.0676,-1.327,-1.3264,-1.5097,-1.7582,-1.7582,-1.7582,-1.7582,-1.7582,-1.7582,-1.7582,-1.7582,-1.7582,-1.7582,-1.7582,-1.7582,-1.7582,-1.7582,-1.7582,-1.7582,-1.7582,-1.7582,-1.8297,-2.1041,-2.1752,-2.2458,-2.5118,-2.5742,-2.5605,-2.5166,-2.5078,-2.4941,-2.4502,-2.4785,-2.5078,-2.5078,-2.5449,-2.5742,-2.5742,-2.5742,-2.5742,-2.5742,-2.5742,-2.5742,-2.5742,-2.5742,-2.5742,-2.5742,-2.5742,-2.5742,-2.5742,-2.5742,-2.5742,-2.5742,-2.5732,-2.639,-2.7589,-2.7127,-2.8382,-3.1199,-3.0262,-3.0664,0.489,0.0,0.0,0.0,0.0,0.0,0.0,0.0,0.0,0.0,0.0,0.7895,0.8031,0.0,0.0,0.8031,0.8038,0.8075,0.8187,0.8201,0.8204,0.8211,0.812,0.6618,0.3155,0.1073,0.0,0.0,0.0,0.0,0.0,0.0,0.0,0.0,0.0,-0.2017,-0.6175,-0.5037,-0.5929,-0.8863,-0.895,-0.894,-0.894,-0.894,-0.894,-0.894,-0.894,-0.894,-0.894,-0.894,-1.0025,-1.1864,-1.294,-1.4449,-1.6174,-1.7252,-1.7582,-1.7582,-1.7582,-1.7582,-1.7582,-1.7582,-1.7582,-1.7582,-1.7582,-1.7582,-1.7582,-1.7582,-1.7582,-1.7582,-1.7582,-1.7582,-1.8297,-2.1041,-2.1752,-2.2458,-2.5118,-2.5742,-2.5693,-2.5566,-2.5537,-2.5498,-2.5371,-2.5449,-2.5537,-2.5537,-2.5654,-2.5742,-2.5742,-2.5742,-2.5742,-2.5742,-2.5742,-2.5742,-2.5742,-2.5742,-2.5742,-2.5742,-2.5742,-2.5742,-2.5742,-2.5742,-2.5742,-2.5742,-2.6572,-2.722,-2.7589,-2.917,-3.0345,-3.1211,-3.1822,-3.2174,0.4699,0.0,0.0,0.0,0.0,0.0,0.0,0.0,0.0,0.0,0.0,0.7967,0.8028,0.7991,0.0,0.8109,0.8133,0.8184,0.8333,0.8353,0.8353,0.8353,0.8148,0.6945,0.4285,0.1628,0.0,0.0,0.0,0.0,0.0,0.0,0.0,0.0,0.0,-0.1681,-0.5278,-0.5942,-0.7176,-0.8876,-0.8954,-0.894,-0.894,-0.894,-0.894,-0.894,-0.894,-0.894,-0.894,-0.894,-0.9809,-1.1214,-1.2729,-1.4126,-1.563,-1.7041,-1.7582,-1.7582,-1.7582,-1.7582,-1.7582,-1.7582,-1.7582,-1.7582,-1.7582,-1.7582,-1.7582,-1.7582,-1.7582,-1.7582,-1.7582,-1.7989,-1.8909,-2.1143,-2.1752,-2.2458,-2.5118,-2.5742,-2.5742,-2.5742,-2.5742,-2.5742,-2.5742,-2.5742,-2.5742,-2.5742,-2.5742,-2.5742,-2.5742,-2.5742,-2.5742,-2.5742,-2.5742,-2.5742,-2.5742,-2.5742,-2.5742,-2.5742,-2.5742,-2.5742,-2.5742,-2.5742,-2.5927,-2.6476,-2.722,-2.8038,-2.9039,-3.0496,-3.15,-3.1965,-3.2698,-3.2893,0.5253,0.0,0.0,0.0,0.0,0.0,0.4293,0.0,0.766,0.7955,0.0,0.7862,0.8028,0.7946,0.795,0.8241,0.8289,0.834,0.8482,0.8503,0.8503,0.8503,0.8229,0.6998,0.4242,0.1531,0.0,0.0,0.0,0.0,0.0,0.0,0.0,0.0,0.0,0.0,0.0,-0.5607,-0.8664,-0.8893,-0.885,-0.894,-0.894,-0.894,-0.894,-0.894,-0.894,-0.894,-0.894,-0.894,-0.9699,-1.1105,-1.262,-1.4126,-1.5417,-1.7041,-1.7582,-1.7582,-1.7582,-1.7582,-1.7582,-1.7582,-1.7582,-1.7582,-1.7582,-1.7582,-1.7582,-1.7582,-1.7582,-1.7582,-1.7582,-1.8603,-1.993,-2.1347,-2.1752,-2.2567,-2.5128,-2.5742,-2.5742,-2.5742,-2.5742,-2.5742,-2.5742,-2.5742,-2.5742,-2.5742,-2.5742,-2.5742,-2.5742,-2.5742,-2.5742,-2.5742,-2.5742,-2.5742,-2.5742,-2.5742,-2.5742,-2.5742,-2.5742,-2.5732,-2.583,-2.583,-2.639,-2.7589,-2.7861,-2.9039,-3.1223,-3.1311,-3.1965,-3.3081,-3.3081,-3.3081,0.0,0.4293,0.0,0.0,0.0,0.2335,0.5578,0.6996,0.7597,0.7668,0.774,0.7896,0.817,0.8194,0.8231,0.8408,0.8435,0.8489,0.8638,0.8662,0.8662,0.8662,0.8696,0.7413,0.4252,0.1546,0.0,0.0,0.0,0.0,0.0,0.0,0.0,0.0,0.0,0.0,0.0,-0.3576,-0.6609,-0.887,-0.8954,-0.894,-0.894,-0.894,-0.894,-0.894,-0.894,-0.894,-0.894,-0.894,-0.9047,-0.9588,-1.2295,-1.348,-1.4019,-1.6605,-1.7582,-1.7582,-1.7582,-1.7582,-1.7582,-1.7582,-1.7582,-1.7582,-1.7582,-1.7582,-1.7582,-1.7582,-1.7582,-1.7582,-1.7582,-1.8603,-1.993,-2.1347,-2.2466,-2.3692,-2.5333,-2.5742,-2.5742,-2.5742,-2.5742,-2.5742,-2.5742,-2.5742,-2.5742,-2.5742,-2.5742,-2.5742,-2.5742,-2.5742,-2.5742,-2.5742,-2.5742,-2.5742,-2.5742,-2.5742,-2.5742,-2.5742,-2.5742,-2.61,-2.7125,-2.722,-2.7315,-2.7589,-2.9498,-3.0676,-3.1223,-3.2239,-3.2797,-3.3081,-3.3081,-3.3081,0.0,0.0,0.0,0.0,0.0,0.0,0.604,0.7349,0.7577,0.7597,0.7824,0.7994,0.8228,0.8211,0.8255,0.8543,0.853,0.856,0.8788,0.8818,0.8818,0.8818,0.8819,0.7724,0.4527,0.167,0.0,0.0,0.0,0.0,0.0,0.0,0.0,0.0,0.0,-0.0672,-0.2128,-0.3691,-0.5931,-0.8876,-0.8954,-0.894,-0.894,-0.894,-0.894,-0.894,-0.894,-0.894,-0.894,-0.894,-0.894,-0.9154,-1.2186,-1.3264,-1.3696,-1.6499,-1.7582,-1.7582,-1.7582,-1.7582,-1.7582,-1.7582,-1.7582,-1.7582,-1.7582,-1.7582,-1.7582,-1.7582,-1.7582,-1.7582,-1.7582,-1.9109,-2.0837,-2.155,-2.2767,-2.4097,-2.543,-2.5742,-2.5742,-2.5742,-2.5742,-2.5742,-2.5742,-2.5742,-2.5742,-2.5742,-2.5742,-2.5742,-2.5742,-2.5742,-2.5742,-2.5742,-2.5742,-2.5742,-2.5742,-2.5742,-2.5917,-2.6572,-2.6572,-2.7125,-2.8402,-2.905,-2.9315,-2.9315,-3.0586,-3.15,-3.214,-3.2797,-3.3081,-3.3081,-3.3081,-3.3081,0.0,0.0,0.0,0.0,0.0,0.0,0.4942,0.6453,0.7088,0.7601,0.7828,0.8062,0.8269,0.8204,0.8255,0.8679,0.8645,0.8648,0.8903,0.894,0.894,0.8944,0.887,0.7979,0.5485,0.2015,0.0,0.0,0.0,0.0,0.0,0.0,0.0,0.0,0.0,-0.1458,-0.4497,-0.448,-0.5935,-0.8897,-0.885,-0.894,-0.894,-0.894,-0.894,-0.894,-0.894,-0.894,-0.894,-0.894,-0.894,-0.9154,-1.2186,-1.3264,-1.3696,-1.6499,-1.7582,-1.7582,-1.7582,-1.7582,-1.7582,-1.7582,-1.7582,-1.7582,-1.7582,-1.7582,-1.7582,-1.7582,-1.7582,-1.7582,-1.7582,-1.9413,-2.1448,-2.1651,-2.2767,-2.4097,-2.543,-2.5742,-2.5742,-2.5742,-2.5742,-2.5742,-2.5742,-2.5742,-2.5742,-2.5742,-2.5742,-2.5742,-2.5742,-2.5742,-2.5742,-2.5742,-2.5742,-2.5742,-2.5742,-2.5917,-2.6476,-2.7494,-2.7778,-2.8402,-2.9681,-3.0676,-3.1311,-3.15,-3.15,-3.2052,-3.3081,-3.3081,-3.3081,-3.3081,-3.3081,-3.324,0.0,0.0,0.0,0.0,0.0,0.019,0.0,0.0,0.5057,0.0,0.7744,0.7967,0.8377,0.8435,0.853,0.8855,0.8893,0.8893,0.8933,0.894,0.8947,0.8856,0.888,0.8782,0.8335,0.3251,0.0,0.0,0.0,0.0,0.0,0.0,0.0,0.0,0.0,-0.1458,-0.4497,-0.448,-0.5935,-0.8897,-0.885,-0.894,-0.894,-0.894,-0.894,-0.894,-0.894,-0.894,-0.894,-0.894,-0.894,-0.9154,-1.2186,-1.3264,-1.3696,-1.6499,-1.7582,-1.7582,-1.7582,-1.7582,-1.7582,-1.7582,-1.7582,-1.7582,-1.7582,-1.7582,-1.7582,-1.7582,-1.7582,-1.7582,-1.7582,-1.8708,-2.0238,-2.1448,-2.2767,-2.4097,-2.543,-2.5742,-2.5742,-2.5742,-2.5742,-2.5742,-2.5742,-2.5742,-2.5742,-2.5742,-2.5742,-2.5742,-2.5742,-2.5742,-2.5742,-2.5742,-2.5742,-2.5742,-2.5742,-2.6658,-2.74,-2.7589,-2.8588,-2.9681,-3.0944,-3.1122,-3.1677,-3.2797,-3.2884,-3.2896,-3.3081,-3.3081,-3.3081,-3.3081,-3.3081,-3.3641,0.0,0.0,0.0,0.0,0.0,0.0,0.0,0.0,0.471,0.7359,0.7861,0.8024,0.8309,0.8364,0.8462,0.876,0.8811,0.8842,0.8927,0.894,0.8947,0.886,0.7399,0.7073,0.8795,0.3477,0.0,0.0,0.0,0.0,0.0,0.0,0.0,0.0,0.0,-0.1458,-0.4497,-0.448,-0.5926,-0.8856,-0.895,-0.894,-0.894,-0.894,-0.894,-0.894,-0.894,-0.894,-0.894,-0.894,-0.894,-0.9154,-1.2186,-1.3264,-1.3696,-1.6499,-1.7582,-1.7582,-1.7582,-1.7582,-1.7582,-1.7582,-1.7582,-1.7582,-1.7582,-1.7582,-1.7582,-1.7582,-1.7582,-1.7786,-1.8506,-1.9723,-2.1143,-2.2466,-2.389,-2.502,-2.5538,-2.5742,-2.5742,-2.5742,-2.5742,-2.5742,-2.5742,-2.5742,-2.5742,-2.5742,-2.5742,-2.5742,-2.5742,-2.5742,-2.5742,-2.5742,-2.661,-2.7125,-2.6774,-2.8189,-2.9245,-2.9601,-3.0135,-3.0956,-3.2239,-3.2239,-3.2513,-3.3081,-3.3081,-3.3081,-3.3081,-3.3081,-3.3081,-3.3081,-3.3713,-3.4275,0.0,0.0,0.0,0.0,0.0,0.0,0.0,0.0,0.4891,0.0,0.8076,0.8187,0.8303,0.8323,0.8411,0.8669,0.8743,0.8808,0.8923,0.8944,0.8846,0.8866,0.6948,0.5942,0.6519,0.2578,0.0,0.0,0.0,0.0,0.0,0.0,0.0,0.0,-0.1458,-0.3367,-0.5624,-0.5603,-0.6705,-0.894,-0.894,-0.894,-0.894,-0.894,-0.894,-0.894,-0.894,-0.894,-0.894,-0.894,-0.894,-0.9154,-1.1755,-1.294,-1.3588,-1.6068,-1.7259,-1.7582,-1.7582,-1.7582,-1.7582,-1.7582,-1.7582,-1.7582,-1.7582,-1.7582,-1.7582,-1.7582,-1.7582,-1.7891,-1.922,-2.0333,-2.155,-2.3276,-2.451,-2.5333,-2.5635,-2.5742,-2.5742,-2.5742,-2.5742,-2.5742,-2.5742,-2.5742,-2.5742,-2.5742,-2.5742,-2.5742,-2.5742,-2.583,-2.5996,-2.6366,-2.7703,-2.8496,-2.8433,-2.9936,-3.1101,-3.1561,-3.1896,-3.2555,-3.3495,-3.3495,-3.3432,-3.3294,-3.3282,-3.3219,-3.3081,-3.3081,-3.324,-3.3556,-3.4345,-3.4979,0.0,0.0,0.0,0.0,0.0,0.0,0.0,0.0,0.5287,0.7954,0.8489,0.8462,0.8469,0.8472,0.8523,0.8682,0.8832,0.893,0.8937,0.8846,0.887,0.889,0.8788,0.6519,0.1009,0.0224,0.0,0.0,0.0,0.0,0.0,0.0,0.0,0.0,-0.5516,-0.8476,-0.8683,-0.8651,-0.8735,-0.894,-0.894,-0.894,-0.894,-0.894,-0.894,-0.894,-0.894,-0.894,-0.894,-0.894,-0.894,-0.9047,-1.0566,-1.2082,-1.348,-1.4984,-1.6393,-1.7582,-1.7582,-1.7582,-1.7582,-1.7582,-1.7582,-1.7582,-1.7582,-1.7582,-1.7582,-1.7582,-1.7582,-1.7891,-1.922,-1.9627,-2.0341,-2.3076,-2.3791,-2.4196,-2.543,-2.5742,-2.5742,-2.5742,-2.5742,-2.5742,-2.5742,-2.5742,-2.5742,-2.5742,-2.5742,-2.5742,-2.5742,-2.6103,-2.6824,-2.8143,-2.8638,-2.9481,-3.07,-3.1983,-3.2757,-3.2826,-3.3875,-3.4535,-3.4638,-3.4638,-3.4399,-3.3872,-3.3859,-3.3608,-3.3081,-3.3081,-3.3641,-3.4581,-3.4664,-3.5775,0.0,0.0,0.0,0.0,0.0,0.0,0.0,0.0829,0.295,0.7781,0.8646,0.8516,0.8486,0.8564,0.8648,0.8703,0.8838,0.8944,0.885,0.8856,0.8873,0.8903,0.891,0.6519,0.0561,0.0,0.0,0.0,0.0,0.0,0.0,0.0,-0.1795,-0.5628,-0.7785,-0.891,-0.888,-0.887,-0.885,-0.894,-0.894,-0.894,-0.894,-0.894,-0.894,-0.894,-0.894,-0.894,-0.894,-0.894,-0.894,-0.9047,-1.0566,-1.1969,-1.348,-1.4877,-1.628,-1.7582,-1.7582,-1.7582,-1.7582,-1.7582,-1.7582,-1.7582,-1.7582,-1.7582,-1.7582,-1.7582,-1.8199,-1.9213,-2.0641,-2.1558,-2.2676,-2.451,-2.502,-2.5118,-2.5635,-2.5742,-2.5742,-2.5742,-2.5742,-2.5742,-2.5742,-2.5742,-2.5742,-2.5742,-2.5977,-2.6438,-2.7278,-2.7863,-2.8613,-2.9946,-3.1247,-3.2103,-3.2253,-3.3687,-3.4422,-3.4077,-3.4441,-3.4726,-3.4726,-3.4387,-3.411,-3.3897,-3.4285,-3.399,-3.3081,-3.3797,-3.4345,-3.4746,-3.6094,-3.7112,0.0,0.0,0.0,0.0,0.0,0.0,0.0,0.0,0.1164,0.5068,0.7382,0.8363,0.7344,0.8075,0.8788,0.872,0.8845,0.8846,0.886,0.8873,0.8886,0.891,0.7089,0.4375,0.0336,0.0,0.0,0.0,0.0,0.0,0.0,-0.1907,-0.4834,-0.8818,-0.891,-0.8886,-0.8863,-0.8856,-0.8954,-0.894,-0.894,-0.894,-0.894,-0.894,-0.894,-0.894,-0.894,-0.894,-0.894,-0.894,-0.894,-0.9047,-1.0566,-1.1969,-1.348,-1.4877,-1.628,-1.7582,-1.7582,-1.7582,-1.7582,-1.7582,-1.7582,-1.7602,-1.7709,-1.7662,-1.7622,-1.7829,-1.8851,-2.0127,-2.1672,-2.3265,-2.4824,-2.5741,-2.5957,-2.5957,-2.5957,-2.584,-2.5742,-2.5742,-2.5742,-2.5742,-2.5742,-2.5742,-2.5781,-2.5937,-2.6576,-2.7476,-2.8481,-2.9383,-3.045,-3.1796,-3.3147,-3.4006,-3.4047,-3.5127,-3.5667,-3.529,-3.5278,-3.5278,-3.5278,-3.4751,-3.4527,-3.4665,-3.4849,-3.4695,-3.4178,-3.4897,-3.5373,-3.5775,-3.7204,-3.7994,0.0,0.0,0.0,0.0,0.0,0.0,0.0,0.0,0.0,0.0,0.4585,0.775,0.5033,0.6956,0.884,0.8645,0.8752,0.8863,0.8863,0.8897,0.8805,0.869,0.3479,0.0,0.0,0.0,0.0,0.0,0.0,0.0,0.0,-0.563,-0.8933,-0.8913,-0.888,-0.8863,-0.886,-0.895,-0.894,-0.894,-0.894,-0.894,-0.894,-0.894,-0.894,-0.894,-0.894,-0.894,-0.894,-0.894,-0.894,-0.9047,-1.0566,-1.1969,-1.348,-1.4877,-1.6287,-1.7595,-1.7595,-1.7602,-1.7609,-1.7609,-1.7602,-1.7655,-1.7963,-1.7842,-1.7722,-1.8433,-1.9441,-2.0734,-2.2446,-2.4593,-2.6406,-2.6406,-2.6406,-2.6406,-2.6406,-2.6074,-2.5771,-2.5771,-2.5771,-2.5771,-2.5771,-2.5771,-2.5918,-2.6437,-2.7554,-2.8568,-2.9098,-3.0647,-3.2334,-3.3613,-3.4173,-3.4981,-3.6263,-3.6358,-3.6358,-3.6358,-3.6358,-3.6358,-3.6358,-3.583,-3.58,-3.6345,-3.5838,-3.5801,-3.6304,-3.629,-3.6774,-3.7829,-3.7829,-3.8383,0.0,0.0,0.0,0.0,0.0,0.0,0.0,0.0,0.0,0.0,0.132,0.2872,0.4239,0.6914,0.8231,0.5989,0.743,0.889,0.8897,0.8884,0.7334,0.2969,0.1027,0.0,0.0,0.0,0.0,0.0,0.0,0.0,0.0,-0.562,-0.8917,-0.89,-0.8876,-0.8853,-0.895,-0.8944,-0.894,-0.894,-0.894,-0.894,-0.894,-0.894,-0.894,-0.894,-0.894,-0.894,-0.894,-0.894,-0.894,-0.9047,-1.0566,-1.1969,-1.348,-1.4877,-1.6417,-1.7916,-1.7916,-1.8056,-1.8237,-1.8237,-1.809,-1.7976,-1.8277,-1.8156,-1.8205,-1.9642,-2.1079,-2.2617,-2.5167,-2.6292,-2.6846,-2.6846,-2.6846,-2.6846,-2.6846,-2.6748,-2.666,-2.666,-2.666,-2.666,-2.666,-2.666,-2.6991,-2.8171,-2.8859,-3.0087,-3.2179,-3.3138,-3.416,-3.554,-3.5771,-3.5966,-3.6358,-3.6358,-3.6358,-3.6358,-3.6358,-3.6358,-3.6358,-3.6702,-3.6828,-3.7012,-3.7593,-3.7961,-3.809,-3.7557,-3.751,-3.7829,-3.862,-3.9104,-0.0536,0.0,0.0,0.0,0.0,0.0,0.0,0.0,0.0,0.0,0.0,0.0887,0.3914,0.489,0.506,0.4591,0.7013,0.885,0.8901,0.6759,0.391,0.046,0.0,0.0,0.0,0.0,0.0,0.0,0.0,-0.113,-0.359,-0.5835,-0.7639,-0.888,-0.886,-0.8954,-0.894,-0.894,-0.894,-0.894,-0.894,-0.894,-0.894,-0.894,-0.894,-0.894,-0.894,-0.894,-0.894,-0.894,-0.9265,-0.9915,-1.1433,-1.294,-1.4352,-1.5875,-1.7041,-1.7889,-1.8143,-1.8263,-1.8323,-1.845,-1.829,-1.8123,-1.8544,-1.8803,-1.9313,-2.0633,-2.2533,-2.4604,-2.6998,-2.7422,-2.7285,-2.7285,-2.7285,-2.7285,-2.7285,-2.7422,-2.7441,-2.708,-2.7012,-2.7012,-2.7012,-2.75,-2.8137,-2.9105,-3.0459,-3.1988,-3.379,-3.4691,-3.5571,-3.6358,-3.6358,-3.6358,-3.6358,-3.6358,-3.6358,-3.6358,-3.6896,-3.715,-3.715,-3.7732,-3.8187,-3.869,-3.8748,-3.888,-3.9028,-3.8647,-3.8472,-3.8472,-3.9104,-3.9424,-0.1965,-0.0626,0.0,0.0,0.0,0.0,0.0,0.0,0.0,0.0,0.0,0.0779,0.3461,0.1812,0.0917,0.356,0.6199,0.7906,0.789,0.3348,0.0,0.0,0.0,0.0,0.0,0.0,0.0,0.0,-0.0576,-0.3311,-0.8578,-0.6391,-0.6151,-0.886,-0.895,-0.894,-0.894,-0.894,-0.894,-0.894,-0.894,-0.894,-0.894,-0.894,-0.894,-0.894,-0.894,-0.894,-0.894,-0.9047,-0.9915,-1.1214,-1.2729,-1.4126,-1.5559,-1.7339,-1.7862,-1.7762,-1.8303,-1.8337,-1.8183,-1.845,-1.8337,-1.8203,-1.8758,-1.963,-2.0635,-2.1773,-2.4147,-2.6608,-2.795,-2.8018,-2.7734,-2.7734,-2.7734,-2.7734,-2.7734,-2.8027,-2.8066,-2.7305,-2.7158,-2.7158,-2.7158,-2.8228,-2.9337,-2.9849,-3.2195,-3.3947,-3.4521,-3.5667,-3.6358,-3.6358,-3.6358,-3.6358,-3.6358,-3.6358,-3.6358,-3.6358,-3.7507,-3.8107,-3.8107,-3.8901,-3.9732,-4.067,-3.9758,-3.9247,-3.9424,-3.9424,-3.9424,-3.9424,-3.9424,-3.9424,-0.6,-0.4378,-0.2412,-0.045,0.0,0.0,0.0,0.0,0.0,0.0,0.0,0.0212,0.0752,0.0442,0.0225,0.0789,0.1387,0.1766,0.1759,0.0711,0.0,0.0,0.0,0.0,0.0,0.0,0.0,0.0,-0.4436,-0.7678,-0.8808,-0.8313,-0.8295,-0.886,-0.895,-0.894,-0.894,-0.894,-0.894,-0.894,-0.894,-0.894,-0.894,-0.894,-0.894,-0.894,-0.894,-0.894,-0.9047,-1.0131,-1.0891,-1.1214,-1.2729,-1.4126,-1.5636,-1.7106,-1.7943,-1.833,-1.845,-1.8604,-1.8764,-1.8818,-1.8644,-1.847,-1.8818,-1.9934,-2.1657,-2.4446,-2.649,-2.795,-2.8184,-2.8232,-2.8174,-2.8174,-2.8174,-2.8174,-2.8174,-2.8232,-2.8242,-2.8076,-2.8047,-2.8047,-2.8047,-2.9143,-3.0476,-3.1581,-3.3215,-3.4655,-3.5858,-3.6263,-3.6358,-3.6358,-3.6358,-3.6358,-3.6358,-3.6358,-3.6358,-3.6358,-3.7507,-3.8107,-3.8107,-4.0006,-4.1151,-4.14,-4.1607,-4.0964,-3.9424,-3.9424,-3.9424,-3.9424,-3.9424,-3.9424,-0.7081,-0.6266,-0.5095,-0.3846,0.0,0.0,0.0,0.0,0.0,0.0,0.0,0.0,0.0,0.0,0.0,0.0,0.0,0.0,0.0,0.0,0.0,0.0,0.0,0.0,0.0,0.0,0.0,0.0,-0.5488,-0.895,-0.8913,-0.8876,-0.8856,-0.8846,-0.8947,-0.894,-0.894,-0.894,-0.894,-0.894,-0.894,-0.894,-0.894,-0.894,-0.894,-0.894,-0.894,-0.894,-0.9047,-1.0457,-1.1538,-1.2295,-1.3804,-1.5204,-1.6624,-1.7429,-1.7909,-1.8083,-1.8384,-1.849,-1.8537,-1.8831,-1.8731,-1.8577,-1.9011,-2.0692,-2.3148,-2.6327,-2.7726,-2.8291,-2.8291,-2.8291,-2.8291,-2.8291,-2.8291,-2.8291,-2.8291,-2.8291,-2.8291,-2.8291,-2.8794,-2.9303,-2.9303,-3.0421,-3.1735,-3.3155,-3.4557,-3.5667,-3.6358,-3.6358,-3.6358,-3.6358,-3.6358,-3.6358,-3.6358,-3.6358,-3.6628,-3.7243,-3.8392,-3.9258,-3.9844,-4.1504,-4.2159,-4.1513,-4.1781,-4.107,-3.9424,-3.9424,-3.9424,-3.9424,-3.9424,-3.961,-0.7074,-0.7078,-0.7081,0.0,0.0,-0.1302,0.0,0.0,0.0,0.0,0.0,0.0,0.0,0.0,0.0,0.0,0.0,0.0,0.0,0.0,0.0,0.0,0.0,0.0,0.0,0.0,-0.0487,-0.1778,-0.57,-0.8369,-0.8937,-0.8883,-0.8846,-0.894,-0.894,-0.894,-0.894,-0.894,-0.894,-0.894,-0.894,-0.894,-0.894,-0.894,-0.894,-0.894,-0.894,-0.894,-0.9047,-1.0781,-1.2186,-1.348,-1.4877,-1.628,-1.7615,-1.7862,-1.7876,-1.7816,-1.8257,-1.8323,-1.8283,-1.8704,-1.8935,-1.9215,-1.9981,-2.2161,-2.482,-2.7511,-2.8291,-2.8291,-2.8291,-2.8291,-2.8291,-2.8291,-2.8291,-2.8291,-2.8291,-2.8291,-2.8398,-2.8601,-2.9503,-3.0317,-3.0317,-3.1633,-3.3055,-3.4276,-3.5571,-3.6358,-3.6358,-3.6358,-3.6358,-3.6358,-3.6358,-3.6358,-3.6358,-3.6358,-3.6883,-3.8017,-3.9271,-4.0404,-4.1587,-4.2725,-4.2776,-4.1594,-4.1564,-4.092,-3.9604,-3.9604,-3.9544,-3.9424,-3.9424,-3.9864,0.0,0.0,0.0,0.0,-0.6831,0.0,0.0,0.0,0.0,0.0,0.0,0.0,0.0,0.0,0.0,0.0,0.0,0.0,0.0,0.0,0.0,0.0,0.0,0.0,0.0,0.0,-0.2415,-0.8219,-0.6429,-0.6182,-0.9051,-0.9025,-0.8944,-0.894,-0.894,-0.894,-0.894,-0.894,-0.894,-0.894,-0.894,-0.894,-0.894,-0.894,-0.894,-0.894,-0.894,-0.894,-0.9154,-1.1864,-1.3156,-1.348,-1.4877,-1.628,-1.7589,-1.7622,-1.7956,-1.8357,-1.8163,-1.8417,-1.8791,-1.8604,-1.966,-2.1226,-2.2815,-2.4488,-2.6155,-2.7843,-2.8291,-2.8291,-2.8291,-2.8291,-2.8291,-2.8291,-2.8291,-2.8291,-2.8291,-2.8291,-2.8698,-2.9807,-3.0214,-3.0317,-3.0317,-3.2454,-3.4178,-3.4385,-3.5571,-3.6358,-3.6358,-3.6358,-3.6358,-3.6358,-3.6358,-3.6358,-3.6358,-3.6358,-3.6883,-3.8017,-3.9271,-4.0404,-4.1587,-4.2725,-4.2985,-4.2267,-4.2252,-4.1609,-4.0292,-4.0292,-3.9993,-3.9424,-3.9424,-3.9864,0.0,0.0,0.0,0.0,0.0,0.0,-0.6293,0.0,-0.4175,0.0,0.0,0.0,0.0,0.0,0.0,0.0,-0.2604,0.0,0.0,0.0,0.0,0.0,0.0,0.0,0.0,0.0,-0.2774,-0.9346,-0.8407,-0.8008,-0.9191,-0.9106,-0.9025,-0.894,-0.894,-0.894,-0.894,-0.894,-0.894,-0.894,-0.894,-0.894,-0.894,-0.894,-0.894,-0.894,-0.894,-0.894,-0.9158,-1.2077,-1.3264,-1.348,-1.5743,-1.7145,-1.7849,-1.7849,-1.8123,-1.847,-1.8343,-1.8464,-1.8677,-1.8724,-1.9921,-2.1736,-2.3335,-2.4931,-2.6381,-2.7843,-2.8291,-2.8291,-2.8291,-2.8291,-2.8291,-2.8291,-2.8291,-2.8495,-2.9313,-2.9513,-2.9807,-3.1224,-3.214,-3.2655,-3.2655,-3.3674,-3.4678,-3.5463,-3.6061,-3.6358,-3.6358,-3.6358,-3.6358,-3.6358,-3.6358,-3.6358,-3.6358,-3.6977,-3.7861,-3.9094,-4.0831,-4.2126,-4.2548,-4.3076,-4.303,-4.2372,-4.1983,-4.1324,-4.0397,-4.0023,-3.9694,-3.9409,-3.992,-4.0638,-0.7665,0.0,0.0,0.0,0.0,0.0,0.0,0.0,0.0,0.0,0.0,0.0,0.0,0.0,0.0,0.0,0.0,-0.5709,0.0,-0.3767,0.0,0.0,0.0,0.0,0.0,0.0,-0.2393,-0.8027,-0.9288,-0.9585,-0.9245,-0.9184,-0.9086,-0.8944,-0.894,-0.894,-0.894,-0.894,-0.894,-0.894,-0.894,-0.894,-0.894,-0.894,-0.894,-0.894,-0.894,-0.894,-0.9158,-1.2077,-1.33,-1.3681,-1.6618,-1.7943,-1.8263,-1.8103,-1.8283,-1.8597,-1.8517,-1.8863,-1.9299,-1.9604,-2.1068,-2.3031,-2.4156,-2.5489,-2.6943,-2.796,-2.8291,-2.8291,-2.8291,-2.8291,-2.8291,-2.8291,-2.8601,-2.9102,-3.012,-3.0618,-3.1224,-3.2644,-3.3674,-3.4483,-3.4872,-3.4981,-3.5271,-3.6263,-3.6358,-3.6358,-3.6358,-3.6358,-3.6358,-3.6358,-3.6358,-3.6358,-3.6358,-3.7415,-3.8725,-4.0232,-4.2208,-4.3329,-4.3329,-4.3329,-4.303,-4.2372,-4.1713,-4.1055,-4.0397,-3.9738,-3.9538,-3.9809,-4.0432,-4.1147,0.0,0.0,0.0,-0.7404,0.0,0.0,0.0,0.0,-0.7754,0.0,0.0,0.0,0.0,0.0,0.0,0.0,0.0,0.0,0.0,0.0,0.0,0.0,0.0,0.0,0.0,0.0,-0.1406,0.0,-0.8037,-0.9627,-0.9371,-0.9235,-0.9086,-0.8944,-0.894,-0.894,-0.894,-0.894,-0.894,-0.894,-0.894,-0.894,-0.894,-0.894,-0.894,-0.894,-0.894,-0.894,-0.9158,-1.2077,-1.35,-1.3914,-1.6804,-1.8384,-1.8824,-1.8257,-1.841,-1.8871,-1.8591,-1.9639,-2.1018,-2.1466,-2.3582,-2.5927,-2.6036,-2.706,-2.8291,-2.8291,-2.8291,-2.8291,-2.8291,-2.8291,-2.8291,-2.8291,-2.9313,-3.0214,-3.0317,-3.1327,-3.2644,-3.408,-3.4385,-3.4775,-3.6061,-3.6358,-3.6358,-3.6358,-3.6358,-3.6358,-3.6358,-3.6358,-3.6358,-3.6358,-3.6358,-3.6358,-3.6358,-3.7415,-3.9067,-4.142,-4.2644,-4.3329,-4.3329,-4.3329,-4.303,-4.2372,-4.1713,-4.1055,-4.0397,-3.9738,-3.9864,-4.069,-4.069,-4.1147,0.0,0.0,-0.9496,-0.8507,0.0,0.0,0.0,0.0,0.0,0.0,0.0,0.0,0.0,0.0,0.0,0.0,0.0,0.0,0.0,0.0,0.0,0.0,0.0,0.0,0.0,0.0,0.0,-0.7744,-0.91,0.0,-0.953,-0.9388,-0.9235,-0.9086,-0.8988,-0.894,-0.894,-0.894,-0.894,-0.894,-0.894,-0.894,-0.894,-0.894,-0.894,-0.894,-0.894,-0.9482,-1.0457,-1.2512,-1.4049,-1.5367,-1.7265,-1.8404,-1.8898,-1.8698,-1.8878,-1.9314,-2.0196,-2.0889,-2.1662,-2.2662,-2.4488,-2.6155,-2.6155,-2.7159,-2.8291,-2.8291,-2.8291,-2.8291,-2.8291,-2.8291,-2.8495,-2.9408,-3.0016,-3.0824,-3.2655,-3.3365,-3.4068,-3.5463,-3.5763,-3.587,-3.6358,-3.6358,-3.6358,-3.6358,-3.6358,-3.6358,-3.6358,-3.6358,-3.6358,-3.6358,-3.6358,-3.6709,-3.7507,-3.9332,-4.107,-4.2629,-4.3076,-4.3329,-4.3329,-4.3329,-4.303,-4.2372,-4.1713,-4.1055,-4.0397,-4.0325,-4.0432,-4.0758,-4.1869,-4.2583,-1.0701,-1.072,0.0,-0.961,-0.9499,0.0,-0.8265,0.0,-0.8103,0.0,0.0,0.0,0.0,0.0,0.0,0.0,0.0,0.0,0.0,-0.895,0.0,0.0,0.0,0.0,0.0,0.0,-0.7264,-0.945,-0.9622,0.0,0.0,-0.9462,-0.931,-0.9157,-0.9015,-0.894,-0.894,-0.894,-0.894,-0.894,-0.894,-0.894,-0.894,-0.894,-0.894,-0.8944,-0.8991,-0.9891,-1.1317,-1.2922,-1.4514,-1.6303,-1.7786,-1.8651,-1.9065,-1.8965,-1.9112,-1.9591,-2.1145,-2.1919,-2.2589,-2.4147,-2.5608,-2.6825,-2.6825,-2.7606,-2.8516,-2.8516,-2.8516,-2.8516,-2.8516,-2.8408,-2.8591,-3.0016,-3.0618,-3.1633,-3.3871,-3.4775,-3.5367,-3.6263,-3.6358,-3.6358,-3.6358,-3.6358,-3.6358,-3.6358,-3.6358,-3.6358,-3.6358,-3.6358,-3.6358,-3.6358,-3.6803,-3.7678,-3.9244,-4.0718,-4.2111,-4.325,-4.3329,-4.3329,-4.3329,-4.3105,-4.2686,-4.2028,-4.1369,-4.0711,-4.0053,-4.0523,-4.0878,-4.1213,-4.2645,-4.3502]}]]